     2.11           OBSERVATION DATA    G (GPS)             RINEX VERSION / TYPE
teqc 2010Oct21 OPUS Account 20111025 17:45:01UTC            PGM / RUN BY / DATE
P 1521                                                      MARKER NAME
1144                                                        MARKER NUMBER
CSMIDDLETON NGS                                             OBSERVER / AGENCY
0220284361 TRIMBLE 5700 NP 1.22 / SP 1.22                   REC # / TYPE / VERS
12234991 TRM41249.00 NONE                                   ANT # / TYPE
  -738122.0307 -5468641.6066  3187924.8103                  APPROX POSITION XYZ
        2.0000        0.0000        0.0000                  ANTENNA: DELTA H/E/N
     1     1                                                WAVELENGTH FACT L1/2
     5    L1    L2    C1    P1    P2                        # / TYPES OF OBSERV
    15                                                      LEAP SECONDS
  2011     7    25     0     0    0.0000000     GPS         TIME OF FIRST OBS
                                                            END OF HEADER
 11  7 25  0  0  0.0000000  0  8G02G17G28G09G04G27G10G20
  30118347.64147  23485108.26645  22880556.4924                   22880554.5824
   7298417.78947   5703539.28746  21367023.9144                   21367021.6914
   1529619.00447   1204640.66246  21736181.3524                   21736178.7704
  30398757.34447  23702943.33545  22485618.6334                   22485618.9964
  10512764.12148   8209518.86746  20165243.9844                   20165242.2734
  22870369.48847  17836018.08545  22634828.9304                   22634828.1054
  40501062.43846  31574485.24644  24167864.2424                   24167866.0594
  36563061.37146  28499481.54243  24203412.6094                   24203411.6374
 11  7 25  0  0 30.0000000  0  8G02G17G28G09G04G27G10G20
  29995441.94547  23389337.68145  22857167.9924                   22857165.1214
   7290953.80147   5697723.18346  21365603.6484                   21365601.7274
   1535042.71948   1208866.92046  21737213.3834                   21737210.4414
  30319372.32447  23641084.88245  22470512.7424                   22470511.9104
  10447001.65648   8158275.40646  20152729.7034                   20152728.2344
  22811492.09447  17790139.58245  22623625.2894                   22623623.9614
  40370899.92246  31473060.14043  24143094.8444                   24143095.9734
  36548522.79346  28488152.73643  24200645.4534                   24200644.3984
 11  7 25  0  1  0.0000000  0  8G02G17G28G09G04G27G10G20
  29872800.93048  23293773.33945  22833830.6884                   22833827.9574
   7283610.03947   5692000.76246  21364206.2344                   21364204.3404
   1540844.85248   1213388.03046  21738317.3594                   21738315.3914
  30240609.15647  23579711.01145  22455524.7424                   22455523.5314
  10381823.39848   8107487.16546  20140326.5784                   20140325.0474
  22753113.97347  17744650.13145  22612515.7664                   22612515.0904
  40240714.84046  31371617.34243  24118320.9064                   24118323.1524
  36534500.91046  28477226.64543  24197976.7894                   24197976.0704
 11  7 25  0  1 30.0000000  0  8G02G17G28G09G04G27G10G20
  29750424.60247  23198415.24445  22810542.3674                   22810540.7304
   7276384.27048   5686370.28046  21362831.0084                   21362829.1054
   1547024.22348   1218203.09246  21739493.1884                   21739490.7384
  30162467.76247  23518821.62545  22440654.8444                   22440654.7424
  10317228.03148   8057153.11546  20128034.5704                   20128032.9454
  22695233.83647  17699548.74445  22601501.4694                   22601500.9304
  40110508.31346  31270157.91243  24093543.1024                   24093544.5634
  36520994.14546  28466701.90843  24195406.7814                   24195406.0514
 11  7 25  0  2  0.0000000  0  8G02G17G28G09G04G27G10G20
  29628313.01247  23103263.44645  22787305.9614                   22787303.5594
   7269274.43047   5680830.13546  21361478.2584                   21361476.4224
   1553579.80948   1223311.31546  21740741.0394                   21740738.4964
  30084947.43047  23458416.18045  22425902.9924                   22425902.1954
  10253214.26648   8007272.28546  20115853.0164                   20115851.1564
  22637850.66847  17654834.60145  22590582.3984                   22590580.8324
  39980282.02346  31168683.04243  24068761.9844                   24068762.7504
  36508000.46546  28456576.95444  24192933.7974                   24192933.8134
 11  7 25  0  2 30.0000000  0  8G02G17G28G09G04G27G10G20
  29506471.08247  23008321.74945  22764119.6564                   22764117.5634
   7262283.00447   5675382.28746  21360147.6954                   21360145.9534
   1560514.97348   1228715.30946  21742060.3754                   21742058.2704
  30008053.18447  23398498.63745  22411270.5784                   22411269.4064
  10189785.72348   7957847.46346  20103783.1484                   20103781.2304
  22580968.18848  17610510.61545  22579757.4454                   22579756.4654
  39850041.89846  31067197.43043  24043978.2734                   24043979.4614
  36495523.24647  28446854.47244  24190560.0234                   24190558.7814
 11  7 25  0  3  0.0000000  0  8G02G17G28G09G04G27G10G20
  29384898.26647  22913589.76745  22740984.9454                   22740981.9804
   7255407.53948   5670024.77746  21358839.4304                   21358837.2774
   1567828.60248   1234414.22646  21743452.1724                   21743450.4964
  29931784.35547  23339068.40645  22396757.1094                   22396756.2854
  10126940.79748   7908877.41246  20091824.0704                   20091822.0984
  22524584.87547  17566575.60145  22569028.2114                   22569027.1604
  39719789.08247  30965701.87543  24019191.5864                   24019193.1644
  36483560.68446  28437533.03044  24188283.7274                   24188282.3834
 11  7 25  0  3 30.0000000  0  8G02G17G28G09G04G27G10G20
  29263595.06647  22819067.87645  22717901.7274                   22717900.0274
   7248646.54348   5664756.47546  21357552.6804                   21357550.9964
   1575519.24247   1240406.91646  21744915.1414                   21744913.4964
  29856140.78947  23280125.41845  22382361.9454                   22382360.9884
  10064678.72348   7860361.52146  20079975.9454                   20079974.3834
  22468699.91848  17523028.90245  22558393.6724                   22558392.6764
  39589525.40647  30864197.90043  23994403.5864                   23994404.1414
  36472111.18046  28428611.33143  24186105.0704                   24186103.9224
 11  7 25  0  4  0.0000000  0  8G02G17G28G09G04G27G10G20
  29142564.60947  22724758.51245  22694870.5164                   22694868.4614
   7242001.07848   5659578.19146  21356288.0784                   21356286.1254
   1583589.09448   1246695.06646  21746451.4304                   21746449.1414
  29781125.35547  23221671.86545  22368087.3444                   22368087.0514
  10003001.00048   7812300.98746  20068239.0474                   20068237.5904
  22413315.49648  17479872.23445  22547854.5704                   22547853.4844
  39459255.44947  30762688.98244  23969613.7974                   23969614.7544
  36461176.29346  28420090.66843  24184023.5634                   24184023.1134
 11  7 25  0  4 30.0000000  0  8G02G17G28G09G04G27G10G20
  29021803.49247  22630659.01945  22671890.1804                   22671887.9224
   7235465.66447   5654485.66046  21355044.7664                   21355042.4924
   1592033.35548   1253275.01146  21748058.1334                   21748056.4494
  29706734.15647  23163704.74545  22353930.5474                   22353930.6254
   9941902.86348   7764692.06946  20056612.5554                   20056610.7544
  22358426.91447  17437101.92845  22537409.4304                   22537408.0744
  39328977.20747  30661173.62144  23944822.7194                   23944823.9574
  36450750.85247  28411966.89343  24182040.1954                   24182038.9734
 11  7 25  0  5  0.0000000  0  8G02G17G28G09G04G27G10G20
  28901315.23447  22536772.12545  22648962.3754                   22648959.7664
   7229041.85548   5649480.10046  21353822.6024                   21353820.2734
   1600854.68048   1260148.73946  21749737.2584                   21749734.7384
  29632970.66847  23106226.74145  22339894.4384                   22339893.2114
   9881386.83648   7717536.74446  20045096.5474                   20045094.9264
  22304036.41047  17394719.77645  22527058.3364                   22527058.0084
  39198695.93047  30559655.92144  23920030.6414                   23920031.3594
  36440836.60946  28404241.56043  24180153.2194                   24180152.1684
 11  7 25  0  5 30.0000000  0  8G02G17G28G09G04G27G10G20
  28781098.09447  22443096.50645  22626085.4064                   22626082.6764
   7222725.89148   5644558.56746  21352620.2664                   21352618.3914
   1610049.61748   1267313.61745  21751486.8134                   21751484.6724
  29559832.66447  23049236.13345  22325976.8524                   22325976.7664
   9821449.62948   7670832.46546  20033690.9304                   20033689.5514
  22250141.08647  17352723.42745  22516802.7194                   22516802.5554
  39068411.10947  30458135.48344  23895237.9844                   23895239.1134
  36431430.14546  28396911.90044  24178363.3914                   24178362.3634
 11  7 25  0  6  0.0000000  0  8G02G17G28G09G04G27G10G20
  28661158.35247  22349637.04345  22603261.7584                   22603259.4734
   7216521.93848   5639724.31846  21351439.8754                   21351437.6134
   1619623.51647   1274773.79245  21753308.4774                   21753306.1764
  29487325.90647  22992737.39245  22312179.1094                   22312178.1294
   9762096.10548   7624582.99246  20022396.4224                   20022394.8794
  22196745.77747  17311116.72245  22506642.3134                   22506641.3794
  38938130.18846  30356618.07144  23870445.5474                   23870447.3874
  36422535.56346  28389981.05143  24176670.8284                   24176669.6174
 11  7 25  0  6 30.0000000  0  8G02G17G28G09G04G27G10G20
  28541492.49647  22256390.99545  22580489.7974                   22580487.7774
   7210424.71948   5634973.22746  21350279.6484                   21350277.9344
   1629571.62948   1282525.54046  21755201.6644                   21755199.4344
  29415446.62547  22936727.60545  22298500.9844                   22298500.4654
   9703321.55548   7578784.67146  20011211.7894                   20011210.1134
  22143846.03547  17269896.14645  22496575.8594                   22496575.1294
  38807851.65646  30255102.42644  23845655.5394                   23845656.8674
  36414148.06646  28383445.32943  24175074.6954                   24175074.2274
 11  7 25  0  7  0.0000000  0  8G02G17G28G09G04G27G10G20
  28422105.04347  22163361.88445  22557771.4384                   22557769.0434
   7204436.48848   5630307.06346  21349140.1334                   21349138.1844
   1639897.15247   1290571.37146  21757166.8754                   21757164.8014
  29344198.49647  22881209.58645  22284942.6564                   22284942.6914
   9645128.69548   7533439.60946  20000137.9694                   20000136.6374
  22091444.96147  17229064.15445  22486604.6174                   22486603.2704
  38677581.42646  30153593.34444  23820864.9064                   23820865.6524
  36406270.02746  28377306.54943  24173576.0234                   24173574.2344
 11  7 25  0  7 30.0000000  0  8G02G17G28G09G04G27G10G20
  28302999.37147  22070552.34545  22535106.6564                   22535104.0664
   7198558.71148   5625726.95346  21348021.5634                   21348019.2234
   1650602.17248   1298912.91845  21759203.7424                   21759201.8244
  29273584.69147  22826185.86045  22271505.7974                   22271504.6174
   9587519.74248   7488549.53046  19989175.5704                   19989173.6884
  22039544.68047  17188622.38345  22476728.0314                   22476727.5084
  38547324.43846  30052094.56443  23796077.8984                   23796079.6564
  36398903.11346  28371566.13543  24172173.3054                   24172172.7344
 11  7 25  0  8  0.0000000  0  8G02G17G28G09G04G27G10G20
  28184174.23447  21977961.41545  22512494.4614                   22512491.6724
   7192788.46548   5621230.65546  21346923.4694                   21346921.4694
   1661684.43848   1307548.41945  21761312.5474                   21761310.7774
  29203603.66047  22771655.17945  22258189.1724                   22258187.7584
   9530491.95348   7444112.31346  19978323.5234                   19978321.5004
  21988142.96147  17148569.09445  22466946.4844                   22466945.6294
  38417081.26246  29950606.56843  23771292.9774                   23771295.1954
  36392044.54346  28366221.77443  24170868.6094                   24170867.4734
 11  7 25  0  8 30.0000000  0  8G02G17G28G09G04G27G10G20
  28065628.27047  21885587.99745  22489936.0864                   22489933.6214
   7187122.37148   5616815.49946  21345845.3594                   21345843.1724
   1673141.09048   1316475.65345  21763492.7664                   21763490.9534
  29134253.32047  22717615.97645  22244991.3984                   22244990.9614
   9474042.62948   7400125.85646  19967581.5314                   19967579.9924
  21937236.96147  17108902.07545  22457259.5704                   22457258.3444
  38286851.88346  29849129.33443  23746511.3914                   23746511.4654
  36385691.08246  28361271.05643  24169659.4454                   24169658.5634
 11  7 25  0  9  0.0000000  0  8G02G17G28G09G04G27G10G20
  27947366.69547  21793436.20645  22467431.2034                   22467428.9964
   7181563.54348   5612483.92946  21344787.6484                   21344785.1804
   1684976.05948   1325697.67645  21765744.9694                   21765742.5164
  29065538.36747  22664071.87045  22231915.2734                   22231914.1914
   9418175.36748   7356592.93246  19956950.3134                   19956948.7034
  21886830.59847  17069624.38445  22447667.1414                   22447666.2274
  38156642.94946  29747667.98544  23721733.6884                   23721733.9494
  36379845.66046  28356716.20843  24168547.3524                   24168545.8984
 11  7 25  0  9 30.0000000  0  8G02G17G28G09G04G27G10G20
  27829387.08648  21701504.12545  22444980.7504                   22444977.8714
   7176107.98048   5608232.83546  21343749.3054                   21343747.1804
   1697185.60947   1335211.56845  21768068.5944                   21768066.2034
  28997455.96547  22611020.65345  22218960.0084                   22218959.3794
   9362886.22748   7313510.51046  19946429.2664                   19946427.5864
  21836920.18847  17030733.16645  22438169.4144                   22438168.3834
  38026453.41446  29646221.77044  23696959.3524                   23696959.8364
  36374504.25846  28352554.10643  24167531.0784                   24167529.2154
 11  7 25  0 10  0.0000000  0  8G02G17G28G09G04G27G10G20
  27711695.16448  21609796.20545  22422584.6024                   22422581.1454
   7170759.49648   5604065.17646  21342731.3754                   21342729.7114
   1709773.87948   1345020.57745  21770463.5864                   21770461.9884
  28930011.54347  22558466.56145  22206125.4844                   22206124.7584
   9308179.35948   7270881.79346  19936018.9534                   19936016.6844
  21787510.22747  16992231.86045  22428767.4844                   22428766.2304
  37896291.14546  29544796.76144  23672189.5084                   23672191.0904
  36369670.33646  28348787.37643  24166610.7274                   24166609.8754
 11  7 25  0 10 30.0000000  0  8G02G17G28G09G04G27G10G20
  27594288.07048  21518310.23445  22400242.3444                   22400240.2664
   7165513.02747   5599977.01446  21341733.3754                   21341731.4184
   1722737.30148   1355121.90845  21772931.1334                   21772928.8594
  28863201.37547  22506406.70245  22193411.8134                   22193411.2544
   9254050.63748   7228703.58347  19925718.6334                   19925716.6804
  21738596.48847  16954117.26245  22419459.5554                   22419458.6954
  37766155.16847  29443392.26044  23647425.5084                   23647426.9574
  36365339.77046  28345412.86742  24165786.4774                   24165784.6374
 11  7 25  0 11  0.0000000  0  8G02G17G28G09G04G27G10G20
  27477164.52347  21427045.20745  22377954.5394                   22377952.0204
   7160365.73847   5595966.14846  21340753.8984                   21340751.4264
   1736072.87547   1365513.21945  21775468.2114                   21775465.8754
  28797023.43847  22454839.48345  22180819.3054                   22180818.3794
   9200497.03548   7186973.50747  19915527.5474                   19915526.0274
  21690176.18847  16916387.13245  22410245.4144                   22410244.8324
  37636045.47346  29342008.19744  23622666.8444                   23622667.4734
  36361509.06346  28342427.90743  24165057.3914                   24165056.2854
 11  7 25  0 11 30.0000000  0  8G02G17G28G09G04G27G10G20
  27360330.04348  21336005.43845  22355721.4064                   22355718.8444
   7155321.45748   5592035.53946  21339793.7894                   21339792.1484
   1749784.97347   1376197.93845  21778077.8134                   21778075.8244
  28731482.64847  22403768.72645  22168346.8594                   22168345.4884
   9147522.71948   7145694.84246  19905446.6564                   19905445.0664
  21642253.64847  16879044.88545  22401125.8594                   22401125.1804
  37505969.44947  29240650.35744  23597913.6414                   23597914.2934
  36358181.84046  28339835.24543  24164424.0554                   24164423.1804
 11  7 25  0 12  0.0000000  0  8G02G17G28G09G04G27G10G20
  27243785.74248  21245191.78645  22333544.3284                   22333541.2894
   7150379.61748   5588184.76846  21338853.7894                   21338851.3134
   1763873.52047   1387175.99945  21780759.1094                   21780756.7814
  28666579.84847  22353195.14645  22155996.5864                   22155995.4144
   9095127.28548   7104867.23247  19895475.8134                   19895474.5434
  21594828.82847  16842090.45245  22392101.0634                   22392100.7424
  37375929.85247  29139320.96843  23573168.1954                   23573167.8794
  36355357.52346  28337634.52043  24163886.7974                   24163885.9964
 11  7 25  0 12 30.0000000  0  8G02G17G28G09G04G27G10G20
  27127530.97348  21154603.72745  22311421.2114                   22311418.8714
   7145537.52348   5584411.70346  21337932.2034                   21337930.0944
   1778336.57847   1398445.87145  21783510.9844                   21783509.5084
  28602313.49647  22303117.50445  22143766.6564                   22143765.9804
   9043308.14148   7064488.68847  19885615.8134                   19885614.0234
  21547899.49247  16805522.12945  22383170.9144                   22383170.6024
  37245927.40246  29038020.45044  23548429.7194                   23548428.5434
  36353033.13346  28335823.23042  24163443.6724                   24163443.8094
 11  7 25  0 13  0.0000000  0  8G02G17G28G09G04G27G10G20
  27011566.63348  21064241.98745  22289354.2274                   22289351.4414
   7140794.40248   5580715.78646  21337029.8134                   21337027.5084
   1793173.84047   1410007.35045  21786334.3754                   21786332.3014
  28538683.78547  22253535.95545  22131658.3594                   22131657.2734
   8992065.09048   7024559.04647  19875864.4694                   19875862.3554
  21501465.25047  16769339.56945  22374334.8674                   22374334.3714
  37115965.37547  28936751.44844  23523698.9454                   23523699.4064
  36351208.10946  28334401.13742  24163097.2664                   24163096.0204
 11  7 25  0 13 30.0000000  0  8G02G17G28G09G04G27G10G20
  26895896.35948  20974109.38445  22267342.4144                   22267340.0124
   7136151.94147   5577098.28946  21336145.9534                   21336144.0514
   1808387.12147   1421861.82545  21789229.5314                   21789227.5474
  28475693.46947  22204452.61445  22119671.4774                   22119670.8714
   8941399.59848   6985079.45446  19866222.5864                   19866221.2544
  21455528.12147  16733544.39845  22365593.5704                   22365592.5044
  36986048.60546  28835517.77344  23498976.1484                   23498976.4574
  36349883.56646  28333369.05843  24162845.1804                   24162843.8404
 11  7 25  0 14  0.0000000  0  8G02G17G28G09G04G27G10G20
  26780521.90648  20884207.28145  22245387.4924                   22245384.7424
   7131610.54348   5573559.54446  21335281.7344                   21335279.8094
   1823977.05947   1434009.80745  21792196.3204                   21792194.4304
  28413343.92647  22155868.58545  22107807.2114                   22107806.2734
   8891312.16848   6946050.28747  19856691.6724                   19856689.8954
  21410088.56647  16698136.93745  22356946.9614                   22356945.8324
  36856181.00446  28734322.31443  23474262.8754                   23474263.2894
  36349059.67646  28332726.99242  24162687.8524                   24162687.4774
 11  7 25  0 14 30.0000000  0  8G02G17G28G09G04G27G10G20
  26665444.85548  20794536.92745  22223488.8674                   22223486.3134
   7127169.79747   5570099.21846  21334436.4384                   21334434.6374
   1839944.03147   1446451.58545  21795234.7114                   21795232.7034
  28351636.00847  22107784.50145  22096064.2894                   22096063.2854
   8841802.62548   6907471.43146  19847270.3594                   19847268.4144
  21365146.67647  16663117.27245  22348394.8524                   22348393.5394
  36726365.74247  28633167.71244  23449559.6024                   23449559.6414
  36348735.72745  28332474.57442  24162626.9224                   24162625.4924
 11  7 25  0 15  0.0000000  0  8G02G17G28G09G04G27G10G20
  26550667.71948  20705100.26645  22201647.8444                   22201644.7114
   7122830.62148   5566718.04046  21333611.0164                   21333609.0394
   1856289.06647   1459187.96745  21798344.9694                   21798343.0124
  28290571.39547  22060201.71045  22084443.7034                   22084443.4804
   8792871.62548   6869343.39047  19837958.8444                   19837957.4774
  21320703.35247  16628486.08245  22339937.5554                   22339936.0784
  36596607.07846  28532057.15844  23424867.3524                   23424868.0784
  36348912.28545  28332612.09842  24162661.3674                   24162658.5944
 11  7 25  0 15 30.0000000  0  8G02G17G28G09G04G27G10G20
  26436191.11748  20615897.76845  22179863.5474                   22179861.2234
   7118592.14148   5563415.31746  21332804.5474                   21332803.0044
   1873011.74247   1472218.58745  21801527.2424                   21801525.3134
  28230150.00847  22013120.11945  22072946.6334                   22072945.4694
   8744518.54748   6831665.67847  19828757.3284                   19828755.8134
  21276758.28147  16594243.14845  22331574.9774                   22331574.0824
  36466907.61346  28430992.77844  23400186.4144                   23400185.8834
  36349588.24646  28333138.84842  24162789.1564                   24162788.0744
 11  7 25  0 16  0.0000000  0  8G02G17G28G09G04G27G10G20
  26322012.34848  20526927.39145  22158136.2344                   22158132.7384
   7114449.52048   5560187.29546  21332016.2114                   21332014.1094
   1890107.61748   1485540.02945  21804780.5164                   21804778.4574
  28170368.18447  21966536.90045  22061570.3834                   22061569.1564
   8696738.82048   6794434.72347  19819665.5084                   19819663.6604
  21233307.23047  16560385.16345  22323306.0164                   22323305.1374
  36337266.49246  28329973.85144  23375516.2274                   23375517.3134
  36350758.69146  28334050.87142  24163011.7114                   24163011.3954
 11  7 25  0 16 30.0000000  0  8G02G17G28G09G04G27G10G20
  26208133.57048  20438190.73546  22136465.4774                   22136462.8874
   7110403.73448   5557034.71446  21331246.4614                   21331244.4924
   1907577.55947   1499152.94745  21808105.0864                   21808102.8014
  28111227.03947  21920452.90445  22050316.0784                   22050314.8834
   8649532.77048   6757650.81047  19810682.3284                   19810680.9304
  21190350.76647  16526912.59545  22315131.8134                   22315131.1254
  36207687.42646  28229003.27344  23350858.0004                   23350858.1604
  36352423.69146  28335348.18243  24163329.7584                   24163327.3834
 11  7 25  0 17  0.0000000  0  8G02G17G28G09G04G27G10G20
  26094551.02348  20349684.94446  22114851.5554                   22114848.6174
   7106449.34847   5553953.36046  21330493.5864                   21330491.6684
   1925416.62148   1513053.50645  21811499.5004                   21811497.3094
  28052722.14847  21874864.70345  22039182.5704                   22039181.5634
   8602894.90648   6721309.61747  19801807.6884                   19801805.7504
  21147883.50847  16493821.20545  22307050.6254                   22307050.5314
  36078168.39546  28128079.41244  23326211.5944                   23326211.8874
  36354577.43846  28337026.43143  24163739.8364                   24163737.6644
 11  7 25  0 17 30.0000000  0  8G02G17G28G09G04G27G10G20
  25981267.06648  20261411.79646  22093294.2034                   22093291.3484
   7102586.61348   5550943.41046  21329759.0164                   21329757.0124
   1943625.67247   1527242.33445  21814964.9694                   21814962.6764
  27994855.17247  21829773.54645  22028171.1804                   22028169.8954
   8556826.02048   6685411.79047  19793040.9224                   19793039.3634
  21105906.46547  16461111.81245  22299062.6484                   22299061.8874
  35948714.01646  28027205.99944  23301577.4224                   23301576.8244
  36357220.02346  28339085.60242  24164241.0704                   24164240.8284
 11  7 25  0 18  0.0000000  0  7G02G17G28G09G04G27G10
  25868283.13348  20173372.45146  22071794.3674                   22071791.2814
   7098816.00048   5548005.24746  21329041.1484                   21329039.2424
   1962204.96147   1541719.67945  21818500.3594                   21818498.5554
  27937626.72747  21785179.94945  22017280.8594                   22017279.7734
   8511325.86348   6649957.13246  19784382.5634                   19784380.8954
  21064419.75847  16428784.50845  22291168.3524                   22291167.1484
  35819327.87946  27926385.74944  23276955.6954                   23276956.1884
 11  7 25  0 18 30.0000000  0  7G02G17G28G09G04G27G10
  25755604.92248  20085571.32146  22050352.0314                   22050348.6764
   7095141.60548   5545142.06546  21328341.9384                   21328339.9304
   1981158.48847   1556488.62945  21822107.1954                   21822104.9534
  27881041.27347  21741087.38745  22006513.1094                   22006512.2034
   8466398.32848   6614948.66647  19775833.1414                   19775831.5784
  21023427.32847  16396842.34945  22283367.6804                   22283366.6564
  35690017.40246  27825624.43144  23252348.2664                   23252348.5124
 11  7 25  0 19  0.0000000  0  7G02G17G28G09G04G27G10
  25643242.98848  19998016.63145  22028970.1644                   22028967.6954
   7091572.23848   5542360.71246  21327662.4304                   21327660.8794
   2000495.86747   1571556.69045  21825786.6024                   21825784.8134
  27825108.82847  21697503.63945  21995869.3834                   21995869.1884
   8422052.11348   6580393.17547  19767394.4774                   19767392.9884
  20982938.24247  16365292.40545  22275662.8284                   22275661.8984
  35560794.96946  27724931.75244  23227758.5084                   23227759.1884
 11  7 25  0 19 30.0000000  0  7G02G17G28G09G04G27G10
  25531201.07848  19910711.32446  22007649.0944                   22007646.2424
   7088110.72748   5539663.41246  21327004.1954                   21327002.3754
   2020219.48847   1586925.71245  21829539.9534                   21829537.8554
  27769832.44947  21654431.13245  21985350.9224                   21985349.7344
   8378289.66048   6546292.57446  19759066.4774                   19759064.5044
  20942955.14147  16334136.71945  22268054.0394                   22268053.1764
  35431666.63346  27624312.38144  23203185.8674                   23203186.3134
 11  7 25  0 20  0.0000000  0  7G02G17G28G09G04G27G10
  25419469.46548  19823647.81746  21986386.8754                   21986384.1644
   7084745.14548   5537040.86246  21326363.9454                   21326361.5274
   2040317.88347   1602586.77145  21833364.5554                   21833362.7304
  27715200.89147  21611861.09145  21974954.9454                   21974953.6454
   8335099.02748   6512637.53946  19750847.7504                   19750845.9454
  20903466.11747  16303366.02645  22260539.4614                   22260538.7814
  35302624.28147  27523759.99044  23178630.4304                   23178629.7734
 11  7 25  0 20 30.0000000  0  7G02G17G28G09G04G27G10
  25308045.82448  19736824.27245  21965183.7194                   21965181.4734
   7081471.32848   5534489.81146  21325740.5004                   21325738.8324
   2060787.16447   1618536.82745  21837259.8524                   21837258.1954
  27661210.65647  21569790.77445  21964681.0634                   21964680.2424
   8292475.82848   6479424.65646  19742736.5394                   19742735.5634
  20864467.03947  16272977.12745  22253118.1724                   22253117.9454
  35173667.19547  27423274.05244  23154090.1414                   23154089.8914
 11  7 25  0 21  0.0000000  0  7G02G17G28G09G04G27G10
  25196927.46148  19650238.61546  21944039.0004                   21944036.0594
   7078285.69548   5532007.49446  21325134.4454                   21325132.4414
   2081623.34047   1634772.77645  21841225.3594                   21841222.6914
  27607858.32847  21528217.50245  21954528.2584                   21954526.9804
   8250415.77748   6446650.59746  19734733.0164                   19734731.0234
  20825954.15647  16242967.07345  22245789.6484                   22245788.6844
  35044795.22746  27322854.45544  23129566.7034                   23129566.4454
 11  7 25  0 21 30.0000000  0  7G02G17G28G09G04G27G10
  26661542.56347  20791497.21646  22222745.9304                   22222742.8484
   8650611.46948   6757196.40346  21624338.3054                   21624335.9884
   3678249.44547   2878896.96945  22145052.4454                   22145050.4574
  29130569.72347  22714745.84445  22244290.3204                   22244289.8794
   9784343.39848   7641918.87947  20026629.7734                   20026627.9844
  22363352.14847  17440939.52345  22538347.3984                   22538345.5904
  36491439.63346  28450109.94044  23404853.4384                   23404853.5744
 11  7 25  0 22  0.0000000  0  7G02G17G28G09G04G27G10
  26551041.62148  20705392.65746  22201718.0314                   22201714.7504
   8647604.65648   6754853.42446  21623766.3134                   21623764.6254
   3699822.89147   2895707.42045  22149157.7974                   22149155.7894
  29078497.49247  22674170.07645  22234381.6254                   22234380.4344
   9743411.55948   7610023.94746  20018840.6644                   20018838.7814
  22325814.23847  17411689.17645  22531203.6334                   22531202.2974
  36362750.98446  28349833.14244  23380364.8524                   23380364.6684
 11  7 25  0 22 30.0000000  0  7G02G17G28G09G04G27G10
  26440844.16048  20619524.57746  22180747.9614                   22180745.3794
   8644679.94548   6752574.41946  21623209.7344                   21623207.5864
   3721757.41447   2912799.21945  22153331.6024                   22153329.9224
  29027058.38747  22634087.64545  22224593.7504                   22224591.8594
   9703035.54748   7578562.12946  20011157.4614                   20011155.7704
  22288755.96147  17382812.58945  22524151.2034                   22524150.8794
  36234151.50447  28249625.85544  23355893.1024                   23355893.1294
 11  7 25  0 23  0.0000000  0  7G02G17G28G09G04G27G10
  26330952.55948  20533894.80946  22159836.1724                   22159833.3524
   8641838.44547   6750360.25746  21622668.7734                   21622666.7274
   3744053.88747   2930173.05345  22157575.0474                   22157573.5744
  28976253.53547  22594499.42345  22214925.4144                   22214924.5904
   9663216.02048   7547533.94647  20003579.8594                   20003578.2544
  22252177.93846  17354310.20245  22517190.5704                   22517190.3094
  36105645.78946  28149491.62844  23331439.5084                   23331438.9304
 11  7 25  0 23 30.0000000  0  7G02G17G28G09G04G27G10
  26221368.93048  20448505.02946  22138982.9534                   22138980.6454
   8639080.95347   6748211.57146  21622144.4924                   21622142.2584
   3766713.25447   2947829.68645  22161887.0554                   22161885.1054
  28926084.34447  22555406.53945  22205378.2114                   22205376.8834
   9623953.34048   7516939.65747  19996108.3134                   19996106.5084
  22216081.03147  17326182.70445  22510322.2894                   22510321.8594
  35977238.25446  28049433.92144  23307004.3524                   23307004.3714
 11  7 25  0 24  0.0000000  0  7G02G17G28G09G04G27G10
  26112089.99648  20363352.68646  22118188.2344                   22118185.2464
   8636402.23447   6746124.25846  21621634.3364                   21621632.3954
   3789730.54747   2965765.19845  22166267.1334                   22166265.1334
  28876546.10947  22516805.29045  22195951.5704                   22195950.1844
   9585242.18448   7486775.13047  19988741.9694                   19988740.1914
  22180460.01647  17298426.02545  22503543.7114                   22503542.4844
  35848927.23847  27949451.45044  23282587.9454                   23282586.8134
 11  7 25  0 24 30.0000000  0  7G02G17G28G09G04G27G10
  26003118.52048  20278439.89346  22097451.8204                   22097448.7154
   8633803.89547   6744099.55746  21621139.6884                   21621137.6134
   3813107.27347   2983980.80245  22170715.9304                   22170714.3054
  28827640.33647  22478696.89245  22186645.1804                   22186644.1134
   9547083.29348   7457040.94947  19981480.5704                   19981478.7194
  22145316.10947  17271041.12745  22496856.3834                   22496855.2624
  35720717.84046  27849548.08544  23258189.5784                   23258189.7704
 11  7 25  0 25  0.0000000  0  7G02G17G28G09G04G27G10
  25894461.92248  20193772.46646  22076774.9534                   22076771.9454
   8631292.24247   6742142.42746  21620662.1484                   21620659.8984
   3836849.70347   3002481.34145  22175233.6804                   22175231.5274
  28779373.60547  22441086.42445  22177460.5084                   22177459.4924
   9509482.51247   7427741.63146  19974325.4924                   19974323.4384
  22110655.27047  17244032.63345  22490260.4224                   22490259.5474
  35592619.56346  27749731.35344  23233813.5944                   23233813.1414
 11  7 25  0 25 30.0000000  0  7G02G17G28G09G04G27G10
  25786120.00848  20109350.24146  22056158.2114                   22056154.9844
   8628865.77347   6740251.67146  21620200.0634                   21620198.3014
   3860955.62947   3021265.14945  22179820.5474                   22179818.8094
  28731744.41047  22403972.75245  22168396.4384                   22168395.9884
   9472437.62947   7398875.51447  19967276.0784                   19967274.2854
  22076475.58647  17217399.07245  22483756.0554                   22483755.2344
  35464634.34846  27650002.70044  23209458.5164                   23209458.1214
 11  7 25  0 26  0.0000000  0  7G02G17G28G09G04G27G10
  25678091.00448  20025171.85346  22035600.6174                   22035597.9344
   8626521.57847   6738425.01346  21619754.3914                   21619751.7894
   3885422.46547   3040330.19045  22184476.8984                   22184475.0554
  28684750.24247  22367353.88045  22159454.3834                   22159453.4884
   9435944.98447   7370439.69047  19960331.7034                   19960330.0394
  22042773.91447  17191138.00745  22477343.3914                   22477342.2624
  35336762.91447  27550362.72044  23185125.5704                   23185125.9774
 11  7 25  0 26 30.0000000  0  7G02G17G28G09G04G27G10
  25570376.13348  19941238.23246  22015103.2584                   22015099.9964
   8624259.20747   6736662.13446  21619323.3984                   21619321.3134
   3910249.60947   3059675.97445  22189201.4694                   22189199.3244
  28638390.59847  22331229.45345  22150632.4614                   22150631.4344
   9400003.55147   7342433.38847  19953492.2664                   19953490.6054
  22009549.46147  17165248.78645  22471020.2814                   22471019.7734
  35209008.23847  27450813.71544  23160814.0084                   23160814.3134
 11  7 25  0 27  0.0000000  0  7G02G17G28G09G04G27G10
  25462976.73048  19857550.43646  21994666.0474                   21994663.2034
   8622079.37947   6734963.57346  21618908.8054                   21618906.6334
   3935436.75847   3079302.27545  22193993.9304                   22193992.6764
  28592665.60247  22295599.57045  22141931.1094                   22141930.4024
   9364612.80147   7314856.20247  19946757.6094                   19946755.4144
  21976801.78947  17139731.08145  22464789.2194                   22464788.0164
  35081373.95347  27351358.49844  23136526.1174                   23136526.8324
 11  7 25  0 27 30.0000000  0  7G02G17G28G09G04G27G10
  25355895.91048  19774110.90646  21974288.9844                   21974285.9414
   8619983.24647   6733330.20546  21618510.4694                   21618507.9344
   3960985.71947   3099210.51245  22198856.0164                   22198854.2504
  28547576.84847  22260465.45145  22133351.0864                   22133350.1094
   9329773.86347   7287708.98047  19940127.7664                   19940126.0704
  21944532.25447  17114585.98145  22458648.0944                   22458647.5864
  34953865.48447  27252001.36344  23112262.1724                   23112262.1024
 11  7 25  0 28  0.0000000  0  7G02G17G28G09G04G27G10
  25249130.99648  19690917.50646  21953972.2814                   21953968.9454
   8617967.37947   6731759.39946  21618126.0474                   21618124.3324
   3986892.75847   3119397.77445  22203786.3524                   22203783.9104
  28503121.09847  22225824.58245  22124891.7424                   22124890.3984
   9295482.33247   7260988.32647  19933602.1254                   19933600.5824
  21912736.94947  17089810.39245  22452598.1094                   22452596.9144
  34826482.58247  27152742.05844  23088022.0864                   23088021.8794
 11  7 25  0 28 30.0000000  0  7G02G17G28G09G04G27G10
  25142684.84048  19607972.50446  21933715.9694                   21933712.8324
   8616033.23447   6730252.25946  21617758.3284                   21617756.1024
   4013158.99647   3139864.93145  22208784.2974                   22208782.1804
  28459299.49247  22191677.83745  22116552.2974                   22116551.3204
   9261739.03148   7234694.85147  19927181.0084                   19927179.2464
  21881416.59847  17065404.90245  22446637.5944                   22446637.3204
  34699229.89147  27053584.17744  23063806.5944                   23063806.0664
 11  7 25  0 29  0.0000000  0  7G02G17G28G09G04G27G10
  25036559.05148  19525277.13546  21913521.1564                   21913518.2234
   8614181.41847   6728809.27846  21617405.9224                   21617403.7704
   4039784.60547   3160612.11045  22213850.6804                   22213849.6054
  28416112.48847  22158025.61745  22108334.0554                   22108332.9304
   9228543.52348   7208828.22746  19920864.2894                   19920862.6054
  21850571.27047  17041369.58045  22440768.1174                   22440767.3754
  34572111.51247  26954530.98544  23039616.5704                   23039616.0904
 11  7 25  0 29 30.0000000  0  7G02G17G28G09G04G27G10
  24930758.05148  19442834.85646  21893387.8834                   21893384.4964
   8612415.25847   6727433.03646  21617069.9144                   21617067.9384
   4066772.93447   3181641.94145  22218986.7034                   22218984.8014
  28373563.22747  22124870.35645  22100237.3444                   22100236.1644
   9195898.54348   7183390.60047  19914652.1174                   19914650.2934
  21820203.95347  17017706.72645  22434989.5474                   22434988.6484
  34445134.10947  26855587.65844  23015453.4534                   23015453.0744
 11  7 25  0 30  0.0000000  0  7G02G17G28G09G04G27G10
  24825278.91448  19360643.35146  21873315.8914                   21873312.2194
   8610730.46947   6726120.18846  21616749.4304                   21616747.2544
   4094118.72347   3202950.30745  22224190.8364                   22224188.7384
  28331646.82047  22092208.20945  22092260.9774                   22092259.6764
   9163798.35948   7158377.48146  19908543.7194                   19908541.7704
  21790309.20347  16994412.12245  22429300.8364                   22429299.8794
  34318296.78547  26756753.42144  22991317.5004                   22991316.8594
 11  7 25  0 30 30.0000000  0  7G02G17G28G09G04G27G10
  24720126.22748  19278706.25346  21853305.7504                   21853302.9384
   8609130.48447   6724873.44046  21616444.5864                   21616442.6764
   4121825.84047   3224540.21445  22229462.8834                   22229461.1174
  28290367.03947  22060042.15345  22084405.9844                   22084404.2854
   9132245.98447   7133791.23346  19902539.6254                   19902537.6844
  21760890.38347  16971488.37545  22423702.6414                   22423701.8444
  34191606.67247  26658033.92944  22967208.9064                   22967208.2814
 11  7 25  0 31  0.0000000  0  7G02G17G28G09G04G27G10
  24615304.49248  19197027.04146  21833358.6724                   21833355.4534
   8607618.93847   6723695.60046  21616157.0004                   21616154.9414
   4149896.98847   3246413.81645  22234804.9224                   22234803.7974
  28249727.00047  22028374.59145  22076671.9844                   22076671.3134
   9101244.00448   7109633.85947  19896640.0084                   19896637.9384
  21731950.30947  16948937.69245  22418195.2504                   22418194.3794
  34065070.69947  26559434.51344  22943129.5864                   22943129.7384
 11  7 25  0 31 30.0000000  0  7G02G17G28G09G04G27G10
  24510814.61748  19115606.41646  21813475.2584                   21813471.6644
   8606196.01647   6722586.81846  21615886.0704                   21615884.2734
   4178332.06347   3268570.98345  22240216.3524                   22240214.1724
  28209726.44147  21997205.32345  22069060.3834                   22069059.7344
   9070791.57448   7085904.71047  19890844.9844                   19890843.5004
  21703488.35546  16926759.56245  22412779.3204                   22412778.5434
  33938692.34847  26460957.95944  22919080.8204                   22919079.8714
 11  7 25  0 32  0.0000000  0  7G02G17G28G09G04G27G10
  24406654.12148  19034442.45246  21793653.9774                   21793650.5664
   8604857.65647   6721543.91246  21615631.7584                   21615629.5164
   4207126.74647   3291008.37945  22245695.5634                   22245693.6454
  28170360.97747  21966530.92645  22061569.0554                   22061568.3134
   9040883.78548   7062599.95246  19885153.8364                   19885151.9924
  21675499.64547  16904950.18745  22407453.0004                   22407452.7274
  33812471.00447  26362603.75244  22895061.1094                   22895061.2424
 11  7 25  0 32 30.0000000  0  7G02G17G28G09G04G27G10
  24302825.34048  18953536.96946  21773895.9224                   21773892.4844
   8603604.98847   6720567.79346  21615393.1954                   21615391.6334
   4236281.39147   3313726.25545  22251243.3524                   22251242.1374
  28131631.43847  21936352.07945  22054199.2894                   22054198.1254
   9011520.54348   7039719.51547  19879566.4694                   19879564.2774
  21647984.68047  16883509.97345  22402216.9454                   22402216.3794
  33686411.00847  26264375.27344  22871072.5394                   22871072.6414
 11  7 25  0 33  0.0000000  0  8G02G17G28G09G04G27G10G12
  24199323.87148  18872886.52246  21754200.4304                   21754197.0044
   8602432.98047   6719654.54146  21615170.2274                   21615168.0474
   4265790.54347   3336720.36145  22256858.8444                   22256857.0124
  28093532.53947  21906664.60845  22046949.3674                   22046948.0864
   8982695.71548   7017258.62847  19874081.0554                   19874079.2114
  21620937.68447  16862434.40445  22397070.3054                   22397069.0984
  33560510.78147  26166271.27044  22847115.0554                   22847114.4414
  43887459.06347  34213236.78344  24332671.2894                   24332671.0004
 11  7 25  0 33 30.0000000  0  8G02G17G28G09G04G27G10G12
  24096142.25848  18792485.33146  21734565.5634                   21734562.1764
   8601333.12947   6718797.48546  21614961.1094                   21614958.7304
   4295645.61347   3359984.02845  22262540.1334                   22262538.3134
  28056055.11747  21877461.43945  22039817.7734                   22039816.5164
   8954399.99248   6995210.02446  19868696.3204                   19868694.7854
  21594349.44547  16841716.28345  22392010.7034                   22392009.8984
  33434765.31347  26068287.87144  22823186.2974                   22823186.3834
  43754448.52046  34109592.26344  24307358.4924                   24307358.9494
 11  7 25  0 34  0.0000000  0  8G02G17G28G09G04G27G10G12
  23993278.51248  18712331.82146  21714991.1484                   21714987.6294
   8600302.04347   6717994.03946  21614764.8364                   21614762.8284
   4325842.73847   3383514.24145  22268285.8054                   22268284.4184
  28019195.43847  21848739.59945  22032803.4774                   22032802.8094
   8926628.98848   6973570.28147  19863411.9844                   19863410.2974
  21568215.96547  16821352.53445  22387037.5704                   22387036.8594
  33309174.79347  25970425.19144  22799287.4694                   22799286.3674
  43621426.00046  34005938.42244  24282046.2034                   24282044.9924
 11  7 25  0 34 30.0000000  0  8G02G17G28G09G04G27G10G12
  23890738.64548  18632430.65346  21695478.4064                   21695474.7584
   8599345.25447   6717248.46446  21614582.6024                   21614580.9574
   4356386.64147   3407314.62945  22274098.6644                   22274097.1254
  27982958.19147  21820502.79245  22025907.4614                   22025906.7114
   8899386.75448   6952342.58047  19858227.8284                   19858225.8794
  21542541.37547  16801346.36645  22382152.4844                   22382151.2774
  33183747.82047  25872689.97144  22775419.2424                   22775418.7194
  43488397.94947  33902280.24644  24256731.7664                   24256730.1294
 11  7 25  0 35  0.0000000  0  8G02G17G28G09G04G27G10G12
  23788527.40248  18552785.61346  21676027.9064                   21676024.9454
   8598466.86348   6716563.98746  21614415.6254                   21614413.6684
   4387280.54747   3431387.78345  22279977.4614                   22279975.7584
  27947346.51647  21792753.43645  22019131.0004                   22019129.6644
   8872676.02048   6931529.01647  19853144.8914                   19853143.1454
  21517328.90247  16781700.29045  22377354.0394                   22377353.7974
  33058491.72347  25775087.89144  22751584.0634                   22751583.2424
  43355370.28146  33798622.40243  24231417.3364                   24231416.6604
 11  7 25  0 35 30.0000000  0  8G02G17G28G09G04G27G10G12
  23686652.06648  18473402.29146  21656641.6334                   21656638.6094
   8597672.69548   6715945.14046  21614264.7664                   21614262.6134
   4418530.02047   3455738.00745  22285924.5004                   22285922.4574
  27912366.04347  21765495.91345  22012474.5554                   22012473.6134
   8846501.77348   6911133.51347  19848164.1724                   19848162.3054
  21492583.64847  16762418.25045  22372644.6884                   22372644.7624
  32933416.04347  25677626.37445  22727782.9224                   22727782.0554
  43222351.19546  33694971.18944  24206104.6414                   24206104.1214
 11  7 25  0 36  0.0000000  0  8G02G17G28G09G04G27G10G12
  23585116.58648  18394283.77946  21637320.5474                   21637316.7894
   8596965.70748   6715394.22446  21614130.0784                   21614128.0204
   4450137.54747   3480367.20445  22291938.4844                   22291937.0434
  27878019.28147  21738732.19245  22005938.1644                   22005937.3714
   8820865.94548   6891157.54947  19843286.0234                   19843284.1724
  21468308.03547  16743502.17845  22368025.7664                   22368024.9104
  32808526.98847  25580310.29745  22704016.7814                   22704016.5314
  43089345.75446  33591330.67743  24180795.0474                   24180793.7704
 11  7 25  0 36 30.0000000  0  8G02G17G28G09G04G27G10G12
  23483921.13748  18315430.24546  21618063.2034                   21618060.2114
   8596345.60948   6714911.01146  21614012.1094                   21614010.2854
   4482102.06647   3505274.57045  22298021.5314                   22298020.1914
  27844304.82847  21712461.17645  21999522.8984                   21999521.7154
   8795766.83648   6871599.79247  19838509.8594                   19838507.6374
  21444500.29347  16724950.68145  22363495.3984                   22363494.2154
  32683827.57847  25483141.98644  22680287.2734                   22680286.8674
  42956355.32046  33487701.81544  24155487.0784                   24155487.1564
 11  7 25  0 37  0.0000000  0  8G02G17G28G09G04G27G10G12
  23383064.68848  18236840.86546  21598870.8134                   21598867.6564
   8595810.22348   6714493.81846  21613909.7894                   21613907.9494
   4514421.05947   3530458.17545  22304171.8984                   22304169.8054
  27811220.25047  21686680.98345  21993226.8054                   21993226.1294
   8771200.96947   6852457.56447  19833834.8204                   19833832.7074
  21421157.61747  16706761.57745  22359053.4454                   22359052.1914
  32559318.99647  25386122.37644  22656593.8524                   22656593.8674
  42823379.44946  33384084.29144  24130182.9694                   24130181.7774
 11  7 25  0 37 30.0000000  0  8G02G17G28G09G04G27G10G12
  23282549.00048  18158517.02046  21579742.9224                   21579739.9064
   8595360.64547   6714143.49646  21613824.3754                   21613822.3284
   4547094.59447   3555918.03745  22310389.2114                   22310387.8914
  27778765.15247  21661391.29045  21987050.9694                   21987050.2274
   8747168.09447   6833730.65047  19829261.6564                   19829259.6844
  21398279.45347  16688934.42145  22354700.0784                   22354699.3204
  32435005.61347  25289254.88645  22632937.4694                   22632937.4494
  42690421.05146  33280480.46544  24104881.2974                   24104880.2544
 11  7 25  0 38  0.0000000  0  8G02G17G28G09G04G27G10G12
  23182378.30948  18080461.99146  21560681.7034                   21560678.2544
   8595000.13748   6713862.56446  21613755.6804                   21613753.8134
   4580125.27047   3581656.18245  22316675.1254                   22316672.6334
  27746942.38747  21636594.31945  21980995.4774                   21980994.7304
   8723670.14548   6815420.55546  19824790.1094                   19824788.2734
  21375868.26647  16671471.14745  22350435.3914                   22350433.9494
  32310893.79347  25192544.41445  22609320.4064                   22609320.1604
  42557485.29347  33176894.17943  24079584.5704                   24079582.7344
 11  7 25  0 38 30.0000000  0  8G02G17G28G09G04G27G10G12
  23082553.77048  18002676.68946  21541685.5554                   21541682.1024
   8594729.34847   6713651.54046  21613705.0004                   21613702.7384
   4613513.05547   3607672.57545  22323028.6804                   22323027.0474
  27715751.50847  21612289.75645  21975060.0864                   21975059.2194
   8700706.15648   6797526.54346  19820419.9144                   19820418.3324
  21353923.49247  16654371.28145  22346259.6644                   22346258.2274
  32186987.45347  25095994.06845  22585741.0784                   22585741.3674
  42424574.53947  33073327.42644  24054292.5164                   24054291.5984
 11  7 25  0 39  0.0000000  0  8G02G17G28G09G04G27G10G12
  22983073.28548  17925159.48846  21522754.9924                   21522751.3634
   8594545.32448   6713508.13746  21613669.3594                   21613667.2504
   4647254.12547   3633964.26545  22329449.2814                   22329448.0944
  27685188.86347  21588474.72845  21969243.9304                   21969243.0314
   8678271.98048   6780045.36746  19816151.1954                   19816149.4734
  21332441.19947  16637631.79645  22342171.1804                   22342170.5784
  32063287.22747  24999604.31945  22562202.5084                   22562201.5124
  42291687.77746  32969779.42043  24029004.3364                   24029004.2774
 11  7 25  0 39 30.0000000  0  8G02G17G28G09G04G27G10G12
  22883941.51248  17847913.99446  21503890.3914                   21503887.5394
   8594451.74648   6713435.20846  21613652.0164                   21613650.1604
   4681351.90647   3660533.92245  22335937.9534                   22335936.2274
  27655257.50047  21565151.57945  21963548.2344                   21963547.4884
   8656370.28148   6762979.11046  19811983.2664                   19811981.4574
  21311424.17247  16621254.88945  22338171.8134                   22338171.3014
  31939800.44947  24903380.92345  22538703.3834                   22538702.4064
  42158830.86747  32866254.63644  24003722.9614                   24003722.7154
 11  7 25  0 40  0.0000000  0  8G02G17G28G09G04G27G10G12
  22785154.60248  17770937.24046  21485092.0314                   21485088.7934
   8594443.93847   6713429.12046  21613650.3204                   21613647.9734
   4715800.41447   3687376.87345  22342493.1174                   22342491.5354
  27625951.52047  21542315.77745  21957971.5864                   21957970.3524
   8634994.81348   6746322.89546  19807915.7194                   19807913.6644
  21290866.51247  16605235.89745  22334259.8914                   22334259.5514
  31816525.36347  24807322.45245  22515245.1484                   22515244.3794
  42026000.91847  32762750.83544  23978446.1954                   23978445.0984
 11  7 25  0 40 30.0000000  0  8G02G17G28G09G04G27G10G12
  22686714.77348  17694230.92146  21466359.3834                   21466356.0984
   8594523.64848   6713491.23746  21613664.8834                   21613663.4494
   4750601.10947   3714494.25045  22349115.8444                   22349114.1884
  27597271.48047  21519967.71245  21952514.0784                   21952512.7774
   8614145.78548   6730076.91346  19803948.3284                   19803946.5824
  21270768.62147  16589575.18945  22330435.2274                   22330434.8014
  31693467.23847  24711433.08045  22491827.5084                   22491827.3634
  41893201.26247  32659270.71844  23953175.6724                   23953173.6254
 11  7 25  0 41  0.0000000  0  8G02G17G28G09G04G27G10G12
  22588623.46148  17617796.17446  21447693.6024                   21447689.8484
   8594691.48448   6713622.00946  21613697.4064                   21613695.1954
   4785753.51247   3741885.68445  22355805.2194                   22355803.9344
  27569216.96547  21498107.07145  21947175.0704                   21947174.4694
   8593822.41848   6714240.51347  19800080.9774                   19800078.8754
  21251129.98847  16574272.33145  22326698.2274                   22326697.5944
  31570630.04347  24615715.84045  22468451.9614                   22468451.2544
  41760434.85247  32555816.38844  23927911.2344                   23927908.7624
 11  7 25  0 41 30.0000000  0  8G02G17G28G09G04G27G10G12
  22490884.63348  17541636.08346  21429094.1954                   21429090.9144
   8594950.61348   6713823.92246  21613746.8834                   21613744.7734
   4821259.78947   3769552.87645  22362562.2344                   22362560.3714
  27541790.48047  21476735.80145  21941956.0084                   21941955.0354
   8574026.33648   6698815.00346  19796313.7734                   19796312.0044
  21231952.63347  16559328.91145  22323049.2814                   22323048.0434
  31448019.95747  24520175.57145  22445120.5704                   22445119.8204
  41627706.41847  32452391.71144  23902653.0394                   23902651.3444
 11  7 25  0 42  0.0000000  0  8G02G17G28G09G04G27G10G12
  22393498.41448  17465750.75546  21410562.3054                   21410558.5824
   8595300.59448   6714096.62446  21613813.1174                   21613811.0124
   4857118.70347   3797494.85345  22369385.1094                   22369384.2734
  27514990.18047  21455852.45645  21936856.4774                   21936855.4694
   8554755.14148   6683798.48947  19792646.5704                   19792644.7734
  21213234.64847  16544743.44645  22319486.5554                   22319486.0594
  31325639.71547  24424814.41245  22421832.1954                   22421831.6884
  41495017.17247  32348997.61444  23877402.6334                   23877402.4064
 11  7 25  0 42 30.0000000  0  8G02G17G28G09G04G27G10G12
  22296465.68848  17390140.87746  21392097.4224                   21392094.5434
   8595742.02048   6714440.59146  21613897.4384                   21613895.3874
   4893329.94147   3825711.33744  22376276.3204                   22376274.5664
  27488815.27047  21435456.43745  21931875.3284                   21931874.5044
   8536008.26248   6669190.54247  19789078.9614                   19789077.2664
  21194975.21947  16530515.28345  22316012.5474                   22316011.9304
  31203493.34447  24329635.47045  22398589.0634                   22398588.4104
  41362369.68447  32245635.98644  23852160.4694                   23852160.3834
 11  7 25  0 43  0.0000000  0  8G02G17G28G09G04G27G10G12
  23775213.02048  18542411.55246  21673494.0394                   21673490.5634
  10171697.21148   7942457.61346  21913791.7034                   21913789.1644
   6505313.93047   5081802.73545  22683026.3284                   22683024.8554
  29038687.78147  22643149.30745  22226805.7424                   22226805.2854
  10093206.74248   7882591.94347  20085404.0084                   20085402.5984
  22752596.00847  17744245.72345  22612418.0004                   22612416.8204
  32657010.20747  25462246.07345  22675183.3444                   22675182.8404
  42805192.57447  33369913.64344  24126721.0004                   24126720.0434
 11  7 25  0 43 30.0000000  0  8G02G17G28G09G04G27G10G12
  23678890.05548  18467354.72446  21655164.2424                   21655160.8134
  10172321.71948   7942944.23746  21913910.5394                   21913908.2934
   6542227.42647   5110566.43245  22690050.7814                   22690049.1174
  29013760.57047                  22623725.49945  22222062.3984   22222061.7504
  10075503.74247   7868797.41747  20082035.5554                   20082033.2584
  22735250.20747  17730729.46245  22609117.7664                   22609116.9024
  32535341.08247  25367439.03245  22652030.4454                   22652029.4884
  42672634.57847  33266621.80744  24101495.8914                   24101494.1604
 11  7 25  0 44  0.0000000  0  8G02G17G28G09G04G27G10G12
  23582922.41048  18392574.76846  21636901.8984                   21636898.6484
  10173037.50048   7943501.97546  21914046.5554                   21914044.3954
   6579490.62947   5139602.67545  22697141.5864                   22697140.6954
  28989455.22747                  22604786.28045  22217437.6484   22217436.8794
  10058320.11348   7855407.57347  20078765.6484                   20078763.8164
  22718359.02747  17717567.45945  22605902.4304                   22605902.2344
  32413915.62947  25272821.87545  22628924.4454                   22628923.5084
  42540124.13347  33163367.00944  24076280.6024                   24076278.3444
 11  7 25  0 44 30.0000000  0  8G02G17G28G09G04G27G10G12
  23487302.83648  18318066.04446  21618706.0394                   21618702.6484
  10173836.57447   7944124.60846  21914198.5234                   21914197.0274
   6617094.34047   5168904.16845  22704297.9844                   22704296.3204
  28965762.37947                  22586324.30945  22212929.2814   22212928.5044
  10041646.16448   7842414.88947  20075592.7974                   20075590.6564
  22701912.96146  17704752.28745  22602773.9144                   22602773.1524
  32292728.89147  25178390.72345  22605863.0864                   22605862.4844
  42407655.30946  33060144.60844  24051071.8834                   24051070.8634
 11  7 25  0 45  0.0000000  0  8G02G17G28G09G04G27G10G12
  23392036.47748  18243832.52646  21600577.5634                   21600574.1724
  10174723.29748   7944815.54646  21914367.5944                   21914365.3674
   6655042.23447   5198473.90745  22711518.7974                   22711517.2194
  28942685.13347                  22568342.04345  22208537.2504   22208536.2384
  10025484.82447   7829821.64747  20072517.0704                   20072515.3754
  22685915.26646  17692286.50745  22599728.9224                   22599728.2154
  32171788.55947  25084151.57245  22582848.6334                   22582848.3874
  42275233.96546  32956959.21444  24025873.4614                   24025872.6804
 11  7 25  0 45 30.0000000  0  8G02G17G28G09G04G27G10G12
  23297129.07448  18169878.73446  21582517.3204                   21582514.0354
  10175703.36348   7945579.21246  21914553.9384                   21914551.7974
   6693338.50447   5228315.08945  22718806.1954                   22718806.0864
  28920227.28547                  22550842.41545  22204264.4224   22204263.2934
  10009839.68448   7817630.62647  20069539.9534                   20069538.4064
  22670369.73446  17680173.02245  22596771.4224                   22596770.6054
  32051103.55947  24990111.36545  22559882.7734                   22559882.4884
  42142867.72347  32853816.79244  24000685.2424                   24000683.9104
 11  7 25  0 46  0.0000000  0  8G02G17G28G09G04G27G10G12
  23202578.45748  18096202.96446  21564524.9774                   21564521.3484
  10176773.90247   7946413.40546  21914757.6564                   21914755.3444
   6731979.53547   5258424.90245  22726160.3054                   22726158.6294
  28898384.89147                  22533822.35745  22200106.9304   22200106.2424
   9994706.23048   7805838.33146  20066660.2344                   20066658.3484
  22655272.14846  17668408.62145  22593897.7504                   22593897.4144
  31930673.89147  24896270.14845  22536965.7344                   22536965.5044
  42010555.32847  32750716.27244  23975506.4384                   23975504.9654
 11  7 25  0 46 30.0000000  0  8G02G17G28G09G04G27G10G12
  23108383.31648  18022804.18346  21546599.9774                   21546596.9144
  10177932.84447   7947316.46146  21914978.2034                   21914976.1454
   6770962.20347   5288800.92945  22733578.2894                   22733576.5004
  28877154.84047                  22517279.44345  22196067.7584   22196066.7194
   9980080.88748   7794441.96846  20063877.1954                   20063875.3484
  22640619.02046  17656990.54145  22591109.4454                   22591108.9384
  31810501.28947  24802629.21445  22514098.0314                   22514097.1024
  41878297.08247  32647657.95744  23950338.9774                   23950336.3204
 11  7 25  0 47  0.0000000  0  8G02G17G28G09G04G27G10G12
  23014544.36748  17949682.94946  21528742.9694                   21528739.4804
  10179180.57047   7948288.72146  21915215.8284                   21915213.2504
   6810285.94547   5319442.74244  22741061.3134                   22741060.2664
  28856535.91047                  22501212.73645  22192143.7584   22192142.9454
   9965962.16848   7783440.37646  20061190.4454                   20061188.4774
  22626409.35246  17645917.99245  22588405.7194                   22588405.1604
  31690589.06347  24709191.18045  22491279.2344                   22491278.5234
  41746095.32046  32544643.62644  23925180.8444                   23925178.9694
 11  7 25  0 47 30.0000000  0  8G02G17G28G09G04G27G10G12
  22921064.22348  17876841.31446  21510954.1644                   21510951.2664
  10180519.33648   7949331.91946  21915470.5554                   21915468.4844
   6849951.59447   5350350.99044  22748609.5004                   22748607.8484
  28836528.39147                  22485622.45345  22188336.5944   22188335.7664
   9952350.60248   7772833.95547  20058600.4774                   20058598.1564
  22612643.73847  17635191.48645  22585786.6564                   22585785.5474
  31570942.34847  24615960.04145  22468511.3524                   22468510.4614
  41613954.07046  32441676.53244  23900035.5004                   23900033.6294
 11  7 25  0 48  0.0000000  0  8G02G17G28G09G04G27G10G12
  22827943.14148  17804279.47546  21493234.1174                   21493230.9144
  10181949.07847   7950445.99146  21915742.6094                   21915740.4264
   6889957.95347   5381524.71344  22756222.4614                   22756221.0784
  28817130.98847                  22470507.59345  22184645.4534   22184644.3674
   9939244.14848   7762621.13746  20056106.3054                   20056104.4304
  22599320.59047  17624809.74745  22583250.8054                   22583250.4344
  31451564.55547  24522938.47945  22445794.9694                   22445793.4774
  41481875.16046  32338757.94744  23874901.1804                   23874900.3164
 11  7 25  0 48 30.0000000  0  8G02G17G28G09G04G27G10G12
  22735184.53548  17732000.06246  21475582.8914                   21475579.0744
  10183472.79747   7951633.27846  21916032.6804                   21916030.2194
   6930307.12947   5412965.55144  22763900.3204                   22763899.0554
  28798345.02747                  22455869.15645  22181070.8134   22181069.6764
   9926644.05148   7752802.88947  20053708.2584                   20053706.2774
  22586441.27347  17614773.84745  22580800.3834                   22580799.4384
  31332461.82847  24430131.20045  22423129.8834                   22423129.3594
  41349863.51246  32235891.76344  23849780.8914                   23849778.7934
 11  7 25  0 49  0.0000000  0  8G02G17G28G09G04G27G10G12
  22642782.83248  17659998.76946  21457998.9064                   21457995.8364
  10185084.28547   7952888.97746  21916339.2344                   21916337.5434
   6970991.74647   5444667.79544  22771643.0634                   22771641.5044
  28780163.02047                  22441701.33245  22177610.8834   22177609.8714
   9914542.32048   7743372.98146  20051405.2504                   20051403.9304
  22573998.07047  17605077.78945  22578432.8054                   22578431.5904
  31213631.16847  24337535.94945  22400517.2344                   22400516.2584
  41217915.03146  32133074.79044  23824672.4774                   23824669.7814
 11  7 25  0 49 30.0000000  0  8G02G17G28G09G04G27G10G12
  22550741.68448  17588278.42446  21440484.2734                   21440480.6484
  10186787.09447   7954215.84446  21916663.2504                   21916661.3204
   7012014.09447   5476633.20344  22779449.0394                   22779447.8634
  28762586.39147                  22428005.24545  22174265.6884   22174264.8594
   9902940.39148   7734332.51947  20049197.8134                   20049195.7034
  22561992.40647  17595722.66945  22576147.7344                   22576147.0514
  31095079.19547  24245157.85245  22377957.4924                   22377956.6254
  41086034.56646  32030310.82844  23799576.4224                   23799573.7344
 11  7 25  0 50  0.0000000  0  8G02G17G28G09G04G27G10G12
  22459062.94148  17516840.47946  21423038.4384                   21423035.3324
  10188582.23048   7955614.64846  21917004.5474                   21917003.0314
   7053374.14147   5508861.75644  22787318.8444                   22787318.0044
  28745615.09047                  22414780.83545  22171036.5864   22171035.2234
   9891837.79348   7725681.14847  20047085.1884                   20047082.8754
  22550424.28947  17586708.48945  22573947.2664                   22573945.9924
  30976810.35547  24153000.37345  22355451.3134                   22355450.4414
  40954225.82846  31927602.72244  23774493.3674                   23774491.3674
 11  7 25  0 50 30.0000000  0  8G02G17G28G09G04G27G10G12
  22367742.65648  17445681.84746  21405660.5554                   21405657.1914
  10190465.62548   7957082.22246  21917363.4144                   21917361.1954
   7095066.61347   5541349.33444  22795253.6414                   22795251.6174
  28729242.71547                  22402023.12045  22167920.9844   22167919.8324
   9881228.38748   7717414.08546  20045065.9844                   20045064.3834
  22539287.61347  17578030.53345  22571827.6094                   22571827.0514
  30858823.21147  24061062.39245  22332999.2344                   22332998.3594
  40822486.10946  31824948.48544  23749424.4224                   23749422.8444
 11  7 25  0 51  0.0000000  0  8G02G17G28G09G04G27G10G12
  22276784.68848  17374805.52746  21388351.8674                   21388348.1764
  10192440.95748   7958621.43046  21917739.2344                   21917737.2584
   7137094.01247   5574097.89144  22803251.5084                   22803248.9454
  28713471.55947                  22389733.87345  22164919.6564   22164918.7854
   9871113.81648   7709532.61047  20043141.3204                   20043139.5434
  22528584.32447  17569690.26545  22569790.8834                   22569790.3134
  30741124.77747  23969349.38845  22310601.7504                   22310601.1724
  40690821.33246  31722352.58344  23724368.9224                   23724367.3794
 11  7 25  0 51 30.0000000  0  8G02G17G28G09G04G27G10G12
  22186188.10948  17304210.85146  21371112.1094                   21371108.3914
  10194507.22747   7960231.49746  21918132.2974                   21918130.5474
   7179453.60247   5607105.30644  22811311.6414                   22811310.6804
  28698298.62147                  22377910.77645  22162032.5164   22162031.7584
   9861490.87548   7702034.22146  20041310.1644                   20041308.1564
  22518311.59047  17561685.49745  22567836.1024                   22567835.6684
  30623716.87547  23877862.75445  22288259.8444                   22288259.1414
  40559232.14546  31619815.56344  23699328.5634                   23699326.6994
 11  7 25  0 52  0.0000000  0  8G02G17G28G09G04G27G10G12
  22095955.27048  17233899.58046  21353941.2114                   21353937.5474
  10196666.18847   7961913.79546  21918543.3364                   21918541.0704
   7222146.28547   5640372.27544  22819436.2664                   22819434.8554
  28683723.83247                  22366553.73545  22159258.9144   22159258.0044
   9852359.74648   7694919.05047  20039572.5004                   20039570.2934
  22508469.34847  17554016.19745  22565962.8754                   22565962.0474
  30506604.99247  23786606.78545  22265974.3674                   22265973.0864
  40427722.60247  31517340.59144  23674302.8134                   23674300.9844
 11  7 25  0 52 30.0000000  0  8G02G17G28G09G04G27G10G12
  22006087.62548  17163872.87846  21336840.0864                   21336836.1454
  10198918.82847   7963669.08946  21918971.9694                   21918969.6054
   7265171.60247   5673898.48244  22827623.6094                   22827622.2734
  28669746.46147                  22355662.24645  22156599.0784   22156598.3874
   9843719.33248   7688186.26947  20037928.1954                   20037926.1414
  22499057.18847  17546682.03145  22564171.6564                   22564171.0474
  30389792.97747  23695584.48745  22243745.7034                   22243744.8164
  40296295.54346  31414929.95344  23649292.8594                   23649291.9614
 11  7 25  0 53  0.0000000  0  8G02G17G28G09G04G27G10G12
  21916583.35548  17094129.34646  21319807.8754                   21319804.1644
  10201263.64547   7965496.21246  21919418.1644                   21919416.2624
   7308526.99247   5707681.82344  22835873.8674                   22835873.1454
  28656362.98847                  22345233.51445  22154052.5164   22154051.3914
   9835566.07048   7681833.08347  20036376.6724                   20036374.9454
  22490071.36747  17539680.07345  22562462.2114                   22562461.5904
  30273282.09447  23604796.84445  22221574.4304                   22221573.5984
  40164950.89846  31312583.48544  23624299.0474                   23624297.7854
 11  7 25  0 53 30.0000000  0  8G02G17G28G09G04G27G10G12
  21827440.61348  17024667.48846  21302844.5314                   21302840.8714
  10203698.16047   7967393.21246  21919881.4224                   21919879.5044
   7352208.41847   5741719.26244  22844186.3984                   22844184.7624
  28643569.46147                  22335264.48445  22151618.1564   22151617.3834
   9827895.55948   7675856.05246  20034917.0004                   20034915.1954
  22481507.89147  17533007.21245  22560832.3834                   22560832.0314
  30157073.37547  23514244.62445  22199460.6644                   22199459.3754
  40033688.93047  31210301.42345  23599321.1644                   23599319.9804
 11  7 25  0 54  0.0000000  0  8G02G17G28G09G04G27G10G12
  21738662.21148  16955489.55346  21285950.7344                   21285946.6804
  10206225.04747   7969362.19546  21920362.3204                   21920360.8364
   7396216.98447   5776011.61244  22852560.8754                   22852559.2424
  28631366.13747                  22325755.35545  22149295.7504   22149294.7384
   9820708.10248   7670255.43046  20033549.1954                   20033547.3834
  22473367.19147  17526663.82345  22559283.2504                   22559282.8484
  30041172.22347  23423932.10445  22177405.1884                   22177404.2424
  39902513.59047  31108086.86445  23574358.7274                   23574357.2974
 11  7 25  0 54 30.0000000  0  8G02G17G28G09G04G27G10G12
  21650246.53947  16886594.28946  21269125.5474                   21269121.7274
  10208842.33647   7971401.62446  21920860.3054                   21920858.2584
   7440549.88347   5810556.69244  22860997.3984                   22860996.2344
  28619749.26247                  22316703.20045  22147085.1804   22147084.5474
   9813999.98048   7665028.32747  20032272.9924                   20032271.5664
  22465645.77347  17520647.13945  22557813.7664                   22557813.2544
  29925580.05147  23333860.33045  22155408.7424                   22155407.1454
  39771425.44547  31005940.25445  23549413.7974                   23549412.1954
 11  7 25  0 55  0.0000000  0  8G02G17G28G09G04G27G10G12
  21562199.21948  16817986.02846  21252370.7114                   21252366.9734
  10211555.50847   7973515.78046  21921376.5004                   21921374.7544
   7485211.24247   5845357.72644  22869496.4454                   22869494.9734
  28608722.41447                  22308110.79345  22144987.1644   22144986.3634
   9807774.67648   7660177.42646  20031088.3364                   20031086.4104
  22458347.22347  17514959.95845  22556424.9384                   22556424.6724
  29810305.50847  23244036.06545  22133472.5634                   22133471.9024
  39640431.99647  30903867.43545  23524486.9064                   23524484.4184
 11  7 25  0 55 30.0000000  0  8G02G17G28G09G04G27G10G12
  21474520.53148  16749665.02246  21235685.5704                   21235682.2274
  10214365.16848   7975705.10146  21921910.9064                   21921909.0664
   7530199.70747   5880413.64144  22878057.0554                   22878055.8634
  28598283.78147                  22299976.73045  22143000.2274   22142999.6454
   9802030.07048   7655701.11246  20029995.1254                   20029993.2464
  22451469.81647  17509600.92745  22555116.4694                   22555115.8014
  29695351.53547  23154461.59045  22111597.3444                   22111596.2584
  39509534.94547  30801869.71644  23499577.8674                   23499576.0554
 11  7 25  0 56  0.0000000  0  8G02G17G28G09G04G27G10G12
  21387207.17648  16681628.68846  21219070.4694                   21219066.8754
  10217267.27348   7977966.46846  21922463.8204                   21922462.3054
   7575510.09447   5915720.36444  22886679.7114                   22886677.9804
  28588427.82447                  22292296.69645  22141125.2894   22141124.2344
   9796760.59448   7651595.01847  20028992.3984                   20028990.3364
  22445007.75847  17504565.54845  22553887.3364                   22553886.5664
  29580717.59847  23065136.48845  22089783.8914                   22089782.2664
  39378732.77047  30699945.93244  23474686.4224                   23474685.3634
 11  7 25  0 56 30.0000000  0  8G02G17G28G09G04G27G10G12
  21300260.51648  16613878.08746  21202525.3204                   21202521.7774
  10220263.38348   7980301.06546  21923033.3674                   21923030.6954
   7621142.61747   5951278.15644  22895363.0784                   22895361.4844
  28579153.82447                  22285070.17245  22139360.1804   22139359.1764
   9791965.60947   7647858.65646  20028079.8444                   20028077.9654
  22438960.60947  17499853.48345  22552735.9844                   22552735.4734
  29466408.35547  22976064.38745  22068030.6644                   22068030.2974
  39248029.14147  30598098.95444  23449814.6884                   23449812.9224
 11  7 25  0 57  0.0000000  0  8G02G17G28G09G04G27G10G12
  21213680.40248  16546413.11746  21186049.6884                   21186045.8324
  10223353.36347   7982708.82646  21923621.5394                   21923620.0004
   7667095.40647   5987085.49244  22904107.4694                   22904106.3134
  28570459.41047                  22278295.25645  22137705.6254   22137704.9884
   9787642.40648   7644489.92646  20027257.0474                   20027255.2194
  22433326.34847  17495463.12845  22551663.8674                   22551663.4344
  29352426.64147  22887247.53745  22046340.8524                   22046339.6524
  39117425.59047  30496329.95844  23424961.7734                   23424959.6174
 11  7 25  0 57 30.0000000  0  8G02G17G28G09G04G27G10G12
  21127464.62548  16479232.02846  21169643.1484                   21169639.6484
  10226534.74647   7985187.81546  21924226.8054                   21924224.8054
   7713364.69947   6023139.46244  22912912.3674                   22912911.0084
  28562339.77047                  22271968.22745  22136161.2584   22136159.9964
   9783786.56347   7641485.36046  20026523.5554                   20026521.7034
  22428100.48447  17491391.03045  22550669.4384                   22550668.6214
  29238772.87947  22798686.20445  22024713.3834                   22024712.2074
  38986921.48447  30394638.45944  23400127.8444                   23400125.1054
 11  7 25  0 58  0.0000000  0  8G02G17G28G09G04G27G10G12
  21041616.30948  16412337.29046  21153306.7894                   21153303.1094
  10229810.57847   7987740.37946  21924850.7034                   21924848.6294
   7759951.84047   6059441.06144  22921777.6094                   22921776.7194
  28554795.77347                  22266089.73645  22134725.1094   22134724.2774
   9780398.90647   7638845.61946  20025878.7974                   20025877.0554
  22423283.95346  17487637.86445  22549752.6724                   22549752.4454
  29125453.05147  22710385.07945  22003149.5164                   22003148.3674
  38856522.02047  30293028.54944  23375313.2504                   23375311.5044
 11  7 25  0 58 30.0000000  0  8G02G17G28G09G04G27G10G12
  20956135.57848  16345728.97146  21137040.5314                   21137037.0984
  10233180.99247   7990366.65146  21925491.6884                   21925490.2274
   7806855.76247   6095989.50644  22930703.2894                   22930702.2814
  28547825.66047                  22260658.42645  22133398.7814   22133398.1214
   9777477.35248   7636569.06646  20025322.9064                   20025321.0514
  22418875.02746  17484202.32745  22548913.7814                   22548913.5124
  29012470.47747  22622346.74945  21981649.9224                   21981648.2854
  38726229.71547  30191502.09844  23350519.2034                   23350517.6914
 11  7 25  0 59  0.0000000  0  8G02G17G28G09G04G27G10G12
  20871021.83248  16279406.61446  21120843.3054                   21120839.6764
  10236645.68447   7993066.39646  21926151.3834                   21926149.2074
   7854074.18047   6132783.03644  22939688.3674                   22939687.2704
  28541426.56647                  22255672.07545  22132181.2734   22132180.7974
   9775019.25848   7634653.67946  20024855.1884                   20024853.1254
  22414870.94547  17481082.23545  22548151.7814                   22548151.4884
  28899827.12548  22534572.76445  21960214.3054                   21960213.0474
  38596045.89547  30090060.25244  23325746.2194                   23325743.9884
 11  7 25  0 59 30.0000000  0  8G02G17G28G09G04G27G10G12
  20786277.63348  16213372.20746  21104717.3364                   21104713.2544
  10240206.66447   7995841.15646  21926828.6334                   21926826.5944
   7901608.18047   6169822.45044  22948733.9614                   22948731.3054
  28535598.46947                  22251130.66545  22131072.0784   22131071.6294
   9773024.77047   7633099.52546  20024475.8594                   20024474.1414
  22411271.99646  17478277.83145  22547467.0634                   22547466.1374
  28787528.82447  22447067.64345  21938844.4844                   21938843.0164
  38465974.51647  29988706.00144  23300994.7274                   23300992.0594
 11  7 25  1  0  0.0000000  0  8G02G17G28G09G04G27G10G12
  20701898.78548  16147622.48946  21088660.3444                   21088656.8554
  10243860.15648   7998688.00745  21927524.4534                   21927522.0354
   7949451.82047   6207103.18544  22957838.3524                   22957837.2734
  28530334.91447                  22247029.15645  22130070.9614   22130069.6294
   9771487.46947   7631901.61546  20024183.0474                   20024181.1134
  22408071.80547  17475784.13445  22546858.5084                   22546857.3674
  28675574.43047  22359830.50145  21917539.7344                   21917538.7034
  38336013.63747  29887437.88944  23276263.1644                   23276262.7304
 11  7 25  1  0 30.0000000  0  8G02G17G28G09G04G27G10G12
  20617887.91448  16082159.50846  21072673.7814                   21072669.9024
  10247608.48447   8001608.77545  21928236.9694                   21928235.4104
   7997606.10547   6244625.92244  22967001.3204                   22967000.6844
  28525636.15647                  22243367.76545  22129176.4614   22129175.5864
   9770407.45348   7631060.04546  20023977.6644                   20023975.7974
  22405270.97747  17473601.64845  22546325.2424                   22546324.4574
  28563969.13347  22272865.38645  21896302.4144                   21896301.1094
  38206168.09847  29786259.65644  23251554.6334                   23251553.7344
 11  7 25  1  1  0.0000000  0  8G02G17G28G09G04G27G10G12
  20534245.16048  16016983.37346  21056757.3524                   21056753.1844
  10251451.97747   8004603.66245  21928968.8984                   21928967.1524
   8046069.95747   6282389.90644  22976224.3204                   22976223.1484
  28521500.16047                  22240144.89145  22128389.4924   22128388.2114
   9769782.63347   7630573.17346  20023858.3204                   20023856.7814
  22402867.53546  17471728.80945  22545868.0234                   22545867.4694
  28452716.36347  22186174.94545  21875131.6254                   21875130.7114
  38076439.53947  29685172.55445  23226868.1564                   23226866.7034
 11  7 25  1  1 30.0000000  0  8G02G17G28G09G04G27G10G12
  20450969.72748  15952093.45946  21040910.2974                   21040906.4574
  10255390.03548   8007672.25445  21929718.0784                   21929716.3594
   8094840.87547   6320393.14144  22985505.1414                   22985503.2424
  28517923.87547                  22237358.16045  22127709.1804   22127708.4304
   9769610.30547   7630438.89246  20023825.8594                   20023824.0984
  22400858.82447  17470163.52345  22545486.3054                   22545485.3014
  28341818.23047  22099760.87845  21854028.3834                   21854027.3714
  37946829.55947  29584177.85645  23202204.3054                   23202203.5824
 11  7 25  1  2  0.0000000  0  8G02G17G28G09G04G27G10G12
  20368059.30148  15887487.96646  21025132.6724                   21025129.6294
  10259420.06347   8010812.49945  21930485.1254                   21930482.9964
   8143914.78547   6358632.51044  22994843.8914                   22994842.1764
  28514902.28947                  22235003.66745  22127134.0474   22127132.9224
   9769885.69948   7630653.49246  20023878.4384                   20023876.5474
  22399239.85946  17468901.95245  22545177.8594                   22545176.8714
  28231275.15647  22013623.46045  21832992.6414                   21832991.4384
  37817337.60547  29483275.13145  23177562.6024                   23177561.5314
 11  7 25  1  2 30.0000000  0  8G02G17G28G09G04G27G10G12
  20285517.53148  15823169.74746  21009425.6644                   21009421.9414
  10263546.15247   8014027.60745  21931270.2344                   21931268.4884
   8193293.84847   6397109.65544  23004240.3674                   23004238.5354
  28512437.02047                  22233082.65245  22126665.0474   22126663.6254
   9770610.05547   7631217.93147  20024016.0634                   20024014.2504
  22398012.52047  17467945.56145  22544944.0234                   22544943.3794
  28121093.56347  21927767.73845  21812025.6334                   21812024.8754
  37687969.72347  29382469.07445  23152944.7194                   23152943.2854
 11  7 25  1  3  0.0000000  0  8G02G17G28G09G04G27G10G12
  20203346.03948  15759140.04446  20993789.1644                   20993784.9924
  10267770.10247   8017319.00346  21932074.1094                   21932072.1604
   8242978.32447   6435824.77444  23013694.8444                   23013693.9844
  28510527.43847                  22231594.64545  22126301.6644   22126300.4414
   9771782.93447   7632131.86447  20024239.2664                   20024237.3244
  22397176.35246  17467293.96145  22544785.0474                   22544784.0124
  28011278.66047  21842197.72245  21791128.3674                   21791127.4104
  37558729.52047  29281762.51945  23128350.8914                   23128349.1374
 11  7 25  1  3 30.0000000  0  8G02G17G28G09G04G27G10G12
  20121544.65648  15695398.74746  20978222.6414                   20978218.6454
  10272091.98848   8020686.68145  21932896.5554                   21932894.6294
   8292966.37547   6474776.45744  23023207.4844                   23023206.0704
  28509171.01647                  22230537.67645  22126043.0474   22126042.6804
   9773402.14847   7633393.58346  20024547.5944                   20024545.8714
  22396729.09047  17466945.42645  22544699.6644                   22544699.3714
  27901833.16047  21756915.57845  21770301.4844                   21770300.8634
  37429619.15647  29181157.13445  23103781.8834                   23103780.4264
 11  7 25  1  4  0.0000000  0  8G02G17G28G09G04G27G10G12
  20040108.65648  15631942.15446  20962725.8204                   20962722.1884
  10276506.74247   8024126.73745  21933736.3984                   21933734.4924
   8343251.75047   6513959.80144  23032775.8984                   23032775.6414
  28508360.22347                  22229905.86145  22125889.2274   22125888.3094
   9775460.43847   7634997.43946  20024939.2424                   20024937.2584
  22396663.73846  17466894.48545  22544687.1724                   22544686.7504
  27792755.17247  21671919.78645  21749544.9224                   21749543.6724
  37300636.04747  29080650.88945  23079237.5084                   23079235.5474
 11  7 25  1  4 30.0000000  0  8G02G17G28G09G04G27G10G12
  19959038.10948  15568770.31946  20947298.7504                   20947295.0984
  10281014.96147   8027639.63245  21934594.2734                   21934592.7074
   8393833.14847   6553373.83944  23042401.9774                   23042400.6094
  28508092.70347                  22229697.39345  22125838.3054   22125837.6844
   9777955.57047   7636941.70447  20025413.8754                   20025412.1214
  22396978.04347  17467139.33745  22544747.5084                   22544746.1294
  27684047.43047  21587212.51045  21728858.7504                   21728857.4064
  37171782.34447  28980245.47444  23054716.8524                   23054715.3834
 11  7 25  1  5  0.0000000  0  8G02G17G28G09G04G27G10G12
  21453759.84048  16733488.59146  21231734.7504                   21231730.7304
  11861040.81647   9258828.60845  22235263.3984                   22235261.4304
  10020131.23847   7820619.03944  23351875.5084                   23351874.9494
  30083790.71147                  23457514.00645  22425683.6724   22425682.7664
  11356309.59047   8866827.94346  20325764.6724                   20325763.0234
  23973094.32446  18695281.87345  22844672.3134                   22844671.4614
  29151141.21548  22730402.50545  22008037.2424                   22008035.8984
  38618488.84447  30107549.29345  23330016.3364                   23330014.5234
 11  7 25  1  5 30.0000000  0  8G02G17G28G09G04G27G10G12
  21373430.05548  16670893.98146  21216448.5554                   21216444.5004
  11865746.03547   9262495.01745  22236158.9774                   22236156.6724
  10071309.19147   7860497.94644  23361614.5944                   23361613.8794
  30084612.90247                  23458154.64845  22425840.1724   22425838.9454
  11359681.58248   8869455.47346  20326406.3284                   20326404.5594
  23974171.77747  18696121.42345  22844877.3754                   22844876.3714
  29043193.77347  22646287.67445  21987495.2734                   21987494.2114
  38489910.44547  30007358.40844  23305548.5704                   23305547.0554
 11  7 25  1  6  0.0000000  0  8G02G17G28G09G04G27G10G12
  21293470.53548  16608587.88846  21201232.6024                   21201229.1414
  11870550.09447   9266238.43745  22237072.8284                   22237071.0634
  10122783.20347   7900607.54044  23371409.8754                   23371408.8134
  30085976.19147                  23459216.93645  22426099.7114   22426098.7304
  11363488.94948   8872422.25146  20327130.7114                   20327129.1134
  23975627.48447  18697255.72045  22845154.0314                   22845153.7544
  28935630.79348  22562472.40045  21967026.9454                   21967025.7894
  38361472.74647  29907277.13744  23281108.1024                   23281105.6994
 11  7 25  1  6 30.0000000  0  8G02G17G28G09G04G27G10G12
  21213879.87148  16546569.21746  21186086.8594                   21186083.5314
  11875451.93047   9270058.06145  22238005.7114                   22238003.5704
  10174550.09047   7940945.33944  23381260.5784                   23381260.8284
  30087876.72347                  23460697.83745  22426461.3914   22426460.9024
  11367727.63747   8875725.12046  20327937.7974                   20327935.7584
  23977457.84447  18698681.94745  22845502.8054                   22845502.1954
  28828453.82447  22478957.93245  21946631.4844                   21946630.5004
  38233176.53547  29807306.11445  23256693.4694                   23256692.4344
 11  7 25  1  7  0.0000000  0  8G02G17G28G09G04G27G10G12
  21134662.68448  16484841.55946  21171012.2664                   21171008.5234
  11880456.48047   9273957.71645  22238958.0164                   22238956.1094
  10226613.18847   7981513.93044  23391167.8204                   23391168.1024
  30090316.82846                  23462599.19045  22426925.6644   22426925.0204
  11372400.32847   8879366.17746  20328826.4694                   20328824.7734
  23979665.46547  18700402.15345  22845923.2274                   22845922.7074
  28721670.55548  22395750.24445  21926311.5084                   21926309.8164
  38105028.95747  29707450.90945  23232308.1334                   23232306.7584
 11  7 25  1  7 30.0000000  0  8G02G17G28G09G04G27G10G12
  21055810.93448  16423398.66246  21156007.4384                   21156003.6764
  11885555.71947   9277931.15045  22239928.9924                   22239926.5164
  10278962.66446   8022305.71144  23401129.9694                   23401129.0044
  30093285.68447                  23464912.52445  22427490.8524   22427489.8324
  11377496.35548   8883337.11246  20329796.7584                   20329794.5164
  23982240.01247  18702408.26945  22846412.7114                   22846412.4264
  28615275.95348  22312845.40545  21906065.3594                   21906064.2814
  37977024.21147  29607706.97745  23207949.5164                   23207947.3634
 11  7 25  1  8  0.0000000  0  8G02G17G28G09G04G27G10G12
  20977328.46548  16362243.50646  21141072.7664                   21141068.8164
  11890753.92247   9281981.72045  22240917.6884                   22240915.7464
  10331601.14146   8063322.69143  23411146.4614                   23411145.1254
  30096784.93446                  23467639.21645  22428156.4534   22428155.6094
  11383017.77048   8887639.50246  20330847.2974                   20330845.0784
  23985183.37146  18704701.77545  22846973.0234                   22846972.4884
  28509276.72348  22230248.63545  21885894.3594                   21885893.0314
  37849168.69147  29508079.34745  23183618.9144                   23183618.0124
 11  7 25  1  8 30.0000000  0  8G02G17G28G09G04G27G10G12
  20899215.59048  16301376.35746  21126208.2664                   21126204.5634
  11896051.67247   9286109.82345  22241925.9534                   22241923.8674
  10384527.19146   8104563.73943  23421217.4924                   23421216.1604
  30100812.37146                  23470777.45745  22428923.5554   22428922.0744
  11388962.53547   8892271.78446  20331978.5704                   20331976.4804
  23988493.66446  18707281.19845  22847602.5944                   22847602.6644
  28403675.96148  22147962.37345  21865798.8524                   21865797.8634
  37721464.65647  29408569.72845  23159317.9844                   23159316.5864
 11  7 25  1  9  0.0000000  0  9G02G17G28G09G04G27G10G12G05
  20821468.49248  16240794.20646  21111413.7274                   21111409.7114
  11901445.69147   9290312.94245  22242952.0554                   22242950.0514
  10437735.60547   8146024.81944  23431343.7584                   23431343.0864
  30105361.86347                  23474322.50245  22429788.9064   22429787.6334
  11395324.58648   8897229.21746  20333189.1094                   20333187.3554
  23992164.96546  18710141.92745  22848301.6804                   22848301.3524
  28298473.53548  22065986.51245  21845779.4774                   21845778.1454
  37593910.72347  29309177.06645  23135045.2664                   23135043.6254
  47023714.18846  36658475.56743  24438807.4304                   24438808.4304
 11  7 25  1  9 30.0000000  0  9G02G17G28G09G04G27G10G12G05
  20744082.36348  16180493.35246  21096687.0864                   21096683.7704
  11906931.15647   9294587.33245  22243995.9614                   22243994.4454
  10491219.94946   8187700.91644  23441521.3984                   23441519.9804
  30110425.78146                  23478268.39345  22430752.2734   22430751.8874
  11402096.90248   8902506.34446  20334477.5944                   20334475.7734
  23996190.10947  18713278.41545  22849067.1884                   22849066.9694
  28193667.53947  21984319.54045  21825835.2194                   21825834.3794
  37466504.55547  29209899.57345  23110800.7734                   23110798.8014
  46881704.84046  36547819.05743  24411783.3834                   24411784.8444
 11  7 25  1 10  0.0000000  0  9G02G17G28G09G04G27G10G12G05
  20667054.85948  16120471.94346  21082029.4144                   21082025.5864
  11912506.21947   9298931.53545  22245057.1884                   22245054.9734
  10544975.81347   8229588.57844  23451751.3054                   23451749.4774
  30115999.25847                  23482611.33145  22431813.2584   22431811.9534
  11409274.89847   8908099.57846  20335843.6724                   20335841.9024
  24000564.58247  18716687.06545  22849900.1414                   22849899.3674
  28089258.20348  21902961.66045  21805966.9614                   21805965.8634
  37339245.98047  29110737.09045  23086584.4924                   23086583.0944
  46739641.76646  36437120.76443  24384749.1024                   24384750.7854
 11  7 25  1 10 30.0000000  0  9G02G17G28G09G04G27G10G12G05
  20590385.49248  16060729.60046  21067439.8444                   21067435.8594
  11918170.76647   9303345.43346  22246135.6024                   22246133.1994
  10599001.63346   8271686.61243  23462031.5234                   23462030.4224
  30122079.59847                  23487349.23845  22432970.1724   22432969.2194
  11416855.94548   8914006.87646  20337286.2974                   20337284.3094
  24005285.78546  18720365.89345  22850798.3054                   22850797.7074
  27985248.32847  21821915.06245  21786174.8054                   21786173.4104
  37212137.34447  29011691.42845  23062396.6804                   23062394.7424
  46597527.35945  36326382.53343  24357705.8594                   24357707.7384
 11  7 25  1 11  0.0000000  0  9G02G17G28G09G04G27G10G12G05
  20514077.74648  16001269.03846  21052919.1484                   21052914.9064
  11923928.55947   9307832.01345  22247230.7814                   22247228.6884
  10653299.35546   8313996.49444  23472364.5314                   23472362.0084
  30128667.72747                  23492482.82645  22434223.6484   22434223.3134
  11424841.17247   8920229.13646  20338805.7504                   20338803.4614
  24010354.89147  18724315.84245  22851762.9694                   22851762.2274
  27881644.42248  21741184.78245  21766459.3594                   21766457.8794
  37085184.25047  28912766.98145  23038237.8524                   23038236.4494
  46455367.82446  36215609.00943  24330654.0784                   24330655.0944
 11  7 25  1 11 30.0000000  0  9G02G17G28G09G04G27G10G12G05
  20438136.16048  15942093.79346  21038467.8444                   21038463.8054
  11929784.93447   9312395.38145  22248345.4144                   22248343.3554
  10707872.04746   8356520.66443  23482748.6954                   23482748.3674
  30135765.63746                  23498013.66445  22435574.6414   22435573.8284
  11433233.42248   8926768.54446  20340402.7424                   20340400.8284
  24015774.53547  18728538.94145  22852794.4774                   22852793.8164
  27778454.32847  21660776.96745  21746823.2424                   21746822.0314
  36958393.64547  28813969.16145  23014110.4384                   23014108.3874
  46313170.10246  36104805.80843  24303594.1094                   24303595.7974
 11  7 25  1 12  0.0000000  0  9G02G17G28G09G04G27G10G12G05
  20362561.89148  15883204.78346  21024086.2894                   21024082.8134
  11935741.29747   9317036.69146  22249478.7034                   22249476.9304
  10762719.19946   8399258.69544  23493186.1414                   23493184.8954
  30143371.96947                  23503940.68945  22437021.8444   22437021.2734
  11442031.34448   8933624.05146  20342077.1804                   20342075.3444
  24021543.79747  18733034.44445  22853891.8524                   22853891.3554
  27675681.80547  21580694.53246  21727266.3284                   21727264.7974
  36831769.39547  28715300.97645  22990013.7194                   22990012.7974
  46170937.97346  35993975.74043  24276528.5474                   24276529.5434
 11  7 25  1 12 30.0000000  0  9G02G17G28G09G04G27G10G12G05
  20287355.63348  15824602.52046  21009775.0164                   21009771.1334
  11941798.54748   9321756.60446  22250631.2274                   22250629.6804
  10817840.00846   8442209.92644  23503675.3914                   23503674.9264
  30151484.70747                  23510262.30245  22438565.5314   22438565.1134
  11451233.37547   8940794.44546  20343828.3674                   20343826.6954
  24027661.04747  18737801.09945  22855055.8914                   22855055.7664
  27573330.91848  21500940.64145  21707789.2584                   21707787.6884
  36705314.16047  28616764.47445  22965950.9774                   22965948.9144
  46028675.72746  35883122.21744  24249456.6254                   24249458.6884
 11  7 25  1 13  0.0000000  0  9G02G17G28G09G04G27G10G12G05
  20212521.44948  15766290.18446  20995534.5944                   20995530.7274
  11947961.46147   9326558.83446  22251804.3674                   22251802.2704
  10873236.97746   8485376.34544  23514217.0784                   23514216.3164
  30160105.35947                  23516979.67045  22440206.1564   22440205.7934
  11460841.42648   8948281.23646  20345656.5164                   20345654.6524
  24034128.27347  18742840.46845  22856287.3444                   22856286.2344
  27471408.41448  21421520.55646  21688394.0864                   21688393.0704
  36579034.85247  28518365.06845  22941920.4064                   22941918.4494
  45886389.41846  35772249.90244  24222380.4774                   24222382.0124
 11  7 25  1 13 30.0000000  0  9G02G17G28G09G04G27G10G12G05
  20138057.18848  15708266.11046  20981364.5554                   20981360.8244
  11954228.47348   9331442.19846  22252997.2194                   22252995.1724
  10928906.39846   8528755.08644  23524811.0084                   23524809.4344
  30169229.75847                  23524089.59045  22441942.6644   22441941.6884
  11470851.51248   8956081.28946  20347561.4144                   20347559.7384
  24040941.32847  18748149.31044  22857583.8134                   22857583.0824
  27369915.38748  21342435.14346  21669080.6564                   21669079.3984
  36452932.19547  28420103.32645  22917923.5474                   22917922.4024
  45744079.66046  35661359.38744  24195299.6724                   24195301.4144
 11  7 25  1 14  0.0000000  0  9G02G17G28G09G04G27G10G12G05
  20063960.47348  15650528.43346  20967264.4064                   20967260.7464
  11960597.66447   9336405.16745  22254208.4534                   22254206.7234
  10984844.36746   8572343.12843  23535455.1484                   23535454.4614
  30178852.76647                  23531588.00645  22443773.5704   22443772.7814
  11481259.01647   8964191.02746  20349541.9064                   20349539.6414
  24048095.57447  18753724.00345  22858945.5234                   22858944.8014
  27268852.60248  21263684.95846  21649848.7664                   21649847.8054
  36327005.84447  28321978.93845  22893960.6334                   22893958.8714
  45601747.06646  35550451.07844  24168214.6484                   24168216.7114
 11  7 25  1 14 30.0000000  0  9G02G17G28G09G04G27G10G12G05
  19990232.31648  15593077.94346  20953234.4144                   20953230.6914
  11967070.49247   9341448.89546  22255440.6804                   22255438.5164
  11041050.62946   8616140.19644  23546150.4064                   23546150.3834
  30188972.71147                  23539473.72745  22445699.5084   22445698.1804
  11492062.63348   8972609.42346  20351597.4924                   20351595.5274
  24055589.96947  18759563.74544  22860371.0474                   22860370.2734
  27168223.78147  21185272.94845  21630700.1254                   21630698.3634
  36201259.46147  28223994.79645  22870032.1884                   22870030.0634
  45459395.64546  35439528.06244  24141124.8834                   24141127.0164
 11  7 25  1 15  0.0000000  0  9G02G17G28G09G04G27G10G12G05
  19916878.50848  15535919.15346  20939275.7114                   20939271.7624
  11973653.25447   9346578.28545  22256692.9304                   22256691.4344
  11097529.38346   8660149.60843  23556897.7274                   23556897.3444
  30199592.94947                  23547749.23645  22447720.1254   22447719.9654
  11503266.13748   8981339.41446  20353729.8754                   20353728.0864
  24063428.00447  18765671.27044  22861862.8914                   22861862.5354
  27068037.75847  21107205.97646  21611634.6024                   21611633.4804
  36075701.51647  28126157.47645  22846139.2974                   22846137.1024
  45317034.00446  35328597.07643  24114034.0314                   24114035.4924
 11  7 25  1 15 30.0000000  0  9G02G17G28G09G04G27G10G12G05
  19843895.01648  15479048.91646  20925387.4304                   20925383.6414
  11980342.20747   9351790.42945  22257965.7034                   22257964.3164
  11154274.55946   8704366.59644  23567696.7664                   23567696.2664
  30210706.45347                  23556409.12045  22449834.5704   22449834.6844
  11514863.20348   8990376.08446  20355936.6334                   20355934.4534
  24071603.24246  18772041.55245  22863418.1644                   22863417.8594
  26968293.48448  21029483.22046  21592654.3444                   21592652.6954
  35950330.19147  28028465.59945  22822281.6954                   22822279.7114
  45174660.64546  35217657.06143  24086941.5234                   24086943.7854
 11  7 25  1 16  0.0000000  0  9G02G17G28G09G04G27G10G12G05
  19771279.78948  15422465.65346  20911568.7974                   20911565.1054
  11987135.98447   9357084.26145  22259259.1644                   22259257.1134
  11211282.84047   8748788.60544  23578544.7664                   23578544.3954
  30222308.96147                  23565450.00545  22452042.9694   22452042.2704
  11526849.75448   8999716.24546  20358217.5554                   20358215.8874
  24080111.69547  18778671.45644  22865037.7344                   22865036.6524
  26868992.23448  20952105.67545  21573757.5554                   21573756.5904
  35825146.41847  27930919.83345  22798460.2424                   22798458.1644
  45032276.70746  35106708.69143  24059847.0554                   24059848.2734
 11  7 25  1 16 30.0000000  0  9G02G17G28G09G04G27G10G12G05
  19699030.91048  15366167.84246  20897820.6804                   20897816.6914
  11994033.55547   9362458.95845  22260571.9224                   22260569.7194
  11268551.12947   8793413.22643  23589443.1804                   23589441.7074
  30234395.90247                  23574868.42545  22454342.7194   22454342.6254
  11539221.86348   9009356.85846  20360571.8594                   20360569.6174
  24088949.50447  18785558.02444  22866719.1884                   22866718.7974
  26770135.41048  20875074.43545  21554945.8594                   21554944.5004
  35700150.87947  27833520.76145  22774674.6174                   22774672.0824
  44889883.30946  34995752.94843  24032749.9384                   24032751.5704
 11  7 25  1 17  0.0000000  0  9G02G17G28G09G04G27G10G12G05
  19627155.62548  15310161.15446  20884143.1484                   20884139.0474
  12001042.58247   9367920.51345  22261904.8364                   22261903.6094
  11326084.81346   8838244.62143  23600391.3054                   23600389.9224
  30246971.71147                  23584667.76045  22456735.7894   22456735.5864
  11551984.47748   9019301.73446  20363000.3134                   20362998.5124
  24098121.68047  18792705.12544  22868464.3754                   22868464.1954
  26671732.66447  20798397.02545  21536220.5234                   21536218.7624
  35575353.44147  27736276.04245  22750926.0084                   22750924.5204
  44747490.41446  34884797.62043  24005653.8594                   24005654.6644
 11  7 25  1 17 30.0000000  0  9G02G17G28G09G04G27G10G12G05
  19555649.28148  15254441.95246  20870535.7974                   20870532.0784
  12008159.19147   9373465.90745  22263259.3594                   22263257.8914
  11383877.68047   8883278.04443  23611388.9224                   23611387.6524
  30260029.22747                  23594842.43645  22459221.0004   22459220.1524
  11565130.82848   9029545.64946  20365502.4144                   20365500.2854
  24107621.35947  18800107.40145  22870272.3914                   22870272.1604
  26573782.74248  20722072.46646  21517581.2344                   21517579.6174
  35450751.97747  27639184.01445  22727215.5474                   22727213.1294
  44605096.62947  34773841.59344  23978557.9144                   23978558.0824
 11  7 25  1 18  0.0000000  0  9G02G17G28G09G04G27G10G12G05
  19484508.73848  15199007.78546  20856998.0474                   20856994.1414
  12015380.43047   9379092.84445  22264633.5234                   22264632.0634
  11441925.12947   8928509.80643  23622435.2974                   23622433.3164
  30273562.80947                  23605388.08445  22461796.2424   22461795.3874
  11578655.67648   9040084.48346  20368076.0474                   20368074.0664
  24117442.98847  18807760.58444  22872141.3524                   22872141.0944
  26476285.04348  20646100.28146  21499027.7114                   21499026.3244
  35326345.97747  27542244.32845  22703541.3754                   22703538.8014
  44462701.28147  34662884.31644  23951460.2974                   23951460.9924
 11  7 25  1 18 30.0000000  0  9G02G17G28G09G04G27G10G12G05
  19413734.20348  15143858.83246  20843530.3754                   20843526.3754
  12022707.66047   9384802.36445  22266027.9384                   22266026.5474
  11500225.92247   8973939.01943  23633529.1484                   23633527.5004
  30287570.20347                  23616302.89345  22464461.7814   22464460.5474
  11592557.52048   9050917.09946  20370721.3134                   20370719.1884
  24127584.90247  18815663.32845  22874072.0314                   22874071.1254
  26379243.30947  20570483.39345  21480561.3914                   21480560.0744
  35202138.36347  27445459.20945  22679905.9224                   22679903.6024
  44320307.72347  34551928.44044  23924363.4534                   23924364.2074
 11  7 25  1 19  0.0000000  0  9G02G17G28G09G04G27G10G12G05
  19343328.04348  15088996.91246  20830132.7664                   20830128.5704
  12030143.48447   9390596.51445  22267442.4924                   22267440.8594
  11558780.96547   9019566.34043  23644672.4844                   23644670.8914
  30302051.14547                  23627586.77245  22467217.8524   22467216.3524
  11606836.41848   9062043.51646  20373438.5784                   20373436.6454
  24138047.30547  18823815.78244  22876062.7734                   22876061.7584
  26282662.84447  20495225.92545  21462182.9384                   21462181.2734
  35078134.25047  27348832.63645  22656308.8984                   22656306.8244
  44177921.15247  34440978.05844  23897268.2664                   23897269.4344
 11  7 25  1 19 30.0000000  0  9G02G17G28G09G04G27G10G12G05
  19273287.45348  15034419.85146  20816803.7734                   20816800.3134
  12037685.94547   9396473.75245  22268877.9224                   22268876.1334
  11617586.19547   9065388.58643  23655862.1174                   23655861.6134
  30317000.31647                  23639235.46045  22470062.5234   22470061.0084
  11621487.36348   9073459.84346  20376226.4064                   20376224.6884
  24148825.27347  18832214.15345  22878113.1564                   22878113.9844
  26186543.66847  20420327.92246  21443892.0474                   21443890.0744
  34954333.50447  27252364.55745  22632749.1724                   22632747.0594
  44035542.12147  34330033.47944  23870174.5944                   23870174.8524
 11  7 25  1 20  0.0000000  0  9G02G17G28G09G04G27G10G12G05
  19203612.23848  14980127.51646  20803545.4144                   20803541.3054
  12045335.40647   9402434.35145  22270333.5474                   22270332.1644
  11676639.37146   9111404.02443  23667099.4924                   23667098.2854
  30332414.87947                  23651246.79045  22472995.7814   22472994.7624
  11636508.29748   9085164.47846  20379084.7344                   20379082.9454
  24159916.44147  18840856.52645  22880224.2584                   22880224.1334
  26090888.71547  20345791.62946  21425689.3284                   21425688.1954
  34830738.91047  27156057.09745  22609230.8204                   22609228.4694
  43893173.37547  34219096.92244  23843082.9614                   23843082.9574
 11  7 25  1 20 30.0000000  0  9G02G17G28G09G04G27G10G12G05
  19134305.87948  14926122.58046  20790356.7194                   20790352.6454
  12053096.34448   9408481.81745  22271811.1254                   22271808.6684
  11735942.71546   9157614.41143  23678384.7344                   23678382.8404
  30348295.67646                  23663621.41745  22476017.3834   22476017.2544
  11651900.65648   9097158.52946  20382013.5084                   20382012.2114
  24171322.23447  18849744.08445  22882395.1334                   22882394.7464
  25995704.41847  20271622.09846  21407576.5234                   21407574.6914
  34707356.69147  27059915.14045  22585751.8754                   22585750.0474
  43750821.67646  34108173.65644  23815993.4144                   23815993.9414
 11  7 25  1 21  0.0000000  0  9G02G17G28G09G04G27G10G12G05
  19065368.32848  14872405.02946  20777238.6884                   20777234.4844
  12060969.50047   9414616.74745  22273308.8984                   22273307.1684
  11795494.68046   9204018.45443  23689717.2734                   23689715.5004
  30364640.05147                  23676357.24945  22479128.0944   22479126.5744
  11667662.23848   9109440.26646  20385013.2584                   20385011.3524
  24183040.62947  18858875.24845  22884625.0634                   22884623.9844
  25900994.00447  20197821.80546  21389553.7114                   21389551.9774
  34584189.34047  26963940.60245  22562313.7894                   22562311.4454
  43608489.52046  33997265.63644  23788908.8444                   23788908.8204
 11  7 25  1 21 30.0000000  0  9G02G17G28G09G04G27G10G12G05
  18996800.52348  14818975.59246  20764190.5474                   20764186.3014
  12068956.00047   9420840.00145  22274828.7734                   22274827.0234
  11855294.78146   9250615.82943  23701096.8914                   23701096.2894
  30381446.15647                  23689452.90145  22482326.0704   22482325.4184
  11683791.68048   9122008.66446  20388082.5234                   20388080.9614
  24195070.16447  18868248.85445  22886913.8594                   22886913.5904
  25806761.22347  20124393.71046  21371621.9224                   21371620.2704
  34461240.53947  26868136.38345  22538917.2274                   22538915.1484
  43466181.13347  33886376.18144  23761828.1564                   23761827.9574
 11  7 25  1 22  0.0000000  0  9G02G17G28G09G04G27G10G12G05
  18928595.63348  14765828.95346  20751211.5084                   20751207.5124
  12077049.87547   9427146.92245  22276369.0314                   22276366.8524
  11915334.28146   9297399.80743  23712521.4144                   23712521.4774
  30398704.08647                  23702900.61145  22485610.1024   22485609.1024
  11700280.22348   9134856.88646  20391219.7894                   20391218.3444
  24207401.62547  18877857.71544  22889260.2344                   22889260.1254
  25713001.85547  20051334.52346  21353779.6724                   21353778.2384
  34338506.34047  26772499.35745  22515561.4534                   22515559.9384
  43323892.72746  33775502.21544  23734750.8524                   23734751.8404
 11  7 25  1 22 30.0000000  0  9G02G17G28G09G04G27G10G12G05
  18860757.04348  14712967.74946  20738302.5704                   20738298.1844
  12085255.40647   9433540.85345  22277930.5394                   22277928.9494
  11975615.83646   9344372.31643  23723993.3284                   23723992.5944
  30416415.03546                  23716701.30645  22488979.8674   22488979.6024
  11717129.40648   9147986.12546  20394426.4534                   20394424.4804
  24220036.57447  18887703.08444  22891665.2424                   22891664.8794
  25619722.46548  19978649.31246  21336029.2664                   21336027.5784
  34215992.81647  26677034.29745  22492248.5084                   22492245.9924
  43181631.06347  33664649.11744  23707678.9614                   23707680.0904
 11  7 25  1 23  0.0000000  0  9G02G17G28G09G04G27G10G12G05
  18793282.18448  14660389.95846  20725461.9144                   20725457.9734
  12093570.95748   9440020.52245  22279512.9614                   22279511.3594
  12036134.87546   9391529.93043  23735509.0394                   23735508.6294
  30434574.22747                  23730851.27145  22492435.7664   22492435.3364
  11734334.75048   9161392.89346  20397700.4924                   20397698.7704
  24232970.48047  18897781.35644  22894126.0164                   22894126.4384
  25526924.23447  19906339.04246  21318370.4844                   21318369.0004
  34093700.54747  26581741.65245  22468976.7274                   22468974.5234
  43039396.59047  33553817.24044  23680613.1804                   23680613.8674
 11  7 25  1 23 30.0000000  0  9G02G17G28G09G04G27G10G12G05
  18726174.27048  14608098.10446  20712691.7194                   20712687.6644
  12102000.43848   9446588.92945  22281117.2734                   22281115.0474
  12096893.18846   9438874.03943  23747071.3284                   23747070.3094
  30453182.00847                  23745350.81545  22495977.3134   22495976.6414
  11751897.55548   9175078.19446  20401042.8134                   20401040.7584
  24246204.28147  18908093.35044  22896644.8984                   22896644.3404
  25434612.78547  19834408.09046  21300804.0944                   21300802.0474
  33971635.50447  26486626.03745  22445748.6094                   22445746.8754
  42897195.85247  33443011.62944  23653553.0394                   23653554.0394
 11  7 25  1 24  0.0000000  0  9G02G17G28G09G04G27G10G12G05
  18659429.80148  14556089.44246  20699990.7814                   20699986.7854
  12110541.07447   9453243.96345  22282742.4924                   22282740.3244
  12157885.59846   9486400.51644  23758678.3594                   23758677.8914
  30472232.28547                  23760195.14245  22499601.9304   22499601.8834
  11769812.07448   9189037.56146  20404451.9614                   20404449.8444
  24259732.11747  18918634.44144  22899219.3364                   22899218.5474
  25342787.41047  19762855.89546  21283330.0634                   21283328.3914
  33849796.98447  26391686.94445  22422563.5164                   22422561.3914
  42755028.23047  33332231.79744  23626499.6254                   23626500.0204
 11  7 25  1 24 30.0000000  0  9G02G17G28G09G04G27G10G12G05
  18593050.67648  14504365.48246  20687359.5944                   20687355.3014
  12119195.56347   9459987.70145  22284389.1094                   22284387.6174
  12219112.70746   9534109.89943  23770329.5554                   23770328.3054
  30491724.11747                  23775383.52945  22503311.2194   22503310.6994
  11788078.05548   9203270.79846  20407927.3284                   20407925.8484
  24273553.78947  18929404.54344  22901849.0164                   22901848.7154
  25251453.00848  19691686.29446  21265949.6724                   21265948.0554
  33728189.69147  26296928.04245  22399422.1724                   22399420.8134
  42612898.74647  33221481.66744  23599453.0704                   23599451.9184
 11  7 25  1 25  0.0000000  0  9G02G17G28G09G04G27G10G12G05
  18527036.41448  14452925.80546  20674796.9844                   20674793.0664
  12127964.37948   9466820.52845  22286058.0944                   22286055.7544
  12280572.65647   9582000.71844  23782024.6334                   23782023.6454
  30511654.20347                  23790913.42045  22507104.2344   22507103.5354
  11806693.19148   9217776.10246  20411469.6174                   20411468.0984
  24287666.84047  18940401.65645  22904535.0704                   22904534.7934
  25160611.84848  19620901.01746  21248663.1024                   21248661.3714
  33606816.04347  26202351.19945  22376325.7504                   22376323.6414
  42470810.25447  33110763.43144  23572414.4614                   23572413.8834
 11  7 25  1 25 30.0000000  0  9G02G17G28G09G04G27G10G12G05
  18461385.27348  14401769.09146  20662304.1804                   20662300.2934
  12136846.53547   9473741.68545  22287748.3054                   22287746.0594
  12342262.20746   9630070.47543  23793764.3364                   23793763.4534
  30532018.46547                  23806781.65945  22510979.4304   22510978.3054
  11825653.83248   9232550.62746  20415078.3674                   20415076.2424
  24302067.31647  18951622.73845  22907274.8444                   22907275.0004
  25070265.34448  19550501.18846  21231470.8204                   21231469.1954
  33485677.03147  26107957.19545  22353273.5004                   22353271.6484
  42328764.13747  33000078.27944  23545383.5944                   23545383.5084
 11  7 25  1 26  0.0000000  0  9G02G17G28G09G04G27G10G12G05
  18396099.06648  14350896.74746  20649880.4304                   20649876.8094
  12145844.56347   9480753.11645  22289460.2734                   22289458.1024
  12404181.66846   9678319.39243  23805546.5554                   23805545.7464
  30552816.17646                  23822987.57745  22514937.5314   22514936.1954
  11844959.90247   9247594.31646  20418752.0234                   20418750.1564
  24316755.15247  18963067.75845  22910070.7344                   22910070.1954
  24980418.25448  19480490.52646  21214373.4774                   21214371.5704
  33364777.53947  26013749.83145  22330267.1174                   22330265.4774
  42186765.61346  32889430.20044  23518362.2034                   23518362.3874
 11  7 25  1 26 30.0000000  0  9G02G17G28G09G04G27G10G12G05
  18331173.73048  14300305.59246  20637525.7814                   20637521.5744
  12154955.75448   9487852.72845  22291193.9844                   22291192.3984
  12466325.60246   9726743.17643  23817372.0784                   23817371.7344
  30574040.59446                  23839526.02245  22518976.0164   22518975.3554
  11864605.35548   9262902.46446  20422490.1094                   20422488.7894
  24331724.19547  18974731.88344  22912918.3834                   22912918.5124
  24891069.59847  19410868.22946  21197370.7504                   21197369.4344
  33244116.78947  25919728.49745  22307306.3594                   22307303.9494
  42044813.93447  32778818.65744  23491349.0864                   23491350.3634
 11  7 25  1 27  0.0000000  0  9G02G17G28G09G04G27G10G12G05
  19842030.21548  15477596.37846  20925032.0004                   20925028.3204
  13739598.89547  10722639.57345  22592741.4774                   22592739.8834
  14104108.85946  11002937.91743  24129032.1334                   24129031.4804
  32171106.67646                  25083993.05645  22822886.4454   22822887.0514
  13460006.18447  10506071.94346  20726085.1174                   20726083.1954
  25922390.18047                  20214211.83344                  23215613.0004
  23215612.1524   26377644.00848  20569237.97046  21480256.6884   21480254.6024
  34699120.20747  27053497.42745  22584184.3594                   22584182.2974
  43478335.72747  33895848.73444  23764139.7814                   23764139.6994
 11  7 25  1 27 30.0000000  0  9G02G17G28G09G04G27G10G12G05
  19777826.31347  15427567.39046  20912814.2894                   20912810.7504
  13748937.77047  10729916.58845  22594518.8914                   22594517.4804
  14166696.35946  11051707.33643  24140942.4144                   24140941.7814
  32193175.40646                  25101189.42745  22827086.5704   22827086.3244
  13480323.90647  10521903.94446  20729951.4304                   20729949.7194
  25937914.16847                  20226308.39144                  23218566.1334
  23218566.6484   26289300.39548  20500398.83446  21463444.9304   21463443.1684
  34578944.67247  26959854.19045  22561315.5784                   22561313.4454
  43336486.80147  33785317.26244  23737146.6414                   23737146.8874
 11  7 25  1 28  0.0000000  0  9G02G17G28G09G04G27G10G12G05
  19713983.57448  15377819.83146  20900665.3284                   20900661.3164
  13758392.50047  10737283.89445  22596318.2424                   22596316.0124
  14229504.03946  11100648.34443  24152894.3054                   24152893.4494
  32215663.25446                  25118712.37745  22831366.7344   22831365.5824
  13500975.53947  10537996.10946  20733881.2584                   20733878.9264
  25953713.32847                  20238619.36544                  23221572.8834
  23221573.2464   26201464.28548  20431955.15446  21446730.3054   21446728.7544
  34459016.87147  26866404.00845  22538493.9694                   22538492.1604
  43194694.73847  33674830.05145  23710164.4534                   23710164.6644
 11  7 25  1 28 30.0000000  0  9G02G17G28G09G04G27G10G12G05
  19650503.87948  15328355.14246  20888585.8914                   20888581.9184
  13767965.75047  10744743.55345  22598139.7894                   22598137.6884
  14292532.57146  11149761.48143  24164888.0234                   24164887.3714
  32238568.99647                  25136560.96545  22835725.4694   22835724.6524
  13521961.00048  10554348.41546  20737874.7194                   20737872.5664
  25969787.26647                  20251144.44144                  23224632.2274
  23224631.9024   26114140.30148  20363910.53646  21430113.2894   21430111.6804
  34339341.60547  26773150.62045  22515720.2584                   22515718.6334
  43052964.72747  33564391.20745  23683193.9384                   23683194.6484
 11  7 25  1 29  0.0000000  0  8G02G17G09G04G27G10G12G05
  19587380.51248  15279168.11546  20876573.4924                   20876569.9654
  13777652.30947  10752291.49945  22599982.9844                   22599981.6294
  32261883.71546                  25154728.23045  22840161.9614   22840161.1054
  13543271.77047  10570954.21046  20741930.0394                   20741928.0084
  25986127.04747                  20263876.67444                  23227741.3444
  23227740.8984   26027324.85548  20296262.17846  21413593.0704   21413591.0004
  34219915.00047  26680090.98045  22492994.0474                   22492992.2894
  42911293.55147  33453998.22945  23656234.5474                   23656235.1334
 11  7 25  1 29 30.0000000  0  8G02G17G09G04G27G10G12G05
  19524617.45348  15230261.85346  20864630.0234                   20864626.1764
  13787456.22347  10759930.89745  22601848.4534                   22601847.2734
  32285608.52047                  25173215.07644  22844676.0704   22844675.7074
  13564909.77347  10587814.99746  20746047.3524                   20746045.5354
  26002734.70747                  20276817.65944                  23230901.5394
  23230901.6414   25941024.63348  20229015.29446  21397170.5004   21397168.7504
  34100744.16047  26587230.63445  22470316.7734                   22470315.0434
  42769688.42647  33343656.69645  23629288.2114                   23629288.1054
 11  7 25  1 30  0.0000000  0  8G02G17G09G04G27G10G12G05
  19462228.85248  15181647.37546  20852758.1954                   20852754.3054
  13797393.03147  10767673.83745  22603739.6094                   22603737.4884
  32309754.89146                  25192030.38845  22849270.8364   22849271.3754
  13586887.24647  10604940.29746  20750229.4844                   20750227.6334
  26019622.24647                  20289976.74244                  23234115.4924
  23234115.5274   25855256.77048  20162183.24446  21380849.0634   21380847.4064
  33981846.43847  26494583.12545  22447691.1724                   22447689.0594
  42628166.70347  33233380.14245  23602357.3914                   23602357.7274
 11  7 25  1 30 30.0000000  0  8G02G17G09G04G27G10G12G05
  19400210.13748  15133321.13446  20840956.2424                   20840952.4304
  13807459.30547  10775517.67745  22605655.1954                   22605653.5434
  32334315.87146                  25211168.75645  22853944.5314   22853944.5434
  13609197.85247  10622325.19246  20754475.2734                   20754473.0744
  26036782.84447                  20303348.55444                  23237380.4924
  23237381.2034   25770019.48448  20095764.62446  21364629.1174   21364627.3554
  33863219.96547  26402146.95945  22425117.1644                   22425115.1454
  42486727.33647  33123167.78945  23575442.1804                   23575442.8404
 11  7 25  1 31  0.0000000  0  8G02G17G09G04G27G10G12G05
  19338557.99648  15085280.53246  20829224.5234                   20829220.4924
  13817652.58247  10783460.46945  22607594.9774                   22607593.3754
  32359285.27046                  25230625.39044  22858696.6024   22858696.1414
  13631836.42247  10639965.64146  20758783.1414                   20758781.2504
  26054211.32847                  20316929.16144                  23240697.7424
  23240697.5704   25685312.35548  20029759.10046  21348510.0164   21348507.7934
  33744864.66447  26309922.09845  22402594.7034                   22402593.2074
  42345370.37147  33013019.62445  23548543.0634                   23548542.5824
 11  7 25  1 31 30.0000000  0  8G02G17G09G04G27G10G12G05
  19277268.71948  15037522.67646  20817561.1094                   20817557.1724
  13827969.88347  10791499.93745  22609558.4534                   22609556.1884
  32384656.27346                  25250394.93044  22863525.2734   22863523.6684
  13654797.08647  10657857.05446  20763152.8444                   20763150.6214
  26071901.78147                  20330713.89044                  23244064.1174
  23244064.2974   25601134.46548  19964165.99146  21332491.1644   21332489.5904
  33626779.62547  26217907.81646  22380124.0944                   22380121.9104
  42204095.17247  32902935.15645  23521659.3364                   23521659.1914
 11  7 25  1 32  0.0000000  0  8G02G17G09G04G27G10G12G05
  19216339.50848  14990045.39247  20805966.9534                   20805963.0354
  13838409.78947  10799634.92245  22611544.7424                   22611542.8524
  32410423.74646                  25270473.44645  22868428.1564   22868427.1604
  13678075.52047  10675996.10446  20767582.2504                   20767580.3594
  26089849.16047                  20344698.81644                  23247478.9924
  23247479.2894   25517486.02748  19898985.42446  21316573.8444   21316571.7074
  33508965.27047  26126104.47545  22357704.5084                   22357702.6054
  42062902.69147  32792915.19045  23494791.0944                   23494790.1334
 11  7 25  1 32 30.0000000  0  8G02G17G09G04G27G10G12G05
  19155765.86748  14942845.17747  20794440.2894                   20794436.2034
  13848968.48447  10807862.49245  22613553.6024                   22613552.5554
  32436580.64546                  25290855.40444  22873405.7274   22873405.2774
  13701665.42647  10694377.85546  20772071.2974                   20772069.4694
  26108047.27747                  20358879.13644                  23250942.2584
  23250941.7234   25434365.40248  19834216.15346  21300756.1254   21300754.3244
  33391420.17247  26034510.92345  22335336.4924                   22335334.6294
  41921791.88746  32682958.85844  23467938.3054                   23467937.3444
 11  7 25  1 33  0.0000000  0  8G02G17G09G04G27G10G12G05
  19095547.10948  14895921.48946  20782980.5314                   20782976.7304
  13859646.79747  10816183.23545  22615585.8444                   22615584.1484
  32463123.48847                  25311538.06845  22878456.9304   22878456.5744
  13725564.14148  10713000.22846  20776619.0084                   20776617.0274
  26126493.14847                  20373252.48244                  23254452.4694
  23254452.4494   25351774.24248  19769859.43346  21285039.6724   21285038.0314
  33274146.77747  25943129.08245  22313020.0474                   22313018.1884
  41780765.39147  32573068.22544  23441101.7504                   23441100.7384
 11  7 25  1 33 30.0000000  0  8G02G17G09G04G27G10G12G05
  19035683.97748  14849274.93046  20771589.1564                   20771585.1764
  13870446.05547  10824598.21945  22617641.1954                   22617639.4344
  32490050.75047                  25332520.30144  22883580.7734   22883580.1334
  13749770.80547  10731862.55546  20781225.4454                   20781223.4884
  26145185.79347                  20387818.16644                  23258009.2974
  23258009.8134   25269716.88748  19705918.67846  21269424.6094   21269422.8164
  33157149.48847  25851962.40345  22290756.3204                   22290754.4844
  41639827.74247  32463246.83044  23414281.8834                   23414282.1914
 11  7 25  1 34  0.0000000  0  8G02G17G09G04G27G10G12G05
  18976173.44948  14802903.11347  20760264.7664                   20760260.7894
  13881364.37147  10833106.03745  22619718.6334                   22619716.5354
  32517356.44147                  25353797.42644  22888776.9064   22888776.1914
  13774280.55148  10750961.04746  20785889.0234                   20785887.7664
  26164119.64847                  20402571.77744                  23261612.1414
  23261612.5314   25188192.59048  19642393.29346  21253911.4844   21253909.0864
  33040427.48447  25761010.21345  22268545.1254                   22268542.3714
  41498978.99247  32353494.68744  23387479.6334                   23387478.6954
 11  7 25  1 34 30.0000000  0  8G02G17G09G04G27G10G12G05
  18917019.39148  14756809.07546  20749007.6884                   20749003.9104
  13892406.64847  10841710.40445  22621819.9144                   22621818.8204
  32545041.39147                  25375370.07945  22894045.7274   22894044.7074
  13799095.00047  10770296.96946  20790611.4454                   20790609.5744
  26183296.50047                  20417514.74244                  23265262.0634
  23265261.8244   25107208.05948  19579288.51246  21238500.3364   21238498.3984
  32923987.78947  25670278.02945  22246387.0164                   22246384.6884
  41358226.30147  32243817.41745  23360694.8284                   23360695.2344
 11  7 25  1 35  0.0000000  0  8G02G17G09G04G27G10G12G05
  18858220.31348  14710991.63647  20737818.9064                   20737814.9494
  13903572.71147  10850411.23045  22623944.6884                   22623942.8954
  32573101.88347                  25397235.36345  22899385.2664   22899385.2664
  13824211.27747  10789868.07346  20795391.0784                   20795389.0124
  26202713.02047                  20432644.46344                  23268956.3284
  23268957.0314   25026764.77048  19516605.45546  21223192.2274   21223190.2934
  32807832.84847  25579767.70246  22224283.5394                   22224281.1524
  41217572.28147  32134217.03645  23333928.8834                   23333929.2854
 11  7 25  1 35 30.0000000  0  8G02G17G09G04G27G10G12G05
  18799771.87548  14665447.43346  20726696.5864                   20726692.5944
  13914859.48047  10859206.10945  22626092.8204                   22626091.8164
  32601531.22346                  25419388.04744  22904795.0474   22904794.4304
  13849623.36747  10809669.68546  20800226.7664                   20800225.0824
  26222362.86747                  20447955.97144                  23272696.1564
  23272695.8984   24946861.20747  19454342.98446  21207986.9844   21207985.3794
  32691960.77747  25489477.80345  22202233.8914                   22202231.3484
  41077015.83247  32024692.66645  23307181.6024                   23307182.0124
 11  7 25  1 36  0.0000000  0  8G02G17G09G04G27G10G12G05
  18741675.34448  14620177.43246  20715640.9924                   20715637.0434
  13926268.96947  10868096.64045  22628263.8444                   22628261.2464
  32630327.68446                  25441826.78944  22910274.6644   22910274.5204
  13875330.85947  10829701.48646  20805118.6724                   20805116.9734
  26242245.15647                  20463448.64644                  23276479.6334
  23276479.4804   24867501.07847  19392503.96446  21192885.4454   21192883.1884
  32576376.39147  25399412.07045  22180238.6884                   22180236.6414
  40936561.57047  31915247.92045  23280454.9144                   23280453.7854
 11  7 25  1 36 30.0000000  0  8G02G17G09G04G27G10G12G05
  18683930.33248  14575181.35146  20704652.5004                   20704648.5784
  13937801.78147  10877083.24445  22630458.6174                   22630456.2074
  32659487.97746                  25464549.03645  22915823.9614   22915823.0664
  13901331.28948  10849961.54146  20810066.3914                   20810064.6764
  26262357.33246                  20479120.41544                  23280306.2814
  23280307.2584   24788686.75448  19331090.23646  21177887.6174   21177885.5004
  32461082.21147  25309572.49345  22158298.9224                   22158296.5474
  40796212.68447  31805885.30945  23253745.9694                   23253746.3914
 11  7 25  1 37  0.0000000  0  8G02G17G09G04G27G10G12G05
  18626536.01248  14530458.53147  20693731.0784                   20693726.4264
  13949458.56347  10886166.47845  22632677.0394                   22632675.0314
  32689009.09046                  25487552.45445  22921441.5784   22921441.4224
  13927622.35548  10870448.07546  20815069.1724                   20815067.7504
  26282696.61347                  20494969.15144                  23284177.1804
  23284177.5164   24710420.06648  19270103.25146  21162993.7974   21162992.1764
  32346080.69547  25219960.95045  22136414.9534                   22136412.6024
  40655972.27347  31696607.22245  23227059.7194                   23227059.7034
 11  7 25  1 37 30.0000000  0  8G02G17G09G04G27G10G12G05
  18569489.91048  14486007.04847  20682875.0864                   20682871.0514
  13961238.08247  10895345.32645  22634918.2814                   22634915.5594
  32718886.01247                  25510833.12645  22927127.5164   22927126.5864
  13954199.87548  10891157.80146  20820126.9694                   20820125.0664
  26303258.72347                  20510991.52344                  23288090.2424
  23288090.4414   24632701.63748  19209543.46846  21148204.3594   21148202.4454
  32231372.87948  25130578.26645  22114586.6254                   22114584.6644
  40515841.21947  31587414.31545  23200393.5394                   23200393.2894
 11  7 25  1 38  0.0000000  0  8G02G17G09G04G27G10G12G05
  18512789.23848  14441824.73646  20672085.4144                   20672081.2934
  13973138.11347  10904618.05445  22637182.6724                   22637180.8164
  32749112.77746                  25534386.41845  22932879.1254   22932878.8524
  13981059.12148  10912087.06646  20825238.0004                   20825236.5314
  26324038.39147                  20527183.40944                  23292044.4064
  23292045.0634   24555531.20748  19149410.70746  21133519.5164   21133517.3324
  32116958.49648  25041424.24646  22092814.3364                   22092812.1024
  40375819.78947  31478306.82345  23173748.3834                   23173747.7774
 11  7 25  1 38 30.0000000  0  8G02G17G09G04G27G10G12G05
  18456436.23448  14397913.33346  20661361.6254                   20661357.7304
  13985162.29747  10913987.55745  22639470.9694                   22639469.2934
  32779689.21946                  25558212.18145  22938697.1564   22938697.4574
  14008200.80148  10933236.41646  20830402.9454                   20830401.3524
  26345035.96547                  20543545.07144                  23296040.5164
  23296040.5554   24478913.85548  19089708.92246  21118939.4384   21118937.9264
  32002843.31347  24952503.38746  22071098.7584                   22071096.7384
  40235914.33247  31369289.74145  23147125.1414                   23147123.5164
 11  7 25  1 39  0.0000000  0  8G02G17G09G04G27G10G12G05
  18400435.04348  14354276.06046  20650705.1254                   20650701.0474
  13997316.25047  10923458.15245  22641783.6954                   22641781.4844
  32810616.75846                  25582311.48245  22944582.5704   22944582.8954
  14035627.30548  10954607.69946  20835622.1024                   20835620.2304
  26366253.66847                  20560078.29344                  23300077.8204
  23300078.0784   24402856.44548  19030443.43646  21104466.2274   21104464.0514
  31889034.97747  24863821.59846  22049442.2814                   22049439.3834
  40096132.54747  31260368.97345  23120525.1254                   23120525.1994
 11  7 25  1 39 30.0000000  0  8G02G17G09G04G27G10G12G05
  18344780.32048  14310908.77646  20640114.3524                   20640110.2304
  14009595.89847  10933026.68745  22644120.8364                   22644118.5474
  32841887.60246                  25606678.33445  22950533.5864   22950533.0594
  14063331.93848  10976195.72146  20840894.2034                   20840892.5044
  26387684.53947                  20576777.58444                  23304155.6564
  23304156.5044   24327356.30148  18971612.20046  21090099.0164   21090097.3284
  31775531.41847  24775377.31646  22027842.8834                   22027840.5164
  39956473.23847  31151543.66445  23093948.9224                   23093948.5164
 11  7 25  1 40  0.0000000  0  8G02G17G09G04G27G10G12G05
  18289470.46148  14267810.20046  20629589.4924                   20629585.1414
  14022000.20747  10942692.37945  22646481.0004                   22646479.5124
  32873496.98447                  25631309.00145  22956549.1804   22956548.8014
  14091310.82048  10997997.44946  20846218.3134                   20846216.4494
  26409324.11747                  20593639.48944                  23308273.7504
  23308274.5514   24252414.07448  18913215.67946  21075837.9534   21075836.3244
  31662333.55548  24687171.23346  22006302.0634                   22006299.6914
  39816937.45747  31042814.60745  23067396.0084                   23067394.8794
 11  7 25  1 40 30.0000000  0  8G02G17G09G04G27G10G12G05
  18234509.55548  14224983.53147  20619130.5474                   20619125.9224
  14034534.77747  10952459.57845  22648866.4454                   22648863.9454
  32905446.52047                  25656204.70444  22962628.9844   22962628.6844
  14119566.80148  11020015.08746  20851595.5164                   20851593.3714
  26431174.80147                  20610665.94944                  23312432.3914
  23312431.7034   24178036.74248  18855259.34646  21061684.6174   21061682.4694
  31549449.15647  24599209.41046  21984820.7894                   21984818.3014
  39677533.27747  30934188.06845  23040868.4304                   23040867.0474
 11  7 25  1 41  0.0000000  0  8G02G17G09G04G27G10G12G05
  18179894.51248  14182426.37346  20608737.5944                   20608733.5784
  14047197.54347  10962326.62245  22651275.9774                   22651274.4654
  32937730.66847                  25681361.15644  22968772.6644   22968771.8984
  14148095.02348  11042244.86546  20857024.1804                   20857022.6454
  26453231.50047                  20627852.88644                  23316629.3444
  23316629.1954   24104223.81648  18797742.80546  21047638.2034   21047636.5904
  31436878.48048  24511492.03446  21963399.4614                   21963396.8674
  39538261.63347  30825664.83745  23014365.1884                   23014364.7304
 11  7 25  1 41 30.0000000  0  8G02G17G09G04G27G10G12G05
  18125626.23848  14140139.42047  20598410.6094                   20598406.4304
  14059990.56347  10972295.20345  22653710.5004                   22653709.1254
  32970347.34046                  25706776.72145  22974978.6724   22974978.4024
  14176894.64548  11064686.12946  20862504.5004                   20862502.3404
  26475492.96547                  20645199.44944                  23320865.7344
  23320866.0434   24030978.31348  18740668.41646  21033700.0944   21033698.1564
  31324625.32847  24424022.10246  21942038.1254                   21942035.6804
  39399126.27747  30717247.80645  22987888.4774                   22987888.2034
 11  7 25  1 42  0.0000000  0  8G02G17G09G04G27G10G12G05
  18071700.42648  14098119.32746  20588149.2344                   20588144.7114
  14072911.36747  10982363.32045  22656169.2734                   22656167.4414
  33003290.38747                  25732446.58945  22981247.4614   22981247.4574
  14205959.97348  11087334.42946  20868035.2344                   20868033.6024
  26497953.39547                  20662701.01044                  23325139.0164
  23325140.1724   23958299.46948  18684035.58046  21019869.6254   21019867.8204
  31212689.18447  24336799.16846  21920737.7274                   21920734.9574
  39260127.34847  30608937.08545  22961438.3054                   22961437.7734
 11  7 25  1 42 30.0000000  0  8G02G17G09G04G27G10G12G05
  18018122.37148  14056370.20346  20577953.3674                   20577949.2624
  14085966.09447  10992535.81545  22658653.2274                   22658651.1524
  33036561.97747                  25758372.46544  22987579.3284   22987578.6374
  14235294.77048  11110192.72046  20873617.5944                   20873615.6914
  26520615.84846                  20680359.91844                  23329451.9774
  23329452.7234   23886194.61348  18627850.01346  21006148.5784   21006146.7544
  31101078.22747  24249829.64246  21899498.6724                   21899496.8244
  39121273.62147  30500739.46345  22935015.2734                   22935014.2624
 11  7 25  1 43  0.0000000  0  8G02G17G09G04G27G10G12G05
  17964882.48048  14014884.60146  20567822.4064                   20567818.0314
  14099146.58247  11002806.30845  22661161.6094                   22661159.7074
  33070150.35946                  25784545.19344  22993971.5634   22993970.5704
  14264888.14148  11133252.47746  20879248.8204                   20879247.3324
  26543468.94947                  20698167.48444                  23333801.3834
  23333801.1994   23814657.25448  18572106.65646  20992535.6094   20992533.6524
  30989786.48847  24163108.85246  21878320.1804                   21878318.3404
  38982559.37547  30392650.54545  22908619.1254                   22908618.2034
 11  7 25  1 43 30.0000000  0  8G02G17G09G04G27G10G12G05
  17911983.96948  13973665.00246  20557755.9144                   20557751.6564
  14112456.84447  11013177.93345  22663694.4454                   22663692.5984
  33104055.50446                  25810964.73244  23000422.9384   23000422.2664
  14294740.90648  11156514.37446  20884929.9454                   20884927.7584
  26566513.27746                  20716124.01544                  23338186.3834
  23338186.5744   23743692.48448  18516809.46546  20979031.1174   20979029.5594
  30878819.79747  24076641.35046  21857203.8834                   21857202.2114
  38843990.94147  30284675.27745  22882249.9064                   22882249.5514
 11  7 25  1 44  0.0000000  0  8G02G17G09G04G27G10G12G05
  17859428.18848  13932712.45846  20547754.8754                   20547750.4654
  14125899.79747  11023652.95245  22666252.7114                   22666251.1954
  33138276.25047                  25837630.26344  23006935.0394   23006934.0394
  14324853.04748  11179978.36146  20890659.9064                   20890658.2704
  26589748.76646                  20734229.49644                  23342607.8524
  23342608.5824   23673304.31348  18461961.57546  20965636.7734   20965635.0314
  30768183.19947  23990431.06746  21836150.8984                   21836148.2464
  38705573.51647  30176817.65245  22855910.3524                   22855909.4184
 11  7 25  1 44 30.0000000  0  8G02G17G09G04G27G10G12G05
  17807213.02748  13892025.34146  20537818.5234                   20537814.5084
  14139474.61747  11034230.72445  22668835.2584                   22668834.1724
  33172808.19547                  25864538.22544  23013506.1024   23013505.4924
  14355221.30148  11203641.92946  20896439.0944                   20896437.5084
  26613171.07047                  20752480.53944                  23347065.7034
  23347065.9804   23603493.35248  18407563.45646  20952352.1954   20952350.0944
  30657878.11747  23904479.07646  21815160.1804                   21815158.2074
  38567308.89547  30069079.11645  22829599.0554                   22829598.5594
 11  7 25  1 45  0.0000000  0  8G02G17G09G04G27G10G12G05
  17755340.42248  13851605.13647  20527947.8444                   20527943.2114
  14153184.46947  11044913.71145  22671444.8594                   22671443.2304
  33207650.46146                  25891687.99544  23020136.3754   23020135.6484
  14385845.77748  11227505.14246  20902266.3204                   20902264.8914
  26636780.04347                  20770877.12444                  23351558.4224
  23351557.7384   23534263.68848  18353618.31246  20939178.1884   20939175.9734
  30547909.05947  23818788.94946  21794233.3364                   21794231.1294
  38429202.71547  29961464.01145  22803318.4774                   22803316.8364
 11  7 25  1 45 30.0000000  0  8G02G17G09G04G27G10G12G05
  17703803.44148  13811446.47347  20518140.3594                   20518136.0634
  14167023.96147  11055697.73645  22674078.2034                   22674076.3984
  33242793.69546                  25919072.27744  23026823.8134   23026823.4774
  14416718.10248  11251561.50046  20908141.1884                   20908139.5084
  26660567.00446                  20789412.37944                  23356083.8364
  23356084.8014   23465611.35948  18300123.04346  20926113.8984   20926111.6994
  30438273.28547  23733358.50446  21773370.5634                   21773368.3524
  38291251.80547  29853969.92045  22777066.9144                   22777066.1764
 11  7 25  1 46  0.0000000  0  8G02G17G09G04G27G10G12G05
  17652604.57448  13771551.26047  20508397.8284                   20508393.5124
  14180996.51647  11066585.41545  22676737.0784                   22676735.6764
  33278237.57446                  25946690.83044  23033568.3834   23033567.8834
  14447839.28948  11275811.76346  20914063.6724                   20914061.8204
  26684532.29747                  20808086.58544                  23360645.2114
  23360646.1134   23397540.95348  18247081.21046  20913160.5394   20913158.5904
  30328976.18847  23648191.97946  21752572.0234                   21752569.7074
  38153462.44547  29746601.70645  22750845.8284                   22750845.6454
 11  7 25  1 46 30.0000000  0  8G02G17G09G04G27G10G12G05
  17601742.41048  13731918.41747  20498718.8444                   20498714.5554
  14195102.25847  11077576.91145  22679421.9924                   22679419.7344
  33313977.88346                  25974540.36244  23040369.1644   23040369.3554
  14479206.33648  11300253.62146  20920032.6024                   20920030.5124
  26708672.63747                  20826897.19544                  23365239.2114
  23365239.3874   23330053.67648  18194493.77346  20900318.2344   20900316.4844
  30220019.73447  23563290.87646  21731838.0944                   21731835.7194
  38015837.03147  29639361.22945  22724657.2974                   22724656.2114
 11  7 25  1 47  0.0000000  0  8G02G17G09G04G27G10G12G05
  17551217.67647  13692548.50946  20489104.5004                   20489099.9344
  14209343.12947  11088673.66645  22682131.5554                   22682128.8954
  33350013.09846                  26002619.63844  23047227.2894   23047226.7624
  14510818.64147  11324886.58846  20926048.1254                   20926046.5204
  26732986.89546                  20845843.33744                  23369865.6334
  23369866.0434   23263152.84047  18142363.29546  20887587.4614   20887585.0124
  30111407.86747  23478658.30146  21711169.9844                   21711167.9264
  37878379.91847  29532251.91145  22698499.6954                   22698498.5124
 11  7 25  1 47 30.0000000  0  8G02G17G09G04G27G10G12G05
  17501034.29348  13653444.58147  20479554.6094                   20479550.0314
  14223724.85947  11099880.21745  22684868.3134                   22684866.6684
  33386344.26246                  26030929.59944  23054140.7664   23054140.9774
  14542678.57448  11349712.50546  20932110.9454                   20932109.0554
  26757477.10546                  20864926.58744                  23374525.9304
  23374526.8554   23196844.69548  18090694.65646  20874969.5944   20874967.4774
  30003147.87147  23394299.88746  21690569.2894                   21690566.7504
  37741098.92647  29425279.79245  22672375.8754                   22672375.2234
 11  7 25  1 48  0.0000000  0  8G02G17G09G04G27G10G12G05
  17451186.78948  13614602.38346  20470068.9694                   20470065.1884
  14238242.39547  11111192.57445  22687630.9064                   22687628.9534
  33422963.37146                  26059463.87144  23061108.9144   23061108.8594
  14574779.09848  11374725.89146  20938219.6644                   20938217.6764
  26782135.65246                  20884140.98444                  23379218.1414
  23379219.4414   23131125.91847  18039485.26446  20862463.5554   20862461.4384
  29895237.37147  23310213.81446  21670034.2344                   21670031.9884
  37603991.99647  29318443.34145  22646284.5004                   22646284.1684
 11  7 25  1 48 30.0000000  0  8G02G17G09G04G27G10G12G05
  18977097.08248  14803623.39947  20760440.1094                   20760436.0634
  15828317.08247  12350211.80345  22990211.6094                   22990209.9884
  35035287.31346                  27315820.15444  23367924.2734   23367924.1994
  16182538.01248  12627525.05746  21244165.6954                   21244164.1564
  28382380.28946                  22131084.81644                  23683735.3594
  23683735.6524   24641421.38748  19216338.92646  21149863.1484   21149860.6214
  31363104.30547  24454006.26646  21949359.9144                   21949357.6604
  39042488.16447  30439349.56145  22920022.2424                   22920020.7384
 11  7 25  1 49  0.0000000  0  8G02G17G09G04G27G10G12G05
  18927917.69548  14765301.81547  20751081.4924                   20751077.2464
  15843107.31347  12361736.66745  22993026.3204                   22993024.6954
  35072471.54346                  27344794.79944  23375000.5784   23375001.1724
  16215111.87548  12652907.29946  21250364.3054                   21250362.3674
  28407366.50446                  22150554.51044                  23688489.8834
  23688490.2234   24576884.84448  19166050.74046  21137581.9064   21137580.7734
  31255900.30147  24370470.71346  21928959.9924                   21928957.1524
  38905737.89547  30332791.01445  22893999.5234                   22893998.2344
 11  7 25  1 49 30.0000000  0  8G02G17G09G04G27G10G12G05
  18879069.88348  14727238.59947  20741786.3364                   20741781.5904
  15858033.56347  12373367.51645  22995866.8054                   22995865.1884
  35109931.70746                  27373984.44544  23382128.7114   23382128.9144
  16247917.79348  12678470.37046  21256607.0314                   21256605.5904
  28432511.06646                  22170147.67444                  23693274.6954
  23693274.7034   24512940.71948  19116224.19446  21125414.0944   21125411.4414
  31149051.44147  24287211.91046  21908626.8364                   21908624.5664
  38769169.00447  30226373.79045  22868010.9844                   22868009.4804
 11  7 25  1 50  0.0000000  0  8G02G17G09G04G27G10G12G05
  18830550.90648  14689431.61447  20732553.1954                   20732548.8244
  15873094.48047  12385103.28145  22998732.5234                   22998730.7304
  35147662.62547                  27403385.10044  23389309.1334   23389309.1024
  16280951.74248  12704211.10846  21262893.1254                   21262891.4104
  28457809.44946                  22189860.69544                  23698088.3914
  23698089.4614   24449588.55948  19066858.90646  21113358.7504   21113356.5984
  31042558.99648  24204230.82646  21888362.1094                   21888360.1484
  38632782.86747  30120098.99945  22842057.2664                   22842055.9224
 11  7 25  1 50 30.0000000  0  8G02G17G09G04G27G10G12G05
  18782362.76248  14651882.42047  20723383.4144                   20723379.4024
  15888293.02047  12396946.29045  23001624.7664                   23001623.2704
  35185663.54746                  27432996.13144  23396540.3054   23396540.2704
  16314214.06348  12730129.81646  21269222.5704                   21269221.2384
  28483261.40246                  22209693.33444                  23702932.2424
  23702932.1524   24386832.55548  19017958.18246  21101416.3134   21101414.3164
  30936427.70347  24121531.16246  21868166.0474                   21868163.6724
  38496585.11747  30013970.98945  22816139.7894                   22816138.9654
 11  7 25  1 51  0.0000000  0  8G02G17G09G04G27G10G12G05
  18734504.03548  14614589.92347  20714276.2584                   20714271.7114
  15903629.46947  12408896.75545  23004543.6484                   23004541.9804
  35223930.46946                  27462814.48644  23403822.1414   23403822.8674
  16347701.82848  12756224.18546  21275595.4844                   21275593.9104
  28508863.64846                  22229643.06444                  23707803.7274
  23707805.2274   24324673.80948  18969522.81546  21089588.2424   21089585.7114
  30830659.74247  24039114.61146  21848039.2664                   21848036.8134
  38360577.83647  29907991.39545  22790258.3674                   22790256.9694
 11  7 25  1 51 30.0000000  0  8G02G17G09G04G27G10G12G05
  18686974.59048  14577554.00546  20705231.4534                   20705226.7974
  15919105.07047  12420955.64945  23007488.1884                   23007486.5554
  35262460.71546                  27492837.98444  23411154.5234   23411154.1254
  16381413.80548  12782493.27146  21282010.3914                   21282008.7274
  28534614.33246                  22249708.51143                  23712704.1094
  23712704.8324   24263114.33248  18921554.41946  21077873.5944   21077871.3054
  30725258.43048  23956983.76646  21827981.9534                   21827979.5904
  38224764.86747  29802163.21745  22764413.3674                   22764412.9414
 11  7 25  1 52  0.0000000  0  8G02G17G09G04G27G10G12G05
  18639772.51648  14540773.16747  20696249.2894                   20696244.9844
  15934719.43847  12433122.69945  23010460.2814                   23010457.7894
  35301250.14146                  27523063.45044  23418535.6954   23418535.5394
  16415346.70348  12808934.49446  21288467.7974                   21288465.9264
  28560509.58246                  22269886.58844                  23717632.0084
  23717632.2234   24202154.28148  18874053.11446  21066273.1564   21066271.1414
  30620225.43847  23875139.92146  21807994.9144                   21807992.1094
  38089148.44947  29696488.17945  22738607.3524                   22738605.2234
 11  7 25  1 52 30.0000000  0  8G02G17G09G04G27G10G12G05
  18592898.25048  14504247.78746  20687329.5084                   20687324.9384
  15950474.11347  12445399.09145  23013457.3594                   23013455.6334
  35340296.32846                  27553489.00644  23425966.0164   23425965.7854
  16449499.67248  12835547.19646  21294966.9144                   21294965.3244
  28586548.10946                  22290176.31144                  23722586.7504
  23722587.5824   24141796.25848  18827020.92346  21054787.4224   21054784.8284
  30515564.28947  23793585.82046  21788078.0704                   21788075.9454
  37953732.78147  29590969.58445  22712837.5864                   22712837.0394
 11  7 25  1 53  0.0000000  0  8G02G17G09G04G27G10G12G05
  18546352.47748  14467978.36047  20678472.0394                   20678467.8874
  15966371.15247  12457786.37545  23016482.7814                   23016481.0744
  35379597.48846                  27584113.24243  23433444.7584   23433444.9694
  16483871.76248  12862330.64546  21301507.6724                   21301505.7584
  28612728.44546                  22310576.51744                  23727569.1254
  23727569.5434   24082043.03148  18780459.98446  21043416.7344   21043414.6844
  30411278.62547  23712324.30646  21768233.2974                   21768230.7664
  37818522.08247  29485610.71245  22687108.5394                   22687107.0124
 11  7 25  1 53 30.0000000  0  8G02G17G09G04G27G10G12G05
  18500127.71548  14431959.08347  20669675.8674                   20669671.5314
  15982404.84847  12470280.19244  23019533.4064                   23019531.2854
  35419144.12546                  27614928.79743  23440970.7424   23440971.0354
  16518454.57848  12889278.28646  21308088.9064                   21308086.5984
  28639041.59047                  22331080.16844                  23732576.4614
  23732576.6454   24022890.00848  18734366.75146  21032160.2504   21032157.8094
  30307365.25048  23631352.88946  21748459.1254                   21748456.6214
  37683513.41847  29380409.25445  22661416.8284                   22661415.8134
 11  7 25  1 54  0.0000000  0  8G02G17G09G04G27G10G12G05
  18454232.37148  14396196.51346  20660942.1334                   20660937.8244
  15998584.94147  12482888.03545  23022613.0554                   23022611.0164
  35458941.50446                  27645939.78943  23448542.9064   23448542.6724
  16553254.83648  12916395.35046  21314710.8914                   21314709.0594
  28665493.69947                  22351692.14344                  23737609.8984
  23737610.8954   23964347.27748  18688749.06046  21021019.7584   21021017.6884
  30203835.27348  23550680.23646  21728758.2664                   21728755.3714
  37548718.42647  29275374.30145  22635765.9924                   22635764.9884
 11  7 25  1 54 30.0000000  0  8G02G17G09G04G27G10G12G05
  18408661.68448  14360686.89546  20652270.5314                   20652265.9844
  16014907.65647  12495607.01145  23025718.7974                   23025716.3284
  35498982.28546                  27677140.35643  23456163.6804   23456162.0234
  16588266.51648  12943677.17146  21321373.1804                   21321371.6374
  28692077.94947                  22372407.03044                  23742668.6484
  23742668.8984   23906411.94148  18643604.68746  21009995.2424   21009992.9264
  30100687.05147  23470305.03246  21709129.6954                   21709127.1294
  37414136.21147  29170505.12545  22610156.4384                   22610154.6334
 11  7 25  1 55  0.0000000  0  8G02G17G09G04G27G10G12G05
  18363414.29348  14325429.20946  20643660.1724                   20643655.5274
  16031373.28147  12508437.38345  23028851.9614                   23028850.1884
  35539262.85246                  27708527.86243  23463827.8204   23463827.6644
  16623486.98048  12971121.67946  21328075.3834                   21328074.1214
  28718791.17646                  22393222.52143                  23747752.1334
  23747751.9414   23849084.90248  18598934.30146  20999086.1334   20999083.6564
  29997922.98447  23390229.17246  21689574.5004                   21689571.9774
  37279769.50047  29065803.88545  22584586.6484                   22584585.1844
 11  7 25  1 55 30.0000000  0  8G02G17G09G04G27G10G12G05
  18318488.79748  14290422.36247  20635111.0004                   20635106.2304
  16047981.70346  12521379.04644  23032012.6724                   23032010.8874
  35579779.40646                  27740099.12243  23471537.9384   23471537.3834
  16658913.64148  12998726.85346  21334816.9774                   21334815.0434
  28745630.62546                  22414136.29643                  23752859.5234
  23752860.6254   23792367.18048  18554738.69746  20988293.2664   20988291.2504
  29895545.15647  23310454.28446  21670092.5164                   21670089.8594
  37145620.87147  28961272.57845  22559058.7664                   22559057.7544
 11  7 25  1 56  0.0000000  0  8G02G17G09G04G27G10G12G05
  18273886.60548  14255667.43646  20626623.3284                   20626619.3484
  16064736.17646  12534434.46345  23035200.7424                   23035199.0784
  35620530.64546                  27771853.34043  23479292.8754   23479293.0394
  16694546.57047  13026492.75146  21341597.4304                   21341595.7114
  28772595.56347                  22435147.80843                  23757991.0554
  23757991.3324   23736262.06348  18511020.46346  20977616.8594   20977614.1484
  29793558.38347  23230984.09846  21650684.8984                   21650682.5004
  37011695.52747  28856915.24545  22533573.6094                   22533572.2584
 11  7 25  1 56 30.0000000  0  8G02G17G09G04G27G10G12G05
  18229602.26248  14221160.18547  20618196.3594                   20618191.7234
  16081632.13746  12547600.14545  23038416.1564                   23038413.9184
  35661508.32446                  27803784.00443  23487091.2114   23487090.3524
  16730379.07047  13054414.14646  21348416.6724                   21348414.5434
  28799678.61747                  22456251.43044                  23763144.5004
  23763145.5084   23680766.05947  18467776.87046  20967056.3594   20967053.9024
  29691960.57048  23151816.99846  21631351.4534                   21631349.0944
  36877991.68447  28752730.50745  22508130.7664                   22508129.3324
 11  7 25  1 57  0.0000000  0  8G02G17G09G04G27G10G12G05
  18185637.19148  14186901.71547  20609829.9614                   20609825.5474
  16098672.92646  12560878.68045  23041658.7734                   23041656.6724
  35702711.74646                  27835890.54443  23494931.8594   23494931.7814
  16766411.35947  13082491.24246  21355273.3134                   21355271.5784
  28826879.73447                  22477447.00344                  23768321.3364
  23768321.8134   23625882.56648  18425010.53346  20956612.3054   20956609.7774
  29590756.27348  23072956.54846  21612092.8054                   21612090.5904
  36744515.04747  28648722.81245  22482730.7664                   22482729.2154
 11  7 25  1 57 30.0000000  0  8G02G17G09G04G27G10G12G05
  18141988.12148  14152889.49047  20601523.8134                   20601519.3444
  16115856.66447  12574268.63345  23044928.5234                   23044927.1994
  35744135.16446                  27868168.51544  23502814.3204   23502814.6414
  16802639.14848  13110720.66746  21362166.9534                   21362165.3324
  28854193.87546                  22498730.65844                  23773518.8914
  23773520.1644   23571610.75848  18382720.87146  20946284.2034   20946282.5274
  29489945.64548  22994402.82946  21592909.1954                   21592906.7544
  36611266.09847  28544892.52345  22457374.6254                   22457372.9804
 11  7 25  1 58  0.0000000  0  8G02G17G09G04G27G10G12G05
  18098660.04748  14119127.39047  20593278.6644                   20593274.1524
  16133189.44547  12587774.69345  23048227.4924                   23048225.4844
  35785780.73846                  27900619.59344  23510739.1804   23510738.1414
  16839066.08648  13139105.28646  21369098.9774                   21369096.7664
  28881623.62946                  22520104.36044                  23778738.2894
  23778739.5664   23517957.28548  18340913.00346  20936074.5864   20936071.8054
  29389537.01248  22916162.35246  21573802.2344                   21573799.7584
  36478253.64547  28441246.54345  22432063.2114                   22432061.1604
 11  7 25  1 58 30.0000000  0  8G02G17G09G04G27G10G12G05
  18055649.06348  14085612.37147  20585094.1414                   20585089.1994
  16150669.12546  12601395.23445  23051553.3754                   23051551.7704
  35827642.68846                  27933239.25844  23518705.1094   23518705.0784
  16875686.97748  13167641.03646  21376067.7344                   21376065.9184
  28909163.56346                  22541563.98144                  23783979.4924
  23783980.3054   23464920.32848  18299585.54846  20925982.2664   20925979.9694
  29289529.94948  22838234.78046  21554771.4064                   21554768.5904
  36345478.03147  28337785.09345  22406796.5474                   22406794.8954
 11  7 25  1 59  0.0000000  0  8G02G17G09G04G27G10G12G05
  18012953.77348  14052343.35247  20576969.0784                   20576965.1214
  16168295.67647  12615130.21045  23054908.0784                   23054906.0704
  35869716.74246                  27966024.21644  23526711.2814   23526711.8444
  16912499.11747  13196325.82746  21383072.9694                   21383070.8054
  28936810.35546                  22563106.85844                  23789240.5784
  23789241.7424   23412500.53148  18258738.98746  20916006.8914   20916004.2464
  29189926.32448  22760621.56346  21535817.4774                   21535814.7234
  36212941.30947  28234509.79146  22381575.2114                   22381573.7734
 11  7 25  1 59 30.0000000  0  8G02G17G09G04G27G10G12G05
  17970578.05548  14019323.34847  20568905.4224                   20568901.3054
  16186074.09447  12628983.53945  23058290.4534                   23058288.7704
  35912003.97747                  27998975.28144  23534758.5004   23534758.2704
  16949505.07848  13225161.61946  21390114.5004                   21390113.3134
  28964565.69947                  22584734.29944                  23794521.7664
  23794523.2344   23360703.21148  18218377.49246  20906149.8984   20906147.6884
  29090733.16048  22683328.18646  21516941.7424                   21516939.4144
  36080651.14847  28131426.63945  22356401.6414                   22356399.5594
 11  7 25  2  0  0.0000000  0  9G02G17G25G09G04G27G10G12G05
  17928510.41048  13986543.38647  20560900.2664                   20560895.9304
  16203994.98847  12642947.87145  23061701.2034                   23061699.3204
  50181845.55947  39118794.22744  24326624.3674                   24326625.8134
  35954491.09047                  28032082.06444  23542843.7344   23542844.0004
  16986692.79347  13254139.05146  21397191.5234                   21397189.5084
  28992417.35546                  22606436.80743                  23799821.8054
  23799823.4454   23309519.49648  18178494.11746  20896409.7504   20896407.5784
  28991942.80148  22606348.68746  21498142.3054                   21498139.8524
  35948600.78547  28028530.30445  22331273.1024                   22331271.5354
 11  7 25  2  0 30.0000000  0  9G02G17G25G09G04G27G10G12G05
  17886744.07448  13953998.22346  20552952.4614                   20552947.7384
  16222052.77347  12657018.89645  23065137.0234                   23065134.9024
  50044467.17247  39011746.01744  24300482.5634                   24300484.1254
  35997168.49246                  28065337.12244  23550964.9064   23550965.2344
  17024054.16448  13283251.78046  21404301.1094                   21404299.2584
  29020356.31946                  22628207.33243                  23805138.7974
  23805139.7424   23258944.41048  18139084.99546  20886785.6724   20886783.5784
  28893551.73048  22529680.32846  21479419.1954                   21479416.7894
  35816787.12547  27925818.44746  22306189.7034                   22306188.4024
 11  7 25  2  1  0.0000000  0  9G02G17G25G09G04G27G10G12G05
  17845276.38348  13921685.76447  20545061.3594                   20545056.8754
  16240246.20747  12671195.59845  23068599.2974                   23068597.8484
  49907223.47747  38904802.73744  24274365.9534                   24274368.0864
  36040031.16447                  28098736.53744  23559121.3444   23559121.7074
  17061585.16048  13312496.71946  21411443.0864                   21411441.2774
  29048377.87546                  22650042.17343                  23810471.7274
  23810472.1764   23208976.59848  18100149.07246  20877277.5704   20877274.9494
  28795560.57048  22453323.56246  21460772.0784                   21460769.3794
  35685211.07847  27823291.72646  22281151.8364                   22281150.3874
 11  7 25  2  1 30.0000000  0  9G02G17G25G09G04G27G10G12G05
  17804111.65248  13889609.38046  20537227.9224                   20537223.6804
  16258581.22347  12685482.63745  23072088.1254                   23072087.3364
  49770122.22346  38797970.54244  24248276.1724                   24248278.6174
  36083080.94547                  28132281.71444  23567313.6024   23567313.9614
  17099289.17248  13341876.44546  21418618.0704                   21418616.3834
  29076484.65646                  22671943.49943                  23815819.6414
  23815820.6844   23159622.29348  18061691.21246  20867885.3284   20867883.0084
  28697976.79348  22377284.25746  21442202.5944                   21442199.7734
  35553881.00447  27720956.68146  22256160.6724                   22256158.6174
 11  7 25  2  2  0.0000000  0  9G02G17G25G09G04G27G10G12G05
  17763251.59048  13857770.39247  20529452.5164                   20529447.9224
  16277060.59447  12699882.15045  23075604.9694                   23075603.4884
  49633168.70746  38691253.50144  24222214.5704                   24222216.7664
  36126317.02747                  28165972.04644  23575541.6094   23575541.2664
  17137166.41048  13371391.21246  21425825.8984                   21425823.6844
  29104676.41047                  22693911.09243                  23821184.9924
  23821185.4304   23110885.12548  18023714.22746  20858611.0004   20858608.5434
  28600805.46547  22301566.34846  21423711.7664                   21423709.2424
  35422802.41847  27618817.60246  22231216.7504                   22231215.8794
 11  7 25  2  2 30.0000000  0  9G02G17G25G09G04G27G10G12G05
  17722701.67648  13826173.07247  20521736.1724                   20521731.6454
  16295691.64547  12714399.84445  23079150.4304                   23079148.5744
  49496372.00046  38584658.62243  24196183.4844                   24196184.7734
  36169742.46147                  28199809.97644  23583805.2274   23583805.1214
  17175221.67248  13401044.66446  21433067.3594                   21433065.3284
  29132956.83247                  22715947.76544                  23826566.4304
  23826567.7074   23062772.48048  17986223.88546  20849455.3834   20849453.2344
  28504055.82448  22226177.01946  21405300.4924                   21405298.2384
  35291985.00447  27516882.04346  22206323.3284                   22206321.6254
 11  7 25  2  3  0.0000000  0  9G02G17G25G09G04G27G10G12G05
  17682458.52348  13794814.78447  20514078.3444                   20514073.7814
  16314472.27746  12729034.12745  23082724.3754                   23082722.1414
  49359732.31346  38478186.20143  24170181.4694                   24170182.3444
  36213351.60946                  28233791.01744  23592103.4774   23592104.0314
  17213450.41448  13430833.32546  21440341.8444                   21440340.2504
  29161320.99247                  22738049.66844                  23831964.1414
  23831964.7384   23015282.64148  17949218.85346  20840418.2894   20840416.1684
  28407727.47348  22151115.98746  21386970.2344                   21386967.4884
  35161429.30147  27415150.40146  22181479.3284                   22181477.3754
 11  7 25  2  3 30.0000000  0  9G02G17G25G09G04G27G10G12G05
  17642521.68048  13763695.16847  20506478.4064                   20506473.7974
  16333403.56347  12743785.78245  23086326.3834                   23086324.8914
  49223252.75046  38371838.54943  24144209.7504                   24144211.2664
  36257141.39847                  28267912.81844  23600436.3204   23600436.4384
  17251850.91448  13460755.79046  21447649.4924                   21447647.7154
  29189766.75847                  22760215.13843                  23837377.4304
  23837377.7624   22968416.94948  17912700.14246  20831499.7894   20831498.0394
  28311823.75048  22076385.83746  21368720.2664                   21368717.7934
  35031138.47347  27313625.16346  22156685.4304                   22156683.5394
 11  7 25  2  4  0.0000000  0  9G02G17G25G09G04G27G10G12G05
  17602894.99648  13732817.23947  20498937.5944                   20498933.4454
  16352491.30546  12758659.34945  23089958.6644                   23089957.5514
  49086940.78546  38265621.55843  24118271.1644                   24118271.5164
  36301113.34046                  28302176.60844  23608803.9694   23608804.3164
  17290426.18848  13490814.47345  21454989.9614                   21454987.8524
  29218296.10946                  22782445.72943                  23842805.9534
  23842806.6954   22922180.84048  17876672.02146  20822702.0234   20822699.4304
  28216351.26248  22001991.71246  21350552.3984                   21350549.9844
  34901120.30947  27212312.40246  22131943.8674                   22131941.8404
 11  7 25  2  4 30.0000000  0  9G02G17G25G09G04G27G10G12G05
  17563573.26648  13702176.95447  20491454.9304                   20491450.3244
  16371731.37947  12773651.62645  23093620.3524                   23093617.9614
  48950794.81346  38159533.84443  24092362.9064                   24092364.0044
  36345259.91847                  28336576.42644  23617205.6804   23617205.3484
  17329169.94548  13521004.41946  21462362.7504                   21462361.0044
  29246901.94146                  22804735.89443                  23848249.7194
  23848250.1844   22876571.05148  17841131.95746  20814022.5634   20814020.3404
  28121308.21948  21927932.23046  21332466.4844                   21332463.4494
  34771374.10947  27111211.54746  22107253.6954                   22107252.1024
 11  7 25  2  5  0.0000000  0  9G02G17G25G09G04G27G10G12G05
  17524554.60948  13671772.80447  20484030.0314                   20484025.4384
  16391123.21546  12788762.14544  23097310.4304                   23097308.5864
  48814816.42647  38053576.72943  24066487.7974                   24066488.1484
  36389576.87947                  28371109.01644  23625638.2974   23625638.5164
  17368079.10548  13551323.26145  21469766.7814                   21469765.0004
  29275580.78546                  22827083.00643                  23853707.0474
  23853707.9344   22831587.06347  17806079.51646  20805462.0784   20805460.0234
  28026696.05148  21854208.49746  21314462.2974                   21314459.6094
  34641901.71947  27010324.04746  22082615.9304                   22082614.6414
 11  7 25  2  5 30.0000000  0  9G02G17G25G09G04G27G10G12G05
  17485838.68848  13641604.56046  20476662.9534                   20476658.6604
  16410667.93446  12803991.79644  23101029.7734                   23101028.1844
  48679008.92247  37947752.82044  24040644.3834                   24040645.4964
  36434061.35246                  28405772.16144  23634103.7274   23634103.2344
  17407152.29748  13581769.91945  21477202.2734                   21477200.4844
  29304330.43446                  22849485.16143                  23859176.8984
  23859178.3524   22787230.16447  17771515.72346  20797021.4694   20797018.9964
  27932517.98848  21780823.03246  21296540.6334                   21296537.9924
  34512706.32847  26909652.41046  22058030.6724                   22058029.4224
 11  7 25  2  6  0.0000000  0  9G02G17G25G09G04G27G10G12G05
  17447424.93048  13611671.77247  20469352.9454                   20469348.2194
  16430366.82846  12819341.60544  23104777.9774                   23104775.6414
  48543375.65647  37842064.60544  24014834.0704                   24014835.1804
  36478710.68047                  28440563.77244  23642600.3594   23642600.1844
  17446388.20748  13612343.36245  21484668.3134                   21484666.5594
  29333148.81346                  22871940.99043                  23864661.3754
  23864662.9804   22743501.96947  17737441.83246  20788700.3054   20788697.9534
  27838776.87548  21707778.06246  21278702.2274                   21278700.0234
  34383791.85947  26809199.64346  22033499.2664                   22033498.0434
 11  7 25  2  6 30.0000000  0  9G02G17G25G09G04G27G10G12G05
  17409314.23448  13581975.12847  20462100.3444                   20462095.9224
  16450222.39846  12834813.45744  23108555.8364                   23108553.8984
  48407920.91047  37736515.58744  23989057.7814                   23989058.9924
  36523523.05947                  28475482.43644  23651127.5084   23651127.2664
  17485786.56348  13643043.37845  21492166.1724                   21492163.5704
  29362034.97346                  22894449.58743                  23870158.9614
  23870159.8984   22700404.44947  17703859.36746  20780499.1804   20780496.5634
  27745476.63348  21635076.60546  21260947.5554                   21260945.3984
  34255162.78947  26708969.27246  22009021.7734                   22009019.7034
 11  7 25  2  7  0.0000000  0  9G02G17G25G09G04G27G10G12G05
  17371504.53948  13552513.04347  20454905.3524                   20454901.1804
  16470233.53546  12850406.57844  23112364.3284                   23112362.4304
  48272646.20347  37631106.83144  23963316.0084                   23963316.2504
  36568494.05147                  28510524.68844  23659684.9924   23659686.1994
  17525344.24248  13673867.55745  21499693.0634                   21499691.3714
  29390984.98446                  22917007.99743                  23875667.9774
  23875668.7234   22657936.78547  17670767.72546  20772417.9534   20772415.3404
  27652618.53548  21562719.69746  21243277.1724                   21243274.8954
  34126820.82447  26608962.61246  21984599.2194                   21984597.7034
 11  7 25  2  7 30.0000000  0  9G02G17G25G09G04G27G10G12G05
  17333993.73848  13523283.85847  20447767.1884                   20447762.9654
  16490400.00046  12866120.69544  23116201.6884                   23116199.0554
  48137553.13347  37525839.57244  23937608.1174                   23937608.7704
  36613619.45747                  28545687.27844  23668272.0234   23668272.7034
  17565058.18448  13704813.47345  21507250.5554                   21507248.5354
  29419995.30146                  22939613.29343                  23881189.5084
  23881189.9574   22616099.18448  17638167.00746  20764456.0554   20764453.7974
  27560203.81348  21490708.27646  21225691.1724                   21225688.7974
  33998768.35947  26509181.53946  21960231.5474                   21960229.5234
 11  7 25  2  8  0.0000000  0  9G02G17G25G09G04G27G10G12G05
  17296778.91848  13494285.30447  20440685.7424                   20440681.2624
  16510720.65646  12881954.96144  23120069.0634                   23120066.1374
  48002642.64547  37420714.61944  23911935.5474                   23911937.0044
  36658894.00047                  28580966.04844  23676888.4144   23676888.7624
  17604924.64548  13735878.25345  21514836.9694                   21514835.1254
  29449061.26246                  22962262.04143                  23886719.4224
  23886720.8444   22574889.90248  17606055.90546  20756614.4774   20756612.1564
  27468232.78148  21419042.58846  21208189.5784                   21208187.1484
  33871006.26247  26409626.73546  21935919.1174                   21935917.3594
 11  7 25  2  8 30.0000000  0  9G02G17G25G09G04G27G10G12G05
  17259861.33248  13465518.38447  20433660.5704                   20433656.1684
  16531197.57446  12897911.02444  23123965.3364                   23123964.1054
  47867919.23047  37315735.40244  23886298.3054                   23886299.7194
  36704315.94947                  28616359.71944  23685531.5634   23685532.2194
  17644943.62148  13767061.84445  21522452.0394                   21522450.1954
  29478182.08646                  22984953.49243                  23892260.5704
  23892262.5044   22534311.53147  17574436.42746  20748892.6334   20748889.9694
  27376709.81648  21347726.02746  21190773.2974                   21190770.8874
  33743539.28147  26310301.87846  21911662.9304                   21911661.3324
 11  7 25  2  9  0.0000000  0  9G02G17G25G09G04G27G10G12G05
  17223242.20748  13436984.01246  20426691.9614                   20426687.2234
  16551833.85546  12913991.23345  23127892.6884                   23127890.2734
  47733388.13347  37210906.02744  23860697.9844                   23860698.5784
  36749884.53147                  28651867.61244  23694203.4384   23694203.4184
  17685115.65248  13798364.69845  21530097.4614                   21530095.1454
  29507357.58646                  23007687.54044                  23897813.0784
  23897814.4064   22494366.71547  17543310.61946  20741291.0314   20741289.0904
  27285639.60248  21276762.26346  21173443.5084                   21173440.6954
  33616372.88747  26211211.23546  21887464.0784                   21887462.3014
 11  7 25  2  9 30.0000000  0  9G02G17G25G09G04G27G10G12G05
  17186921.44548  13408682.14547  20419780.6094                   20419776.4494
  16572630.86346  12930196.70544  23131849.9384                   23131848.4964
  47599052.80146  37106229.22144  23835134.2814                   23835136.4494
  36795597.66446                  28687488.17444  23702902.1254   23702903.4494
  17725439.65648  13829785.97445  21537770.2974                   21537768.1564
  29536585.98846                  23030462.83744                  23903375.3364
  23903376.2274   22455057.17647  17512679.83746  20733811.1174   20733808.7154
  27195025.62148  21206153.99746  21156199.7504                   21156197.2194
  33489510.81647  26112357.74746  21863322.6724                   21863320.8204
 11  7 25  2 10  0.0000000  0  9G02G17G25G09G04G27G10G12G05
  17150890.67648  13380606.23447  20412924.1644                   20412919.2704
  16593582.12146  12946522.37144  23135836.9534                   23135834.7074
  47464908.87547  37001701.54244  23809607.6094                   23809609.1644
  36841444.69946                  28723213.08143  23711626.3134   23711627.1954
  17765906.66848  13861318.69045  21545470.6414                   21545469.0824
  29565857.37546                  23053271.65744                  23908945.2034
  23908946.5784   22416376.06647  17482538.72946  20726450.1024   20726447.3164
  27104862.45348  21135897.01946  21139042.4224                   21139039.9924
  33362948.99647  26013738.20746  21839238.6254                   21839236.9734
 11  7 25  2 10 30.0000000  0  9G02G17G25G09G04G27G10G12G05
  18690575.18848  14580360.43647  20705916.4924                   20705912.0904
  18190112.03546  14190571.67744  23439646.3834                   23439644.5044
  48906388.21547  38124932.25644  24083911.9844                   24083912.9414
  38462845.34446  29986642.08243  24020168.5084   24020168.8094   19381937.93848
  15120563.82045                  21852991.6024                   21852989.6294
  31170592.91047                  24303714.79344  24214316.9924   24214318.0004
  23953749.40247  18680492.01546  21019002.4614   21019000.0824   28590580.03548
  22293599.07446  21421764.8594   21421762.4694
  34812119.19947  27142961.82846  22115006.6564                   22115005.0084
 11  7 25  2 11  0.0000000  0  9G02G17G25G09G04G27G10G12G05
  18655129.69947  14552740.60547  20699171.1414                   20699166.4454
  18211380.46547  14207144.48545  23443694.2424                   23443691.6054
  48772642.78147  38020715.09844  24058460.7424                   24058462.4264
  38508957.57447  30022573.58144  24028943.2194   24028944.9694   19422692.80948
  15152320.84645                  21860746.7584                   21860745.1214
  31199950.02347                  24326590.35544  24219903.2974   24219904.6054
  23916333.34047  18651336.66646  21011882.4614   21011880.1484   28501333.55148
  22224056.39246  21404782.2974   21404779.3954
  34686174.26647  27044822.98446  22091040.1024                   22091038.1254
 11  7 25  2 11 30.0000000  0  9G02G17G25G09G04G27G10G12G05
  18619976.35248  14525348.42947  20692481.4384                   20692476.8284
  18232809.56346  14223842.47545  23447771.9454                   23447769.8094
  48639101.82847  37916657.21444  24033049.1804                   24033050.1214
  38555198.60246  30058605.44644  24037743.5234   24037744.3634   19463589.75048
  15184188.57545                  21868529.1884                   21868527.1054
  31229347.07047                  24349497.03444  24225497.8594   24225498.5274
  23879551.66047  18622675.63846  21004883.3364   21004880.9144   28412549.57848
  22154874.10946  21387886.9614   21387884.4264
  34560543.51647  26946928.96246  22067133.4694                   22067131.3404
 11  7 25  2 12  0.0000000  0  9G02G17G25G09G04G27G10G12G05
  18585111.61348  14498181.13047  20685847.1724                   20685842.5474
  18254397.33647  14240664.17045  23451879.4614                   23451878.0044
  48505765.61747  37812758.90844  24007675.8594                   24007676.9734
  38601563.03146  30094733.53044  24046566.1254   24046566.7504   19504624.65648
  15216163.79545                  21876338.0394                   21876336.3524
  31258779.01246                  24372430.97144  24231097.6804   24231099.2894
  23843402.35248  18594507.37046  20998004.0784   20998001.7544   28324228.05548
  22086052.16646  21371080.0084   21371077.3134
  34435227.16847  26849279.92746  22043286.2814                   22043284.2664
 11  7 25  2 12 30.0000000  0  9G02G17G25G09G04G27G10G12G05
  18550530.72348  14471235.02646  20679266.3284                   20679261.9414
  18276140.37146  14257606.77245  23456017.0474                   23456015.1294
  48372632.94547  37709019.18344  23982341.6024                   23982342.5434
  38648043.44147  30130951.95344  24055411.5004   24055412.0164   19545791.80948
  15248242.07445                  21884172.1334                   21884169.9344
  31288239.28546                  24395386.95843  24236703.9384   24236705.0164
  23807881.40248  18566828.72746  20991244.7734   20991242.1254   28236367.34848
  22017589.29646  21354360.7664   21354357.8204
  34310224.09447  26751874.98446  22019499.0704                   22019497.1414
 11  7 25  2 13  0.0000000  0  9G02G17G25G09G04G27G10G12G05
  18516237.86748  14444513.36546  20672741.0704                   20672736.0664
  18298044.33646  14274674.78945  23460185.3364                   23460183.1334
  48239711.78147  37605444.21744  23957048.1564                   23957049.0744
  38694641.63347  30167262.18744  24064278.7114   24064279.6454   19587094.40248
  15280425.90845                  21892031.8444                   21892029.8634
  31317730.49246                  24418367.07243  24242315.7274   24242318.5124
  23772994.85548  18539644.43946  20984605.6414   20984603.4774   28148974.92248
  21949491.34046  21337730.3054   21337727.4964
  34185542.57047  26654720.62946  21995772.8524                   21995771.2424
 11  7 25  2 13 30.0000000  0  9G02G17G25G09G04G27G10G12G05
  18482232.86748  14418016.00946  20666269.8754                   20666265.0824
  18320110.39146  14291869.12945  23464384.4064                   23464382.3094
  48107005.50447  37502036.71744  23931794.7034                   23931796.5204
  38741354.75447  30203661.92744  24073167.9694   24073167.9804   19628531.33248
  15312714.41745                  21899916.9454                   21899915.0904
  31347250.57846                  24441369.66443  24247933.3364   24247935.4224
  23738742.89148  18512954.59646  20978088.1414   20978085.7854   28062053.47748
  21881760.35246  21321189.7734   21321187.2974
  34061186.16047  26557819.61246  21972108.6334                   21972106.1294
 11  7 25  2 14  0.0000000  0  9G02G17G25G09G04G27G10G12G05
  18448513.84048  14391741.49346  20659853.2814                   20659848.5164
  18342338.32846  14309189.63644  23468613.4694                   23468612.4344
  47974516.26647  37398798.35144  23906582.8984                   23906584.3714
  38788179.23447  30240148.49444  24082078.2424   24082079.1604   19670100.27748
  15345105.81445                  21907827.2424                   21907825.3444
  31376796.51646                  24464392.40743  24253556.5314   24253557.3524
  23705125.43048  18486759.19446  20971690.8364   20971688.1484   27975604.60948
  21814397.63746  21304738.8914   21304736.0744
  33937157.09047  26461173.65346  21948506.6884                   21948504.5944
 11  7 25  2 14 30.0000000  0  9G02G17G25G09G04G27G10G12G05
  18415079.46948  14365688.76247  20653490.8054                   20653486.5004
  18364728.56347  14326636.56345  23472874.7664                   23472873.6054
  47842246.79747  37295731.23744  23881413.3054                   23881414.6524
  38835111.71547  30276719.20044  24091010.0164   24091010.2304   19711799.17648
  15377598.44845                  21915761.8674                   21915760.3754
  31406365.28946                  24487432.93643  24259182.4224   24259184.5084
  23672142.45747  18461058.20246  20965414.2274   20965411.5824   27889630.37148
  21747404.74446  21288378.8054   21288375.7734
  33813458.28947  26364785.02946  21924967.2734                   21924965.3834
 11  7 25  2 15  0.0000000  0  9G02G17G25G09G04G27G10G12G05
  18381927.64148  14339856.20846  20647182.2274                   20647177.4064
  18387280.40246  14344209.44644  23477166.2194                   23477164.1684
  47710198.42647  37192836.38744  23856285.4694                   23856285.6414
  38882147.47346  30313370.36143  24099959.9844   24099959.5124   19753624.78548
  15410189.85845                  21923721.5164                   21923719.1484
  31435952.96546                  24510488.24143  24264813.4224   24264814.8204
  23639792.70747  18435850.61346  20959258.2114   20959255.7154   27804131.63748
  21680782.37846  21272108.7424   21272106.3134
  33690091.50847  26268655.13946  21901491.2974                   21901489.4104
 11  7 25  2 15 30.0000000  0  9G02G17G25G09G04G27G10G12G05
  18349060.14548  14314245.20247  20640927.4304                   20640922.9614
  18409997.13346  14361910.78044  23481489.2114                   23481487.4064
  47578376.70747  37090118.17844  23831200.2974                   23831200.3554
  38929286.38747  30350101.94444  24108930.2974   24108931.1524   19795578.29347
  15442880.92345                  21931704.7664                   21931702.8324
  31465559.58246                  24533558.17642  24270447.6484   24270447.9694
  23608079.14148  18411138.76846  20953223.5864   20953220.9734   27719113.39148
  21614534.42246  21255930.3054   21255927.3444
  33567062.09447  26172788.13046  21878079.8204                   21878077.9064
 11  7 25  2 16  0.0000000  0  9G02G17G25G09G04G27G10G12G05
  18316474.87147  14288854.11246  20634726.9224                   20634722.3444
  18432877.97746  14379740.00644  23485843.3674                   23485841.2774
  47446783.18047  36987577.74944  23806158.4844                   23806158.5084
  38976523.60547  30386910.10043  24117919.6414   24117919.6804   19837656.62148
  15475669.25145                  21939711.9384                   21939710.1884
  31495181.41046                  24556640.00842  24276084.0554   24276085.3954
  23577000.69947  18386921.81246  20947309.5314   20947307.0664   27634576.37548
  21548661.43246  21239843.6884   21239840.9184
  33444371.77747  26077185.35546  21854732.5084                   21854730.1644
 11  7 25  2 16 30.0000000  0  9G02G17G25G09G04G27G10G12G05
  18284169.34448  14263680.99746  20628579.5474                   20628574.5204
  18455922.02046  14397696.40544  23490227.5474                   23490226.9264
  47315419.13347  36885216.23244  23781160.3444                   23781161.8634
  39023854.48447  30423791.27243  24126926.3674   24126925.9184   19879856.47748
  15508552.28745                  21947741.8364                   21947740.4574
  31524814.37546                  24579730.58642  24281722.7974   24281724.2854
  23546556.15648  18363198.80146  20941515.9924   20941513.6254   27550521.44148
  21483164.09646  21223848.2974   21223845.4264
  33322021.94148  25981847.88246  21831450.0084                   21831448.2584
 11  7 25  2 17  0.0000000  0  9G02G17G25G09G04G27G10G12G05
  18252140.85248  14238723.76746  20622484.4844                   20622479.6414
  18479128.08246  14415779.04544  23494644.0864                   23494642.4304
  47184285.80147  36783034.45944  23756206.7194                   23756208.2894
  39071274.09047  30460741.51344  24135950.1884   24135950.5984   19922174.62948
  15541527.47145                  21955794.7274                   21955793.1844
  31554454.49646                  24602826.66543  24287364.4304   24287365.1684
  23516743.82448  18339968.42146  20935842.8204   20935840.5044   27466948.92248
  21418042.66946  21207945.2274   21207942.3524
  33200013.99647  25886776.82246  21808232.4844                   21808230.6334
 11  7 25  2 17 30.0000000  0  8G02G17G25G09G04G10G12G05
  18220388.50848  14213981.69046  20616442.5234                   20616437.5124
  18502496.70346  14433988.36244  23499090.8444                   23499089.6294
  47053386.12547  36681034.78444  23731296.9774                   23731298.0164
  39118779.55546  30497758.67043  24144989.8284   24144990.6094   19964609.60248
  15574593.67945                  21963870.0944                   21963868.0634
  23487563.65648  18317230.65146  20930290.0784   20930287.4924   27383861.19548
  21353298.99646  21192134.0864   21192131.2814
  33078350.89147  25791974.45546  21785081.0394                   21785079.0044
 11  7 25  2 18  0.0000000  0  8G02G17G25G09G04G10G12G05
  18188912.71148  14189455.12347  20610452.7034                   20610448.1294
  18526029.84446  14452325.86744  23503569.9454                   23503567.0864
  46922724.32047  36579220.49544  23706433.3134                   23706434.2734
  39166369.07446  30534841.31943  24154045.0784   24154047.0664   20007160.99648
  15607750.63645                  21971967.7114                   21971965.8134
  23459017.18848  18294986.66446  20924858.0784   20924855.6604   27301261.99248
  21288936.01146  21176415.7734   21176413.3794
  32957036.89847  25697444.16246  21761995.5394                   21761993.1914
 11  7 25  2 18 30.0000000  0  8G02G17G25G09G04G10G12G05
  18157722.87548  14165151.38847  20604517.4534                   20604512.6374
  18549738.33646  14470800.00244  23508081.2734                   23508079.3874
  46792313.23847  36477601.56944  23681616.2114                   23681617.8954
  39214049.57046  30571994.89643  24163118.7734   24163120.6214   20049837.07448
  15641004.74845                  21980088.6094                   21980087.1254
  23431114.34048  18273244.21346  20919547.9384   20919545.6374   27219163.08648
  21224962.86246  21160793.0554   21160789.7074
  32836085.16847  25603196.11146  21738979.0634                   21738977.1564
 11  7 25  2 19  0.0000000  0  8G02G17G25G09G04G10G12G05
  18126823.28948  14141073.80847  20598637.4924                   20598632.5824
  18573628.06346  14489415.36544  23512626.8524                   23512625.4694
  46662161.32447  36376184.63444  23656848.7114                   23656851.0044
  39261823.39546  30609221.15244  24172210.6884   24172211.3714   20092641.93048
  15674359.19145                  21988234.2274                   21988232.0594
  23403860.88748  18252007.77846  20914361.9224   20914359.3364   27137572.36348
  21161385.69946  21145266.6644   21145263.9654
  32715504.14548  25509236.92746  21716033.0234                   21716031.7034
 11  7 25  2 19 30.0000000  0  8G02G17G25G09G04G10G12G05
  18096205.11748  14117215.51046  20592810.6564                   20592806.4304
  18597691.52346  14508166.11744  23517206.0394                   23517204.0824
  46532263.35947  36274965.56044  23632130.3134                   23632131.9064
  39309679.50046  30646511.50743  24181316.8444   24181317.9264   20135565.78147
  15707806.39045                  21996402.2814                   21996400.1054
  23377248.60548  18231270.95246  20909297.9534   20909295.3634   27056484.07448
  21098200.04946  21129836.1024   21129833.2544
  32595288.46148  25415562.45446  21693157.1094                   21693154.5554
 11  7 25  2 20  0.0000000  0  8G02G17G25G09G04G10G12G05
  18065859.94548  14093569.93846  20587036.4304                   20587031.6724
  18621922.03546  14527047.05044  23521817.8204                   23521815.2734
  46402614.77047  36173940.82844  23607459.5394                   23607460.5904
  39357607.41446  30683857.83343  24190437.9694   24190439.1604   20178599.55948
  15741339.21945                  22004591.2504                   22004589.1914
  23351270.05148  18211027.94046  20904354.0944   20904351.5044   26975892.99648
  21035401.83746  21114500.2424   21114497.3524
  32475433.78147  25322169.27246  21670348.8984                   21670347.1994
 11  7 25  2 20 30.0000000  0  8G02G17G25G09G04G10G12G05
  18035784.45748  14070134.51447  20581312.9144                   20581308.5784
  18646317.61347  14546056.59444  23526459.6954                   23526457.1374
  46273216.10547  36073110.83744  23582835.5234                   23582836.0274
  39405601.66046  30721255.86343  24199570.5704   24199571.8404   20221739.34048
  15774954.66745                  22012800.6484                   22012798.2304
  23325922.88348  18191276.91046  20899530.9454   20899528.6334   26895798.34448
  20972990.44546  21099258.2894   21099255.7034
  32355940.44948  25229057.63646  21647610.1414                   21647608.5314
 11  7 25  2 21  0.0000000  0  8G02G17G25G09G04G10G12G05
  18005981.55548  14046911.47246  20575641.6024                   20575637.2934
  18670882.71546  14565198.24444  23531134.0084                   23531132.3284
  46144074.08647  35972480.86444  23558259.7194                   23558261.6484
  39453662.93846  30758706.15844  24208716.1024   24208717.3674   20264987.56648
  15808654.60345                  22021030.3674                   22021028.0274
  23301210.62548  18172020.62146  20894828.0704   20894825.7704   26816206.31648
  20910970.72946  21084112.7114   21084109.6604
  32236815.41447  25136232.98746  21624942.0084                   21624939.8404
 11  7 25  2 21 30.0000000  0  8G02G17G25G09G04G10G12G05
  17976446.09848  14023896.84347  20570021.2664                   20570016.8094
  18695613.67646  14584469.15244  23535840.4454                   23535837.9734
  46015187.29347  35872049.70945  23533734.0394                   23533734.6454
  39501783.71947  30796202.81144  24217874.3054   24217874.6884   20308338.26248
  15842434.36945                  22029279.5704                   22029277.9494
  23277128.96948  18153255.70446  20890245.7814   20890243.1844   26737114.85548
  20849341.05946  21069062.1724   21069059.2464
  32118057.28548  25043694.23546  21602342.5554                   21602340.2304
 11  7 25  2 22  0.0000000  0  8G02G17G25G09G04G10G12G05
  17947179.14147  14001091.44046  20564451.9064                   20564447.3324
  18720513.01247  14603871.24144  23540578.3674                   23540575.4774
  45886560.67647  35771821.31745  23509256.8674                   23509258.2814
  39549963.05946  30833745.08744  24227041.7424   24227043.3244   20351791.86347
  15876294.30845                  22037548.3524                   22037546.6764
  23253679.88348  18134983.69446  20885783.6094   20885780.9924   26658527.62148
  20788104.29946  21054107.2664   21054104.4654
  31999671.09047  24951445.30946  21579814.6884                   21579812.4414
 11  7 25  2 22 30.0000000  0  8G02G17G25G09G04G10G12G05
  17918181.15648  13978495.60946  20558933.9304                   20558929.1484
  18745582.80146  14623406.16044  23545349.0634                   23545346.8244
  45758198.47347  35671798.94444  23484830.3524                   23484831.1024
  39598199.52747  30871331.83944  24236221.0944   24236221.7274   20395348.41847
  15910234.52545                  22045836.9384                   22045835.2704
  23230864.51648  18117205.49146  20881442.0314   20881439.1334   26580448.29348
  20727263.31646  21039249.1884   21039246.4224
  31881660.85248  24859489.33246  21557357.9694                   21557355.5634
 11  7 25  2 23  0.0000000  0  8G02G17G25G09G04G10G12G05
  17889449.16448  13956107.06646  20553466.3914                   20553461.9344
  18770820.71546  14643072.07344  23550151.6724                   23550149.4614
  45630101.03947  35571982.86944  23460453.9534                   23460455.2814
  39646487.25847  30908958.60444  24245410.7274   24245411.5044   20439003.37547
  15944251.39045                  22054144.2894                   22054141.9414
  23208680.24648  18099919.07346  20877220.0704   20877217.6994   26502876.29348
  20666817.65046  21024487.6804   21024484.8914
  31764027.03148  24767826.67146  21534973.0004                   21534970.3444
 11  7 25  2 23 30.0000000  0  8G02G17G25G09G04G10G12G05
  17860977.47348  13933921.34546  20548048.4774                   20548043.7304
  18796223.55146  14662866.53444  23554985.6334                   23554982.8204
  45502267.20747  35472372.22544  23436127.8204                   23436128.6454
  39694819.07847  30946619.71244  24254607.3054   24254607.3984   20482751.66047
  15978340.98945                  22062469.0164                   22062467.2584
  23187122.62548  18083120.95146  20873118.1254   20873115.3014   26425809.73848
  20606765.84246  21009822.4534   21009819.9454
  31646768.51248  24676456.44446  21512659.5864                   21512657.1724
 11  7 25  2 24  0.0000000  0  8G02G17G25G09G04G10G12G05
  17832767.46148  13911939.54246  20542680.1954                   20542675.6914
  18821793.86346  14682791.46344  23559851.1724                   23559849.7384
  45374701.89547  35372970.76544  23411853.4614                   23411853.6684
  39743193.91846  30984314.37043  24263812.3984   24263813.4614   20526593.55147
  16012503.49745                  22070811.8914                   22070810.0554
  23166193.38748  18066812.46646  20869135.2344   20869132.5944   26349252.68048
  20547111.03446  20995254.2344   20995251.4844
  31529890.14548  24585382.43046  21490417.7584                   21490415.7154
 11  7 25  2 24 30.0000000  0  8G02G17G25G09G04G10G12G05
  17804817.28948  13890160.19146  20537361.5634                   20537356.6954
  18847531.41847  14702846.74344  23564749.1414                   23564746.9924
  45247407.23847  35273780.23244  23387629.5394                   23387629.9184
  39791608.13746  31022039.63243  24273025.2504   24273026.8444   20570526.88347
  16046737.24345                  22079172.0864                   22079170.0554
  23145891.45748  18050992.79946  20865271.8364   20865269.1484   26273206.69948
  20487854.45946  20980783.0314   20980780.2384
  31413393.94948  24494606.23446  21468249.4224                   21468247.0664
 11  7 25  2 25  0.0000000  0  8G02G17G25G09G04G10G12G05
  17777125.25848  13868582.00246  20532092.0004                   20532087.2544
  18873435.35546  14723031.67744  23569677.9694                   23569676.4264
  45120385.18447  35174802.08344  23363457.7114                   23363458.7624
  39840057.77046  31059792.50243  24282245.7034   24282246.3834   20614548.97747
  16081040.17945                  22087549.1094                   22087547.0004
  23126215.84448  18035661.17546  20861527.4844   20861525.2154   26197671.78948
  20428996.12546  20966409.2894   20966406.2154
  31297281.67647  24404129.17446  21446153.9694                   21446151.3874
 11  7 25  2 25 30.0000000  0  8G02G17G25G09G04G10G12G05
  17749694.30948  13847207.25946  20526872.0944                   20526867.3244
  18899510.28146  14743349.80644  23574640.2734                   23574638.8674
  44993642.42647  35076041.57744  23339340.0474                   23339339.7504
  39888543.74646  31097573.78143  24291471.2584   24291472.7624   20658662.52347
  16115414.37745                  22095943.9224                   22095941.7664
  23107169.48848  18020819.88846  20857903.2424   20857900.5904   26122654.32448
  20370541.00246  20952134.0704   20952130.7854
  31181559.91847  24313956.42646  21424132.7034                   21424130.7344
 11  7 25  2 26  0.0000000  0  8G02G17G25G09G04G10G12G05
  17722518.10248  13826031.01946  20521700.7114                   20521695.5514
  18925751.67246  14763797.63444  23579633.0394                   23579631.1174
  44867176.45347  34977496.74944  23315274.4774                   23315273.4614
  39937057.60546  31135376.73743  24300703.5164   24300703.1054   20702860.22347
  16149854.12345                  22104354.4534                   22104352.3244
  23088746.97348  18006464.68746  20854397.4384   20854394.8134   26048150.75448
  20312486.29246  20937956.4224   20937953.1524
  31066226.76248  24224086.49246  21402185.5004                   21402183.3284
 11  7 25  2 26 30.0000000  0  8G02G17G25G09G04G10G12G05
  17695595.60548  13805052.46146  20516577.4064                   20516572.6374
  18952159.76646  14784375.36444  23584659.2344                   23584657.6294
  44740990.15247  34879169.79244  23291261.6024                   23291261.5434
  39985596.06646  31173198.87142  24309940.1414   24309941.1414   20747140.92647
  16184358.57545                  22112780.6484                   22112779.0664
  23070947.63748  17992595.09846  20851010.5394   20851008.0984   25974163.11348
  20254833.63346  20923877.0394   20923873.5984
  30951284.50448  24134521.13446  21380312.7194                   21380310.6994
 11  7 25  2 27  0.0000000  0  8G02G17G25G09G04G10G12G05
  17668928.43848  13784272.87046  20511502.5864                   20511498.0864
  18978737.40246  14805085.25344  23589716.8204                   23589715.0394
  44615088.94147  34781065.00444  23267303.1024                   23267304.3484
  40034158.81646  31211039.93043  24319181.9454   24319182.2624   20791505.62147
  16218928.45945                  22121223.1884                   22121221.3754
  23053773.64848  17979212.78846  20847742.3204   20847739.8164   25900695.83648
  20197586.43546  20909896.8984   20909893.3134
  30836738.38348  24045264.46046  21358515.6414                   21358513.1954
 11  7 25  2 27 30.0000000  0  8G02G17G25G09G04G10G12G05
  17642515.84048  13763691.65246  20506476.3984                   20506471.6724
  19005485.59047  14825928.01444  23594806.9304                   23594804.6134
  44489475.98047  34683184.82444  23243399.7344                   23243400.8204
  40082743.33646  31248897.88843  24328426.7424   24328428.5434   20835953.06347
  16253562.83945                  22129680.9224                   22129678.9654
  23037225.00048  17966317.75646  20844593.2194   20844590.4144   25827750.73048
  20140746.12146  20896015.3594   20896012.5474
  30722591.50048  23956318.88846  21336793.9534                   21336791.6134
 11  7 25  2 28  0.0000000  0  8G02G17G25G09G04G10G12G05
  17616355.13748  13743306.71647  20501498.0474                   20501493.7624
  19032402.77046  14846902.41044  23599928.8594                   23599927.5474
  44364152.34047  34585530.09545  23219551.4224                   23219552.3984
  40131344.68846  31286768.93543  24337676.0864   24337676.6644   20880480.21947
  16288259.31445                  22138153.9844                   22138152.3674
  23021299.32848  17953908.17546  20841562.6484   20841559.9024   25755328.09448
  20084312.92646  20882233.9304   20882230.9264
  30608844.74648  23867685.10146  21315148.5634                   21315146.2304
 11  7 25  2 28 30.0000000  0  8G02G17G25G09G04G10G12G05
  17590445.64148  13723117.52146  20496567.7814                   20496562.9384
  19059489.83246  14868009.22344  23605083.2894                   23605081.2304
  44239121.10547  34488103.19045  23195759.6024                   23195759.9024
  40179960.20746  31324651.05443  24346927.0004   24346927.9654   20925085.62947
  16323016.75945                  22146642.7194                   22146640.8204
  23005996.12948  17941983.62546  20838650.2504   20838647.7584   25683430.44948
  20028288.80746  20868552.2114   20868549.6024
  30495501.35248  23779365.61646  21293579.9454                   21293577.6294
 11  7 25  2 29  0.0000000  0  8G02G17G25G09G04G10G12G05
  17564785.21148  13703122.41046  20491684.7664                   20491680.4304
  19086746.24646  14889247.95144  23610270.6254                   23610268.0004
  44114384.25447  34390905.64545  23172022.4304                   23172023.4454
  40228585.82046  31362541.08543  24356179.6094   24356180.3794   20969767.08247
  16357833.45545                  22155145.4384                   22155142.9144
  22991313.72748  17930542.81846  20835856.6174   20835853.9454   25612057.83248
  19972673.79246  20854970.7974   20854967.3954
  30382562.95348  23691361.71346  21272088.3204                   21272086.4884
 11  7 25  2 29 30.0000000  0  8G02G17G25G09G04G10G12G05
  17539375.66848  13683322.78846  20486849.3364                   20486844.6174
  19114174.92646  14910620.93044  23615489.6174                   23615488.0434
  43989946.88747  34293941.47445  23148342.9534                   23148343.9104
  40277220.77346  31400438.33443  24365435.3204   24365436.1844   21014525.28947
  16392710.02845                  22163662.3914                   22163659.9694
  22977254.13348  17919587.31246  20833181.0004   20833178.2154   25541214.53548
  19917471.25546  20841489.5864   20841486.3714
  30270034.41048  23603677.18646  21250674.9454                   21250672.5664
 11  7 25  2 30  0.0000000  0  8G02G17G25G09G04G10G12G05
  17514218.27048  13663719.64846  20482062.0784                   20482057.4064
  19141778.75047  14932130.44744  23620742.9924                   23620740.1844
  43865814.44147  34197214.91345  23124720.9304                   23124722.0664
  40325864.84446  31438342.72243  24374692.0394   24374693.7114   21059361.47747
  16427647.30445                  22172194.4694                   22172192.5004
  22963819.26648  17909118.58846  20830624.5634   20830621.5864   25470905.13748
  19862684.73546  20828110.2344   20828106.7504
  30157921.18448  23516316.26146  21229340.5944                   21229338.2624
 11  7 25  2 30 30.0000000  0  7G02G17G25G04G10G12G05
  17489312.48848  13644312.55646  20477323.0234                   20477318.1134
  19169558.30946  14953776.84244  23626028.4454                   23626026.9224
  43741989.97747  34100728.32745  23101158.4774   23101159.0084   21104274.46547
  16462644.45645                  22180741.1484                   22180739.0354
  22951008.66848  17899136.33646  20828186.9064   20828184.4384   25401131.35248
  19808315.57646  20814832.2974   20814829.4454
  30046225.93448  23429281.07346  21208085.4384                   21208083.3404
 11  7 25  2 31  0.0000000  0  7G02G17G25G04G10G12G05
  17464653.96948  13625098.15246  20472630.3364                   20472625.6564
  19197511.03146  14975558.18644  23631348.1804                   23631345.8404
  43618473.21147  34004481.49745  23077654.0004   23077654.0664   21149259.70748
  16497697.89145                  22189301.4774                   22189299.3794
  22938818.45348  17889637.48446  20825867.4694   20825864.0824   25331891.83648
  19754362.72746  20801656.3754   20801653.5004
  29934948.41848  23342571.35546  21186910.4064                   21186907.3444
 11  7 25  2 31 30.0000000  0  7G02G17G25G04G10G12G05
  17440248.86748  13606081.21146  20467986.1884                   20467981.5554
  19225644.20346  14997480.11944  23636701.7814                   23636699.7384
  43495274.03947  33908482.14745  23054209.9774   23054210.1804   21194322.85947
  16532812.05145                  22197876.8204                   22197875.0274
  22927254.77748  17880626.86046  20823666.2894   20823663.7114   25263195.36748
  19700833.03746  20788584.2194   20788580.9264
  29824098.37148  23256194.72646  21165816.0704                   21165813.4774
 11  7 25  2 32  0.0000000  0  7G02G17G25G04G10G12G05
  17416101.56348  13587265.14547  20463391.0474                   20463386.0434
  19253963.59046  15019547.20744  23642090.3754                   23642087.9304
  43372400.59447  33812736.63045  23030827.3834   23030828.0164   21239467.83647
  16567989.98045                  22206467.1724                   22206466.1954
  22916322.48448  17872108.21246  20821585.7734   20821583.2114   25195048.81648
  19647731.85546  20775616.3834   20775613.1214
  29713683.31348  23170157.07346  21144804.7504                   21144802.4144
 11  7 25  2 32 30.0000000  0  7G02G17G25G04G10G12G05
  18967626.59848  14796245.71146  20758636.2664                   20758631.6804
  20857883.21547  16269354.68444  23947306.7194                   23947304.0004
  44825274.53147  34944846.23345  23307299.9614   23307300.8714   22860106.30147
  17830825.12745                  22514865.0554
  22514862.8284   24481435.69548  19091676.95646  21119417.3444   21119414.4344
  26702870.69948  20822658.03146  21062545.3284                   21062542.1724
  31179124.54748  24312059.37646  21423668.7584                   21423667.0004
 11  7 25  2 33  0.0000000  0  7G02G17G25G04G10G12G05
  18943976.58248  14777817.15446  20754136.1804                   20754131.3524
  20886560.93446  16291700.97044  23952763.5314                   23952761.2384
  44703045.62547  34849602.97045  23284040.7974   23284041.5044   22905395.27347
  17866115.23045                  22523483.0394
  22523481.1094   24471747.86748  19084128.01246  21117573.9064   21117571.2384
  26635813.24648  20770405.48146  21049784.3754                   21049781.4414
  31069572.65648  24226694.29746  21402821.8984                   21402819.1414
 11  7 25  2 33 30.0000000  0  7G02G17G25G04G10G12G05
  18920568.34448  14759576.97646  20749681.6414                   20749676.7814
  20915413.00047  16314183.14344  23958254.1254                   23958251.5234
  44581137.93447  34754610.04145  23260842.5474   23260843.3054   22950748.90647
  17901455.73745                  22532113.1884
  22532111.0904   24462675.74248  19077058.82046  21115847.4064   21115844.6604
  26569297.65648  20718575.18246  21037127.0394                   21037124.2894
  30960451.12948  24141664.58046  21382056.6884                   21382054.0354
 11  7 25  2 34  0.0000000  0  7G02G17G25G04G10G12G05
  18897401.38748  14741524.81847  20745273.1174                   20745268.5084
  20944440.16447  16336801.71944  23963778.2424                   23963774.6134
  44459554.61747  34659869.85645  23237705.9694   23237706.9614   22996165.98447
  17936845.68045                  22540756.1484
  22540754.5004   24454218.94548  19070469.11246  21114238.2034   21114235.2114
  26503326.36748  20667169.01046  21024572.9304                   21024570.3014
  30851762.42648  24056972.12546  21361374.1644                   21361371.7074
 11  7 25  2 34 30.0000000  0  7G02G17G25G04G10G12G05
  18874472.45348  14723658.12546  20740909.8984                   20740904.8594
  20973641.00447  16359555.62943  23969334.4694                   23969331.3874
  44338296.39547  34565383.02445  23214631.4064   23214631.8324   23041643.31647
  17972282.56245                  22549409.8834
  22549408.0204   24446374.40648  19064356.49746  21112745.2734   21112742.5234
  26437897.93048  20616185.84046  21012122.4534                   21012118.9884
  30743506.97748  23972617.27646  21340773.6334                   21340771.3794
 11  7 25  2 35  0.0000000  0  7G02G17G25G04G10G12G05
  18851781.78148  14705977.09946  20736591.8914                   20736587.2734
  21003016.77747  16382445.85244  23974924.8284                   23974922.4964
  44217367.28147  34471152.68845  23191618.9064   23191619.2154   23087180.76647
  18007766.28745                  22558075.5864
  22558073.9494   24439142.37548  19058721.16346  21111369.0394   21111366.2974
  26373015.25848  20565627.94246  20999775.6804                   20999772.3914
  30635688.68448  23888603.05646  21320256.1954                   21320253.8134
 11  7 25  2 35 30.0000000  0  7G02G17G25G04G10G12G05
  18829325.81648  14688478.95446  20732318.6254                   20732313.8554
  21032565.03547  16405470.54544  23980547.3364                   23980543.7774
  44096767.39847  34377178.85345  23168669.8524   23168669.7154   23132774.30147
  18043293.72245                  22566751.7114
  22566749.5204   24432518.94148  19053560.05546  21110108.7344   21110106.0204
  26308677.35248  20515494.53546  20987532.5864                   20987529.3554
  30528307.47748  23804929.44846  21299822.4304                   21299819.9804
 11  7 25  2 36  0.0000000  0  7G02G17G25G04G10G12G05
  18807106.75448  14671165.42046  20728090.7584                   20728085.4534
  21062289.61747  16428632.52643  23986203.5474                   23986201.0594
  43976502.70347  34283466.22845  23145783.6484   23145784.2234   23178425.70347
  18078866.24045                  22575438.9454
  22575437.6604   24426506.54348  19048875.08346  21108964.6024   21108961.5204
  26244888.99248  20465789.35046  20975394.0164                   20975390.9144
  30421368.98048  23721600.78946  21279472.7274                   21279470.0394
 11  7 25  2 36 30.0000000  0  7G02G17G25G04G10G12G05
  18785121.47348  14654034.05546  20723906.9844                   20723902.1804
  21092188.61346  16451930.45744  23991893.1724                   23991890.6684
  43856573.68047  34190015.15845  23122961.7894   23122963.3164   23224131.44147
  18114481.11045                  22584136.1954
  22584134.9964   24421102.04347  19044663.79046  21107935.7114   21107933.3674
  26181649.49648  20416511.85346  20963359.8674                   20963356.9224
  30314873.09448  23638617.01946  21259207.0474                   21259204.6954
 11  7 25  2 37  0.0000000  0  7G02G17G25G04G10G12G05
  18763368.29348  14637083.54946  20719767.5864                   20719762.4264
  21122261.82446  16475364.16844  23997616.1484                   23997612.5824
  43736982.62147  34096827.45045  23100204.5554   23100204.9614   23269889.76647
  18150136.98045                  22592844.0084
  22592841.4534   24416303.97348  19040925.05246  21107023.1414   21107020.5984
  26118959.45748  20367662.48746  20951430.4454                   20951427.6524
  30208822.09448  23555979.92246  21239026.4454                   21239023.7504
 11  7 25  2 37 30.0000000  0  7G02G17G25G04G10G12G05
  18741848.57848  14620314.95346  20715672.3754                   20715667.6994
  21152511.57846  16498935.38644  24003371.4924                   24003370.2154
  43617734.58247  34003907.00945  23077512.1414   23077512.8284   23315701.42247
  18185834.37345                  22601561.9454
  22601559.2274   24412113.36347  19037659.65346  21106225.4534   21106222.8444
  26056822.53148  20319244.12446  20939606.2274                   20939602.8554
  30103220.97748  23473693.37946  21218931.1334                   21218928.6954
 11  7 25  2 38  0.0000000  0  7G02G17G25G04G10G12G05
  18720558.80148  14603725.54046  20711620.8754                   20711616.1374
  21182935.79346  16522642.59743  24009161.7734                   24009159.1414
  43498829.81347  33911254.08045  23054885.1954   23054885.3874   23361562.67647
  18221570.43845                  22610288.9384
  22610286.7584   24408526.34048  19034864.56946  21105543.0234   21105540.2894
  25995237.85548  20271256.09746  20927886.9064                   20927884.0594
  29998069.41048  23391757.13646  21198921.3674                   21198918.8954
 11  7 25  2 38 30.0000000  0  7G02G17G25G04G10G12G05
  18699499.59448  14587315.79246  20707613.6644                   20707608.5864
  21213536.59846  16546487.36544  24014985.2894                   24014982.6334
  43380272.86747  33818872.14945  23032324.5394   23032325.1644   23407474.16047
  18257345.62545                  22619025.4534
  22619023.7934   24405543.78548  19032540.50946  21104975.7584   21104972.6644
  25934208.55548  20223700.81346  20916273.4774                   20916269.8954
  29893371.41048  23310174.32246  21178997.7974                   21178995.5004
 11  7 25  2 39  0.0000000  0  7G02G17G25G04G10G12G05
  18678667.93848  14571083.35346  20703649.6094                   20703644.8014
  21244312.10246  16570468.28944  24020841.8054                   24020839.9884
  43262064.06347  33726761.49945  23009830.2034   23009830.7624   23453432.14847
  18293157.03245                  22627770.9454
  22627768.5904   24403162.01648  19030684.59146  21104522.2424   21104519.5594
  25873733.24648  20176577.22346  20904765.2734                   20904761.9224
  29789127.12148  23228945.04446  21159160.7034                   21159158.2234
 11  7 25  2 39 30.0000000  0  7G02G17G25G04G10G12G05
  18658060.87548  14555025.93046  20699727.8914                   20699723.0984
  21275260.48946  16594583.94544  24026730.9144                   24026728.1174
  43144204.32047  33634922.83145  22987402.2974   22987402.4024   23499433.43847
  18329002.22645                  22636524.8524
  22636522.4264   24401378.07847  19029294.51346  21104182.5864   21104179.9184
  25813811.76247  20129885.17646  20893362.6174                   20893359.3444
  29685337.16448  23148069.80346  21139410.1484                   21139407.7114
 11  7 25  2 40  0.0000000  0  7G02G17G25G04G10G12G05
  18637678.30548  14539143.42746  20695849.2504                   20695844.6134
  21306383.04346  16618835.26244  24032653.6954                   24032651.1724
  43026697.27747  33543358.98645  22965041.0554   22965041.5434   23545477.84847
  18364880.98145                  22645286.8524
  22645285.1484   24400191.82048  19028370.16146  21103956.9774   21103953.9774
  25754446.10948  20083626.24646  20882065.8984                   20882062.7504
  29582004.86748  23067551.15646  21119746.6094                   21119744.0394
 11  7 25  2 40 30.0000000  0  7G02G17G25G04G10G12G05
  18617521.20348  14523436.61946  20692013.3284                   20692008.3794
  21337682.13346  16643224.18144  24038608.7584                   24038606.3444
  42909547.88347  33452073.82445  22942748.4064   22942748.6254   23591566.01247
  18400793.86445                  22654056.3204
  22654054.7424   24399603.96947  19027912.10546  21103844.6724   21103842.0904
  25695640.07848  20037803.38446  20870875.1954                   20870872.3794
  29479134.55148  22987392.50646  21100171.1174                   21100169.0594
 11  7 25  2 41  0.0000000  0  7G02G17G25G04G10G12G05
  18597587.85948  14507904.16546  20688220.3984                   20688215.6764
  21369157.00846  16667750.02144  24044598.3524                   24044596.4104
  42792757.85547  33361068.67245  22920524.1334   22920524.4734   23637696.09047
  18436739.35244                  22662835.1564
  22662833.1414   24399612.35947  19027918.65846  21103846.6564   21103844.0704
  25637393.47748  19992416.42246  20859791.5004                   20859788.1914
  29376727.57848  22907594.92046  21080683.8444                   21080681.2894
 11  7 25  2 41 30.0000000  0  7G02G17G25G04G10G12G05
  18577876.75848  14492544.88446  20684469.1884                   20684464.3554
  21400807.64846  16692412.90344  24050621.3134                   24050619.4384
  42676329.52747  33270345.37745  22898368.1724   22898368.2664   23683866.25047
  18472716.09445                  22671620.8054
  22671619.6024   24400215.37147  19028388.54546  21103961.7504   21103958.9654
  25579707.54347  19947466.36046  20848814.3524                   20848810.8204
  29274785.97348  22828159.93146  21061284.8444                   21061282.0274
 11  7 25  2 42  0.0000000  0  7G02G17G25G04G10G12G05
  18558384.96548  14477356.50346  20680760.5864                   20680755.5004
  21432632.62946  16717211.59544  24056677.5634                   24056675.4344
  42560263.73047  33179904.56245  22876281.5784   22876281.7194   23730073.41047
  18508721.68345                  22680413.5474
  22680412.1054   24401409.69147  19029319.18646  21104188.9694   21104186.2304
  25522581.26647  19902952.40146  20837943.3834                   20837939.8364
  29173310.08648  22749087.85446  21041974.4384                   21041972.1454
 11  7 25  2 42 30.0000000  0  7G02G17G25G04G10G12G05
  18539113.81648  14462340.03946  20677093.0004                   20677088.0664
  21464634.12147  16742147.78544  24062767.2194                   24062764.9344
  42444565.35947  33089750.03245  22854265.0164   22854265.0634   23776318.39147
  18544756.75345                  22689213.7814
  22689212.5314   24403196.35247  19030711.39946  21104528.6414   21104526.0554
  25466018.03947  19858877.18046  20827179.7034                   20827176.0084
  29072304.23048  22670382.02246  21022753.5634                   21022750.8404
 11  7 25  2 43  0.0000000  0  7G02G17G25G04G10G12G05
  18520064.37148  14447496.33946  20673468.0234                   20673462.9734
  21496814.34046  16767223.29644  24068890.3594                   24068888.6764
  42329239.19547  32999885.54145  22832318.9454   22832319.1954   23822602.24247
  18580822.06945                  22698020.9224
  22698019.4064   24405575.91847  19032565.62546  21104981.1564   21104978.7774
  25410021.41047  19815243.45346  20816523.9304                   20816520.5044
  28971772.98448  22592046.01746  21003623.0784                   21003620.6134
 11  7 25  2 43 30.0000000  0  7G02G17G25G04G10G12G05
  18501231.98448  14432821.76846  20669884.4614                   20669879.5274
  21529170.04346  16792435.53844  24075047.9224                   24075045.9064
  42214284.33647  32910310.35445  22810443.3674   22810444.1024   23868920.01647
  18616913.84344                  22706835.2424
  22706834.2584   24408543.51647  19034878.03946  21105546.1024   21105543.3484
  25354588.72347  19772049.18146  20805975.3594                   20805971.9104
  28871714.96948  22514078.77146  20984582.8134                   20984580.4064
 11  7 25  2 44  0.0000000  0  7G02G17G25G04G10G12G05
  18482615.21148  14418315.22146  20666341.4844                   20666336.6054
  21561700.87546  16817784.25044  24081237.9064                   24081235.7974
  42099703.05547  32821026.30045  22788639.1954   22788639.8014   23915270.19547
  18653030.85944                  22715655.3444
  22715654.2074   24412097.35947  19037647.30146  21106222.4924   21106219.8444
  25299720.48848  19729294.71646  20795533.9694                   20795531.1254
  28772131.87148  22436481.58546  20965632.6094                   20965629.9884
 11  7 25  2 44 30.0000000  0  7G02G17G25G04G10G12G05
  18464212.96948  14403975.82546  20662840.1644                   20662834.7464
  21594407.12547  16843269.61744  24087462.4924                   24087459.4384
  41985497.78947  32732035.20345  22766907.5234   22766907.4104   23961651.50047
  18689172.11745                  22724481.4694
  22724480.3524   24416235.57047  19040871.89046  21107009.9304   21107007.0474
  25245417.79347  19686980.94746  20785200.6024                   20785197.6914
  28673025.92248  22359256.22146  20946773.3054                   20946771.1134
 11  7 25  2 45  0.0000000  0  7G02G17G25G04G10G12G05
  18446026.19548  14389804.34046  20659379.1724                   20659374.0204
  21627290.62947  16868893.12544  24093720.3284                   24093717.9104
  41871673.21147  32643340.76045  22745246.9534   22745246.9694   24008064.64847
  18725338.20345                  22733313.8754
  22733312.1884   24420958.84447  19044552.37846  21107908.5474   21107906.5664
  25191683.58647  19645110.13846  20774975.2034                   20774972.1254
  28574401.24648  22282405.85846  20928005.8834                   20928003.2584
 11  7 25  2 45 30.0000000  0  7G02G17G25G04G10G12G05
  18428051.55948  14375798.14546  20655958.6254                   20655953.6764
  21660349.26646  16894653.14643  24100010.3984                   24100008.3594
  41758229.51647  32554943.14045  22723659.3594   22723658.9884   24054505.85247
  18761526.16345                  22742151.2504
  22742149.4884   24426263.16047  19048685.63146  21108917.9064   21108915.1414
  25138516.31347  19603681.11046  20764858.1804                   20764854.5164
  28476257.19148  22205930.01746  20909329.4844                   20909326.9104
 11  7 25  2 46  0.0000000  0  7G02G17G25G04G10G12G05
  18410288.73048  14361956.98646  20652578.6024                   20652573.5314
  21693583.88346  16920550.28843  24106335.0314                   24106332.0514
  41645169.85247  32466844.72145  22702144.6334   22702145.3834   24100974.59847
  18797735.57544                  22750994.2034
  22750992.5824   24432147.68447  19053270.98246  21110037.8984   21110035.3674
  25085917.63747  19562695.15146  20754848.8284                   20754845.1604
  28378596.72748  22129830.97546  20890745.3204                   20890742.5634
 11  7 25  2 46 30.0000000  0  7G02G17G25G04G10G12G05
  18392738.82048  14348281.75446  20649238.9844                   20649233.6294
  21726997.33246  16946586.73442  24112693.6094                   24112689.9384
  41532499.42647  32379049.60545  22680704.8054   22680704.0274   24147472.53947
  18833967.72744                  22759842.5864
  22759839.9574   24438613.23047  19058309.08146  21111268.6254   21111265.9774
  25033891.10547  19522155.02046  20744948.1334                   20744945.3134
  28281424.28148  22054112.21946  20872254.1024                   20872251.1024
 11  7 25  2 47  0.0000000  0  7G02G17G25G04G10G12G05
  18375395.65648  14334767.61946  20645938.2274                   20645933.2894
  21760583.94146  16972758.12743  24119083.5164                   24119081.2464
  41420215.31647  32291555.53945  22659337.4694   22659337.1254   24193992.71147
  18870217.20444                  22768695.2664
  22768693.1884   24445652.68847  19063794.39146  21112607.9614   21112605.2034
  24982432.56347  19482057.48146  20735156.2814                   20735153.0044
  28184736.47748  21978771.11346  20853854.8054                   20853852.3284
 11  7 25  2 47 30.0000000  0  7G02G17G25G04G10G12G05
  18358261.03548  14321415.98046  20642677.6644                   20642672.5634
  21794346.87146  16999066.85343  24125509.0704                   24125506.0594
  41308323.25047  32204366.95445  22638045.0474   22638044.4414   24240537.02047
  18906485.47944                  22777552.0234
  22777550.1804   24453267.42647  19069727.97546  21114056.9694   21114054.0004
  24931545.41448  19442405.16446  20725472.6024                   20725469.5904
  28088538.51248  21903811.69046  20835549.2664                   20835546.2584
 11  7 25  2 48  0.0000000  0  7G02G17G25G04G10G12G05
  18341337.62948  14308228.91846  20639457.4844                   20639452.4344
  21828289.81346  17025515.91643  24131968.6724                   24131965.7894
  41196829.23447  32117488.54645  22616828.7664   22616828.3054   24287107.87947
  18942774.47344                  22786413.7584
  22786412.0354   24461459.38747  19076111.33346  21115615.5554   21115613.1294
  24881233.90248  19403201.41146  20715898.3984                   20715895.4884
  27992835.82448  21829238.20146  20817337.4844                   20817334.4414
 11  7 25  2 48 30.0000000  0  7G02G17G25G04G10G12G05
  18324622.82448  14295204.40646  20636276.5864                   20636271.6174
  21862411.50846  17052104.20643  24138462.3754                   24138459.0904
  41085734.16847  32030921.02945  22595687.9774   22595687.9104   24333702.51247
  18979082.02244                  22795280.8524
  22795279.2344   24470225.42647  19082942.01246  21117283.3834   21117280.8404
  24831497.39548  19364445.69846  20706434.6414                   20706430.6914
  27897628.97748  21755051.07946  20799220.4064                   20799217.0124
 11  7 25  2 49  0.0000000  0  6G02G25G04G10G12G05
  18308112.12148  14282338.94747  20633134.8914                   20633130.1214
  40975037.35547  31944663.81345  22574622.8524   22574622.7544   24380316.44147
  19015404.56544                  22804150.7814
  22804149.0864   24479560.22348  19090215.89746  21119060.4224   21119057.5204
  24782333.43848  19326136.14546  20697078.1954                   20697075.0044
  27802916.57848  21681249.24046  20781196.9304                   20781193.7624
 11  7 25  2 49 30.0000000  0  6G02G25G04G10G12G05
  18291807.33248  14269633.93546  20630031.8754                   20630027.0434
  40864743.99247  31858720.99345  22553634.0474   22553634.8524   24426951.25047
  19051743.37844                  22813025.8914
  22813022.9024   24489465.00448  19097933.91746  21120944.8134   21120941.8634
  24733745.66847  19288275.55946  20687832.4304                   20687829.1024
  27708703.11348  21607836.19446  20763268.6254                   20763266.2854
 11  7 25  2 50  0.0000000  0  6G02G25G04G10G12G05
  18275713.75848  14257093.50646  20626969.8444                   20626964.5744
  40754863.04747  31773099.54245  22532725.0944   22532724.8794   24473612.22347
  19088102.59544                  22821904.0944
  22821902.2424   24499944.30547  19106099.62346  21122939.4384   21122936.2934
  24685741.02347  19250869.35446  20678697.7034                   20678694.4304
  27614996.88348  21534818.38046  20745436.9534                   20745434.2074
 11  7 25  2 50 30.0000000  0  6G02G25G04G10G12G05
  18259830.39848  14244716.87846  20623946.7734                   20623942.2774
  40645397.02747  31687801.41445  22511894.0474   22511894.2034   24520298.09847
  19124481.19344                  22830787.9454
  22830786.2504   24510996.37947  19114711.63546  21125042.1484   21125039.4534
  24638320.44547  19213918.26546  20669673.6564                   20669670.3444
  27521800.39548  21462197.78246  20727702.5394                   20727699.5744
 11  7 25  2 51  0.0000000  0  6G02G25G04G10G12G05
  18244154.01248  14232501.52846  20620963.8364                   20620958.8984
  40536346.17247  31602826.78745  22491142.4694   22491142.5944   24567005.71547
  19160876.73244                  22839676.4844
  22839674.3164   24522617.21547  19123766.84846  21127253.5394   21127250.7854
  24591482.30547  19177421.03446  20660760.7664                   20660757.0784
  27429112.84448  21389973.74846  20710064.3444                   20710061.8404
 11  7 25  2 51 30.0000000  0  6G02G25G04G10G12G05
  18228679.76247  14220443.68346  20618019.1174                   20618014.0474
  40427708.97347  31518174.48745  22470469.3284   22470469.9734   24613730.01247
  19197285.26244                  22848568.2344
  22848566.2854   24534801.03547  19133260.74446  21129571.7664   21129568.9384
  24545223.21547  19141374.99946  20651957.9304                   20651954.6054
  27336932.22748  21318144.74647  20692523.2114                   20692520.3204
 11  7 25  2 52  0.0000000  0  6G02G25G04G10G12G05
  18213406.30148  14208542.30346  20615112.7274                   20615107.8284
  40319487.84047  31433846.40945  22449875.4844   22449875.9844   24660469.46947
  19233705.62344                  22857462.3594
  22857459.8874   24547546.00847  19143191.91546  21131997.3754   21131994.5634
  24499543.60248  19105780.50746  20643265.2974                   20643261.9264
  27245259.91448  21246711.80746  20675078.3524                   20675075.7814
 11  7 25  2 52 30.0000000  0  6G02G25G04G10G12G05
  18198334.34448  14196797.92846  20612244.4224                   20612239.8524
  40211686.93447  31349845.76345  22429361.6564   22429361.5044   24707224.90246
  19270138.42044                  22866359.5394
  22866358.0904   24560851.76247  19153560.04146  21134529.3754   21134526.4104
  24454446.08248  19070639.59746  20634683.7894                   20634680.4414
  27154099.73448  21175677.94546  20657731.0474                   20657727.8954
 11  7 25  2 53  0.0000000  0  6G02G25G04G10G12G05
  18183458.39547  14185206.30546  20609413.8674                   20609408.9734
  40104304.03147  31266170.83245  22408927.7344   22408927.1094   24753990.73846
  19306579.30744                  22875258.7274
  22875256.8524   24574711.69147  19164359.98746  21137167.3204   21137163.8634
  24409926.33247  19035948.88946  20626211.9144                   20626208.2274
  27063449.14848  21105041.14046  20640480.7894                   20640477.8554
 11  7 25  2 53 30.0000000  0  6G02G25G04G10G12G05
  18168777.34847  14173766.53946  20606620.0704                   20606615.1454
  39997341.75847  31182823.67445  22388572.9534   22388572.7894   24800765.74646
  19343027.34644                  22884159.7584
  22884157.9884   24589124.28147  19175590.57246  21139909.3364   21139906.5474
  24365985.46147  19001709.26946  20617850.0634                   20617846.6644
  26973309.61348  21034802.58546  20623327.7114                   20623324.8094
 11  7 25  2 54  0.0000000  0  6G02G25G04G10G12G05
  19729710.88747  15390078.39946  20903655.7034                   20903651.0044
  41466226.28147  32327409.05545  22668092.0474   22668092.9104   26422967.73446
                                  20607080.83044                  23192855.1804
  23192852.6764   26179507.01247  20414849.85646  21442549.0704   21442545.8714
  25898045.25847  20195522.11646  20909391.3284   20909388.2894   28459106.41448
  22192566.34847  20906065.5004   20906062.4924
 11  7 25  2 54 30.0000000  0  6G02G25G04G10G12G05
  19715416.30147  15378939.77546  20900935.5944                   20900930.6804
  41360112.21547  32244722.83645  22647898.8204   22647899.2464   26469757.88746
                                  20643540.65344                  23201759.0164
  23201756.8164   26195018.47747  20426936.72446  21445500.8914   21445498.2114
  25855262.63348  20162185.02146  20901249.8594   20901246.8984   28369994.47748
  22123128.51246  20889107.7504   20889105.0474
 11  7 25  2 55  0.0000000  0  6G02G25G04G10G12G05
  19701316.76648  15367953.13746  20898252.7664                   20898247.5824
  41254428.87547  32162372.22145  22627788.4384   22627788.4264   26516556.99647
                                  20680007.49944                  23210664.3984
  23210661.9844   26211079.35547  20439451.70946  21448557.2194   21448554.4804
  25813063.21148  20129302.36146  20893219.6414   20893216.4844   28281401.84848
  22054095.32747  20872249.2584   20872246.7624
 11  7 25  2 55 30.0000000  0  6G02G25G04G10G12G05
  19687406.86748  15357114.27546  20895605.8594                   20895601.1994
  41149174.23047  32080355.67345  22607758.9924   22607758.9454   26563359.68847
                                  20716477.14744                  23219570.3674
  23219568.3094   26227683.18047  20452389.76346  21451716.6884   21451713.8284
  25771442.79348  20096870.87146  20885299.4614   20885296.0514   28193325.58648
  21985464.50547  20855488.7584   20855486.0474
 11  7 25  2 56  0.0000000  0  6G02G25G04G10G12G05
  19673690.99247  15346426.59346  20892995.7274                   20892990.7154
  41044356.40247  31998679.49745  22587812.8524   22587813.0904   26610170.70747
                                  20752953.23144                  23228478.7344
  23228476.2424   26244833.52047  20465753.67446  21454980.2974   21454977.7854
  25730407.31648  20064895.19646  20877490.9844   20877487.6954   28105773.21548
  21917241.90947  20838828.2664   20838825.6294
 11  7 25  2 56 30.0000000  0  6G02G25G04G10G12G05
  19660163.12948  15335885.41046  20890421.1334                   20890416.3674
  40939972.78947  31917341.67145  22567949.5004   22567949.3444   26656983.78546
                                  20789430.91844                  23237386.3054
  23237385.0634   26262523.84047  20479538.35545  21458346.4694   21458344.0204
  25689952.48048  20033371.96246  20869792.5944   20869789.5474   28018741.44548
  21849424.98047  20822266.7974   20822263.8244
 11  7 25  2 57  0.0000000  0  6G02G25G04G10G12G05
  19646827.26248  15325493.84446  20887883.6644                   20887878.6994
  40836030.64847  31836347.83345  22548169.5634   22548169.8714   26703803.06346
                                  20825913.45644                  23246296.0864
  23246294.0274   26280756.91847  20493745.94546  21461815.7114   21461813.6334
  25650083.44948  20002305.20546  20862205.7344   20862202.5394   27932236.96148
  21782018.92646  20805805.3054   20805802.9924
 11  7 25  2 57 30.0000000  0  6G02G25G04G10G12G05
  19633678.04748  15315247.73946  20885381.6094                   20885376.3014
  40732527.79347  31755696.32845  22528473.8444   22528473.7114   26750622.93046
                                  20862396.43944                  23255205.9534
  23255202.2894   26299526.04747  20508371.24745  21465387.9224   21465385.3284
  25610796.16847  19971691.74646  20854729.5944   20854726.3244   27846256.61348
  21715021.28847  20789443.4304   20789441.0514
 11  7 25  2 58  0.0000000  0  6G02G25G04G10G12G05
  19620715.47748  15305147.05646  20882914.5164                   20882909.7074
  40629467.68847  31675389.81545  22508862.1484   22508861.6684   26797443.43847
                                  20898879.99644                  23264115.6484
  23264113.8284   26318830.05147  20523413.36046  21469061.2344   21469058.7854
  25572092.15648  19941532.78947  20847364.4534   20847361.2384   27760803.25048
  21648434.28846  20773182.5474   20773179.9804
 11  7 25  2 58 30.0000000  0  6G02G25G04G10G12G05
  19607938.87548  15295191.29946  20880483.4454                   20880478.3754
  40526852.93847  31595430.33445  22489335.2344   22489335.3014   26844263.96146
                                  20935363.47244                  23273024.7814
  23273022.2974   26338667.45747  20538871.09045  21472836.4694   21472833.8444
  25533971.80148  19911828.63046  20840110.4614   20840107.3134   27675878.64548
  21582259.29746  20757021.9694   20757019.3094
 11  7 25  2 59  0.0000000  0  6G02G25G04G10G12G05
  19595344.33248  15285377.38346  20878086.3834                   20878081.3634
  40424682.96547  31515817.42645  22469892.3674   22469892.4534   26891080.62547
                                  20971843.96344                  23281933.5084
  23281931.7344   26359032.96547  20554740.33045  21476712.0314   21476708.6294
  25496433.02048  19882577.63846  20832966.9774   20832963.9494   27591481.57048
  21516495.37947  20740961.5164   20740958.5274
 11  7 25  2 59 30.0000000  0  6G02G25G04G10G12G05
  19582936.09448  15275708.66546  20875725.4614                   20875720.8204
  40322965.07047  31436556.80445  22450536.2584   22450535.9024   26937897.49646
                                  21008324.62944                  23290842.0944
  23290840.7664   26379929.77047  20571023.55946  21480688.2664   21480685.4734
  25459480.33648  19853783.34546  20825935.0704   20825931.8954   27507618.53548
  21451147.59146  20725002.9694   20725000.3284
 11  7 25  3  0  0.0000000  0  6G02G25G04G10G12G05
  19570708.45748  15266180.64346  20873398.5314                   20873393.4384
  40221697.13747  31357646.78545  22431265.2274   22431265.5474   26984709.15246
                                  21044801.24244                  23299751.1484
  23299748.3014   26401351.01247  20587715.42946  21484764.4304   21484761.8554
  25423109.72748  19825442.61646  20819014.1174   20819010.7734   27424286.66448
  21386213.69247  20709145.2504   20709142.8834
 11  7 25  3  0 30.0000000  0  7G02G29G25G04G10G12G05
  19558660.45748  15256792.61446  20871106.0554                   20871100.6644
  54941453.81647  42825145.57644  24391132.3914                   24391132.0744
  40120881.19547  31279088.98645  22412081.1094   22412081.1454   27031514.61346
                                  21081273.02144                  23308657.7034
  23308655.4614   26423293.99647  20604813.87846  21488940.0314   21488937.7154
  25387321.09448  19797555.36846  20812203.6884   20812200.2274   27341487.01248
  21321694.50747  20693389.0554   20693386.3754
 11  7 25  3  1  0.0000000  0  7G02G29G25G04G10G12G05
  19546785.04748  15247539.06846  20868846.2194                   20868840.9574
  54823695.60247  42733385.97244  24368723.7114                   24368724.4494
  40020513.58647  31200880.52545  22392981.6484   22392981.3674   27078306.87147
                                  21117734.51244                  23317562.4144
  23317559.7464   26445751.23047  20622313.01946  21493213.8054   21493210.4574
  25352109.01248  19770117.39946  20805502.9534   20805499.7234   27259215.06348
  21257586.51646  20677733.4224   20677730.5554
 11  7 25  3  1 30.0000000  0  7G02G29G25G04G10G12G05
  19535077.64848  15238416.43846  20866618.1804                   20866612.9844
  54705868.96147  42641573.13244  24346301.7274                   24346302.8674
  39920592.72747  31123020.19045  22373967.0704   22373967.0084   27125081.14547
                                  21154181.99744                  23326462.7344
  23326460.8984   26468716.62147  20640208.14646  21497584.0004   21497581.5944
  25317469.80148  19743125.81247  20798911.2114   20798908.0824   27177468.60248
  21193888.00447  20662177.3754   20662174.6524
 11  7 25  3  2  0.0000000  0  7G02G29G25G04G10G12G05
  19523546.39548  15229431.07246  20864423.7424                   20864419.1294
  54587983.58647  42549714.53144  24323868.9304                   24323868.7934
  39821130.11347  31045516.92246  22355040.1174   22355040.1804   27171846.03947
                                  21190622.13744                  23335361.7504
  23335360.5594   26492196.87948  20658504.45746  21502051.9694   21502049.2074
  25283412.92248  19716587.99046  20792430.4534   20792427.1094   27096258.24248
  21130607.23447  20646723.6724   20646721.1454
 11  7 25  3  2 30.0000000  0  7G02G29G25G04G10G12G05
  19512192.35948  15220583.77246  20862263.3204                   20862257.7854
  54470042.26647  42457812.31744  24301425.1414                   24301424.6054
  39722129.95348  30968373.97946  22336201.1884   22336201.0984   27218602.13347
                                  21227055.48044                  23344259.1174
  23344257.1094   26516191.85247  20677201.83446  21506618.2664   21506615.4184
  25249939.99648  19690505.19446  20786061.0234   20786057.4264   27015587.33648
  21067746.80047  20631372.3834   20631369.6374
 11  7 25  3  3  0.0000000  0  7G02G29G25G04G10G12G05
  19501012.43048  15211872.15346  20860135.7114                   20860130.7894
  54352043.59846  42365865.40044  24278971.1174                   24278968.9184
  39623592.32447  30891591.47346  22317449.7584   22317450.1994   27265346.80147
                                  21263479.88344                  23353153.8834
  23353152.4454   26540697.41847  20696297.06046  21511281.8984   21511278.5664
  25217049.17648  19664875.98346  20779802.0634   20779798.6254   26935455.42248
  21005306.37747  20616123.6564   20616120.6294
 11  7 25  3  3 30.0000000  0  7G02G29G25G04G10G12G05
  19490008.94548  15203298.00246  20858041.8364                   20858036.3674
  54233991.53546  42273876.86943  24256505.8674                   24256504.4144
  39525522.69548  30815173.64446  22298788.2274   22298787.8054   27312082.29747
                                  21299897.15144                  23362048.0164
  23362045.8524   26565714.49647  20715790.89546  21516042.2734   21516039.4184
  25184743.81648  19639702.98546  20773654.5234   20773651.2584   26855866.56348
  20943289.11047  20600978.5864   20600975.6414
 11  7 25  3  4  0.0000000  0  7G02G29G25G04G10G12G05
  19479179.56648  15194859.53946  20855981.1174                   20855975.9844
  54115885.67646  42181846.46943  24234030.2664                   24234031.4414
  39427921.81647  30739121.05246  22280214.8834   22280214.6524   27358806.20347
                                  21336305.41044                  23370939.2734
  23370937.1134   26591239.04748  20735680.15645  21520899.6804   21520896.3284
  25153022.47348  19614985.05846  20767617.9454   20767614.8484   26776820.93848
  20881695.13347  20585937.0554   20585933.7974
 11  7 25  3  4 30.0000000  0  7G02G29G25G04G10G12G05
  19468526.65648  15186558.56946  20853953.9844                   20853948.8524
  53997730.32046  42089777.50444  24211547.1414                   24211547.1374
  39330795.27748  30663438.07046  22261732.3674   22261732.4184   27405521.35247
                                  21372706.81944                  23379828.6724
  23379826.4344   26617272.47748  20755965.96446  21525853.0314   21525850.3984
  25121888.65648  19590724.95146  20761693.6564   20761690.0274   26698323.48048
  20820528.31147  20570999.1954   20570996.2234
 11  7 25  3  5  0.0000000  0  7G02G29G25G04G10G12G05
  19458048.39848  15178393.70646  20851959.9694                   20851954.6484
  53879524.46546  41997669.13844  24189053.4064                   24189053.1804
  39234143.99248  30588125.43246  22243340.1884   22243340.3134   27452225.47347
                                  21409099.60844                  23388715.9534
  23388714.7114   26643811.00848  20776645.33345  21530903.2974   21530900.3054
  25091341.34448  19566921.85246  20755880.5784   20755877.2304   26620374.21548
  20759788.64447  20556166.1954   20556162.9104
 11  7 25  3  5 30.0000000  0  7G02G29G25G04G10G12G05
  19447741.74648  15170362.54646  20849998.5234                   20849993.9654
  53761267.07046  41905520.72843  24166548.6884                   24166548.7154
  39137968.02047  30513183.13346  22225038.5234   22225038.4264   27498915.66047
                                  21445481.56344                  23397600.6564
  23397599.2974   26670850.23047  20797714.86345  21536048.3914   21536045.5984
  25061377.88348  19543573.70546  20750178.7114   20750175.4534   26542971.92248
  20699475.19847  20541436.8674   20541433.8014
 11  7 25  3  6  0.0000000  0  7G02G29G25G04G10G12G05
  19437603.10548  15162462.33446  20848069.3204                   20848064.4064
  53642956.51246  41813330.73143  24144035.5394                   24144033.2384
  39042266.82847  30438610.80046  22206827.2344   22206826.8914   27545588.50847
                                  21481850.03144                  23406482.4064
  23406481.3244   26698385.30548  20819170.75345  21541288.3754   21541285.7154
  25031995.73048  19520678.54346  20744587.4304   20744583.7774   26466115.35248
  20639586.98447  20526811.2814   20526808.1134
 11  7 25  3  6 30.0000000  0  7G02G29G25G04G10G12G05
  19427638.52348  15154697.72146  20846173.0164                   20846168.0944
  53524600.94746  41721105.76843  24121512.8984                   24121512.1954
  38947049.80947  30364415.74446  22188707.6724   22188707.9184   27592250.51247
                                  21518210.00744                  23415361.9144
  23415360.0784   26726420.96147  20841016.74645  21546623.1334   21546620.5474
  25003202.15248  19498241.99746  20739108.2814   20739104.9534   26389813.14548
  20580130.73447  20512291.8284   20512288.4734
 11  7 25  3  7  0.0000000  0  7G02G29G25G04G10G12G05
  19417845.13348  15147066.52346  20844309.5944                   20844304.6254
  53406199.11346  41628844.65343  24098982.6724                   24098980.3634
  38852317.01248  30290598.00246  22170680.8914   22170681.0554   27638898.67647
                                  21554559.25444                  23424239.2114
  23424236.8094   26754952.79348  20863249.35746  21552052.9534   21552049.7384
  24974994.81348  19476262.26046  20733740.8284   20733737.0784   26314064.42248
  20521105.79147  20497877.1884   20497874.1454
 11  7 25  3  7 30.0000000  0  7G02G29G25G04G10G12G05
  19408217.30948  15139564.32746  20842477.2274                   20842472.1724
  53287746.89146  41536544.33144  24076440.7814                   24076441.0704
  38758065.52048  30217155.30146  22152745.2504   22152745.1604   27685527.33247
                                  21590893.26944                  23433111.8674
  23433110.4924   26783973.29747  20885862.75745  21557575.2194   21557572.3984
  24947368.51248  19454735.28546  20728483.3754   20728480.1294   26238865.16448
  20462508.99447  20483567.0634   20483564.0744
 11  7 25  3  8  0.0000000  0  7G02G29G25G04G10G12G05
  19398757.02748  15132192.68846  20840677.0704                   20840672.2464
  53169247.95347  41444207.65444  24053892.2114                   24053891.1604
  38664300.34848  30144091.53746  22134902.2344   22134902.2384   27732138.45746
                                  21627213.60844                  23441981.7194
  23441979.8014   26813483.16448  20908857.44645  21563190.8204   21563188.1094
  24920326.23848  19433663.38246  20723337.2424   20723333.9264   26164219.39548
  20404343.49147  20469362.6484   20469358.9494
 11  7 25  3  8 30.0000000  0  7G02G29G25G04G10G12G05
  19389466.39548  15124953.24046  20838909.0474                   20838903.7154
  53050706.14146  41351837.57344  24031333.8364                   24031332.5084
  38571026.60248  30071410.72546  22117152.4454   22117152.7154   27778734.44546
                                  21663522.18844                  23450849.3364
  23450846.9734   26843483.01647  20932233.95145  21568899.3984   21568896.5664
  24893870.59448  19413048.60446  20718303.3204   20718299.8404   26090131.59448
  20346612.75147  20455264.2274   20455261.0164
 11  7 25  3  9  0.0000000  0  7G02G29G25G04G10G12G05
  19380336.33648  15117838.92146  20837171.9614                   20837166.8324
  52932114.59046  41259428.70243  24008766.4844                   24008764.0204
  38478238.20748  29999108.11046  22099495.8054   22099495.8284   27825306.38346
                                  21699811.99844                  23459710.9224
  23459708.4454   26873962.39147  20955984.15145  21574699.5164   21574696.4454
  24867993.18048  19392884.39946  20713378.6724   20713375.5314   26016594.25048
  20289310.96347  20441270.4224   20441267.1414
 11  7 25  3  9 30.0000000  0  7G02G29G25G04G10G12G05
  19371370.71148  15110852.73046  20835465.6484                   20835460.6024
  52813478.37546  41166984.99943  23986190.1254                   23986188.7734
  38385941.70748  29927188.78746  22081932.5394   22081932.1054   27871857.93846
                                  21736085.91243                  23468569.6174
  23468566.9774   26904923.57047  20980109.75245  21580591.1174   21580588.3244
  24842698.89148  19373174.56546  20708565.5164   20708562.3134   25943613.65648
  20232443.00047  20427382.5004   20427379.3164
 11  7 25  3 10  0.0000000  0  7G02G29G25G04G10G12G05
  19362566.92248  15103992.65846  20833790.3134                   20833785.1994
  52694797.10947  41074506.24144  23963605.9144                   23963604.6604
  38294137.68448  29855653.21546  22064462.4924   22064462.5274   27918387.25846
                                  21772342.54944                  23477423.5944
  23477421.6054   26936362.45348  21004607.60145  21586573.4534   21586571.1804
  24817985.16848  19353917.13146  20703862.5784   20703859.1374   25871189.01648
  20176008.24747  20413600.3284   20413597.7624
 11  7 25  3 10 30.0000000  0  7G02G29G25G04G10G12G05
  19353924.80548  15097258.54846  20832145.7894                   20832140.5784
  52576072.34046  40981993.58444  23941013.3914                   23941012.4264
  38202828.77048  29784503.44246  22047087.1414   22047086.9264   27964894.02346
                                  21808581.55644                  23486274.4454
  23486271.4184   26968277.07047  21029476.14145  21592647.0474   21592644.5394
  24793852.65248  19335112.56946  20699270.1024   20699266.9384   25799322.14548
  20120008.11647  20399924.5234   20399921.4844
 11  7 25  3 11  0.0000000  0  7G02G29G25G04G10G12G05
  19345444.94548  15090650.87846  20830532.1724                   20830526.9264
  52457306.26246  40889448.73744  23918412.0634                   23918412.3634
  38112018.28148  29713742.06246  22029806.3204   22029805.9534   28011378.72747
                                  21844803.42843                  23495119.8364
  23495116.7464   27000666.46948  21054714.65245  21598810.1414   21598807.1604
  24770302.33648  19316761.67646  20694788.6024   20694785.3134   25728015.09448
  20064444.20747  20386355.4144   20386352.5164
 11  7 25  3 11 30.0000000  0  7G02G29G25G04G10G12G05
  19337130.25848  15084171.91146  20828950.1724                   20828945.0044
  52338503.22346  40796875.14244  23895804.9924                   23895803.5514
  38021711.74248  29643373.38946  22012621.6954   22012621.3054   28057844.28547
                                  21881010.37143                  23503961.7194
  23503959.1414   27033531.69548  21080323.94345  21605064.4534   21605061.7504
  24747337.86348  19298867.28846  20690419.1334   20690415.6564   25657272.19948
  20009319.89647  20372893.0634   20372890.8554
 11  7 25  3 12  0.0000000  0  7G02G29G25G04G10G12G05
  19328978.01248  15077819.54446  20827398.7584                   20827393.5044
  52219662.86346  40704272.41344  23873190.2424                   23873188.8914
  37931909.51648  29573397.66546  21995532.9454   21995532.5744   28104288.46147
                                  21917200.59643                  23512799.5394
  23512796.5594   27066868.74648  21106300.87845  21611408.4924   21611405.5434
  24724956.80148  19281427.51146  20686159.9774   20686156.7194   25587093.60948
  19954635.32047  20359538.3594   20359535.6374
 11  7 25  3 12 30.0000000  0  7G02G29G25G04G10G12G05
  19320984.02748  15071590.46746  20825877.3054                   20825872.2074
  52100782.48447  40611638.54544  23850568.9224                   23850566.1054
  37842609.89548  29503813.59946  21978539.6174   21978539.1294   28150706.98047
                                  21953370.89243                  23521633.2814
  23521630.4734   27100671.57848  21132640.76845  21617840.6564   21617838.1254
  24703154.94148  19264439.05046  20682010.9144   20682007.5314   25517476.46948
  19900388.21847  20346290.9774   20346288.1214
 11  7 25  3 13  0.0000000  0  7G02G29G25G04G10G12G05
  19313147.43047  15065484.03346  20824385.8284                   20824380.7424
  51981863.25446  40518974.30144  23827939.0164                   23827937.3094
  37753814.91848  29434622.75346  21961642.2114   21961641.9574   28197099.42647
                                  21989520.83544                  23530461.2974
  23530459.0704   27134937.67648  21159341.62545  21624361.8134   21624358.3014
  24681932.36348  19247901.97046  20677972.2504   20677969.4614   25448421.52347
  19846579.20147  20333150.1884   20333147.4694
 11  7 25  3 13 30.0000000  0  7G02G29G25G04G10G12G05
  19305467.84448  15059499.94546  20822924.8754                   20822919.6254
  51862906.39846  40426280.82244  23805301.7194                   23805300.7384
  37665527.02048  29365827.02846  21944841.7114   21944841.6294   28243465.30147
                                  22025650.10744                  23539284.3754
  23539282.1884   27169664.78148  21186401.72345  21630969.6254   21630966.6764
  24661288.93448  19231816.19346  20674044.3984   20674041.0274   25379930.21147
  19793209.37147  20320117.2114   20320114.1024
 11  7 25  3 14  0.0000000  0  7G02G29G25G04G10G12G05
  19297940.83248  15053634.75746  20821492.5084                   20821487.1024
  51743909.45346  40333556.05844  23782657.6484                   23782656.5554
  37577744.18848  29297424.87246  21928137.0944   21928137.0634   28289800.37947
                                  22061755.36843                  23548101.4384
  23548098.4104   27204846.80547  21213816.28945  21637664.8594   21637662.0864
  24641220.61748  19216178.54546  20670225.2974   20670221.8754   25311999.48048
  19740276.36847  20307190.1174   20307186.8284
 11  7 25  3 14 30.0000000  0  7G02G29G25G04G10G12G05
  19290567.89148  15047889.61546  20820089.5234                   20820083.7074
  51624875.35546  40240802.31444  23760005.2504                   23760003.9924
  37490470.75048  29229419.64146  21911529.6804   21911529.2584   28336106.40647
                                  22097838.00644                  23556913.5784
  23556910.5234   27240483.59048  21241585.21645  21644446.1254   21644443.4064
  24621728.92248  19200990.21546  20666516.2504   20666512.9844   25244632.66848
  19687782.76947  20294370.5084   20294367.6844
 11  7 25  3 15  0.0000000  0  7G02G29G25G04G10G12G05
  19283352.66847  15042267.37946  20818716.0554                   20818711.1764
  51505809.76247  40148023.99344  23737348.0634                   23737347.4964
  37403713.05148  29161816.27646  21895020.4064   21895019.9384   28382387.06647
                                  22133900.87044                  23565719.9694
  23565718.5634   27276576.82848  21269709.82945  21651314.4774   21651311.7854
  24602817.93848  19186254.39146  20662917.4304   20662914.0164   25177835.53947
  19635733.08547  20281659.4304   20281656.3524
 11  7 25  3 15 30.0000000  0  7G02G29G25G04G10G12G05
                                  20851711.50047
  16264365.18046                  21117164.8674                   21117160.1724
  52962134.72347  41282822.77244  24014477.4064   24014476.3954   38892892.39148
  30322215.79346                  22178401.4304   22178401.2934   30004056.85547
  23397539.58743  23874313.1564   23874311.8674   28888539.60248  22525784.71945
  21958060.9454   21958057.9264   26159904.89148  20399568.91346  20959221.2274
  20959217.8834   26687027.32847  20811726.71647  20568849.3284   20568846.6174
 11  7 25  3 16  0.0000000  0  7G02G29G25G04G10G12G05
                                  20844802.51247
  16258981.55846                  21115850.1094                   21115844.9414
  52843002.87147  41189992.85544  23991807.5314   23991805.2424   38807164.55148
  30255414.90246                  22162087.7734   22162087.7544   30050278.03146
  23433556.12944  23883108.5394   23883106.6134   28925531.50848  22554609.59945
  21965100.1484   21965096.9844   26142146.82847  20385731.46946  20955842.2664
  20955838.8674   26621364.14547  20760560.63047  20556354.0004   20556350.7194
 11  7 25  3 16 30.0000000  0  7G02G29G25G04G10G12G05
                                  20838047.79348
  16253718.15146                  21114565.1884                   21114560.1214
  52723841.89147  41097140.18844  23969131.8054   23969130.5704   38721956.77748
  30189019.26846                  22145873.9384   22145873.3164   30096471.07447
  23469550.67144  23891900.1724   23891897.7814   28962971.50848  22583783.61945
  21972224.3204   21972221.8874   26124966.59048  20372344.28546  20952572.7504
  20952569.2074   26556271.17247  20709838.86147  20543966.8364   20543964.0234
 11  7 25  3 17  0.0000000  0  7G02G29G25G04G10G12G05
                                  20831443.13748
  16248571.67546                  21113308.0164                   21113302.9384
  52604648.94546  41004262.68244  23946450.0084   23946449.0744   38637267.32848
  30123027.51046                  22129757.3754   22129757.5044   30142631.87946
  23505520.13743  23900683.2504   23900681.7504   29000853.44948  22613302.01945
  21979433.1724   21979430.2504   26108360.03948  20359404.12146  20949412.5474
  20949409.2344   26491746.03948  20659559.57047  20531687.8984   20531685.1994
 11  7 25  3 17 30.0000000  0  7G02G29G25G04G10G12G05
                                  20824986.76648
  16243540.73546                  21112079.4614                   21112073.8204
  52485424.00447  40911360.20344  23923762.6884   23923761.0164   38553096.82848
  30057440.12046                  22113740.5164   22113740.0984   30188758.50446
  23541462.96443  23909461.3674   23909458.7704   29039173.13748  22643161.51745
  21986725.3594   21986722.5554   26092325.94148  20346910.03046  20946361.5084
  20946358.0634   26427788.16848  20609722.28047  20519517.2734   20519514.4144
 11  7 25  3 18  0.0000000  0  7G02G29G25G04G10G12G05
                                  20818683.65648
  16238629.23846                  21110880.0864                   21110874.8284
  52366174.75047  40818438.74244  23901069.6564   23901068.3164   38469452.93848
  29992263.08846                  22097823.6644   22097823.2234   30234856.42646
  23577383.34243  23918233.1884   23918231.1724   29077934.12547  22673364.88945
  21994101.3284   21994098.5434   26076869.26248  20334865.86546  20943420.1174
  20943417.2814   26364404.44148  20560332.39547  20507455.8984   20507453.1334
 11  7 25  3 18 30.0000000  0  7G02G29G25G04G10G12G05
                                  20812530.57048
  16233834.63046                  21109708.8754                   21109704.0944
  52246899.06347  40725496.74144  23878372.3754   23878369.9144   38386334.82848
  29927495.73146                  22082006.5704   22082006.4264   30280922.71146
  23613279.16343  23926999.4534   23926997.3284   29117131.01247  22703907.90345
  22001560.0084   22001557.3524   26061986.34448  20323268.79646  20940588.2194
  20940584.8594   26301592.43848  20511387.99947  20495503.2034   20495500.3244
 11  7 25  3 19  0.0000000  0  7G02G29G25G04G10G12G05
                                  20806527.35548
  16229156.80846                  21108566.5004                   21108561.8094
  52127598.80547  40632535.57544  23855669.7194   23855668.0744   38303744.89548
  29863139.93846                  22066290.8984   22066290.1454   30326957.06346
  23649150.04544  23935759.6884   23935756.9414   29156762.03547  22734789.21345
  22009101.7664   22009098.9024   26047677.21948  20312118.82946  20937865.4924
  20937862.0434   26239353.98848  20462890.53647  20483659.3134   20483656.0824
 11  7 25  3 19 30.0000000  0  7G02G29G25G04G10G12G05
                                  20800671.63748
  16224593.89946                  21107452.2974                   21107447.6954
  52008273.23846  40539554.70844  23832962.7274   23832961.1604   38221683.09848
  29799195.68946                  22050674.4534   22050674.0514   30372957.43446
  23684994.54143  23944512.2584   23944511.1994   29196823.02747  22766005.56645
  22016724.9224   22016722.2974   26033939.46948  20301414.10446  20935250.7114
  20935247.4264   26177687.73448  20414838.92647  20471924.7424   20471921.7154
 11  7 25  3 20  0.0000000  0  7G02G29G25G04G10G12G05
                                  20794963.17248
  16220145.74446                  21106365.8914                   21106360.7974
  51888924.30546  40446555.61044  23810251.8674   23810249.5634   38140151.59448
  29735664.67346                  22035159.6414   22035159.3954   30418923.80146
  23720812.49543  23953260.5474   23953258.4104   29237311.87547  22797555.30945
  22024430.1094   22024427.3984   26020773.13748  20291154.62846  20932745.4454
  20932742.0004   26116594.57048  20367233.89647  20460298.9454   20460295.8874
 11  7 25  3 20 30.0000000  0  7G02G29G25G04G10G12G05
                                  20789402.22348
  16215812.53546                  21105308.1414                   21105302.6024
  51769554.16846  40353540.00844  23787536.6564   23787535.5354   38059153.14148
  29672548.99246                  22019746.4384   22019745.9184   30464856.80546
  23756604.41044  23962001.3054   23961999.0944   29278226.64547  22829436.94045
  22032215.7894   22032212.7424   26008178.06648  20281340.30146  20930348.4844
  20930345.1954   26056076.21548  20320076.75147  20448783.0084   20448780.0084
 11  7 25  3 21  0.0000000  0  7G02G29G25G04G10G12G05
                                  20783988.17648
  16211593.80246                  21104277.6414                   21104272.5744
  51650163.65646  40260508.55244  23764816.9694   23764815.6804   37978689.08248
  29609849.74546                  22004434.5004   22004434.2934   30510755.37146
  23792369.54043  23970734.8984   23970732.5234   29319564.66847  22861648.38645
  22040082.1644   22040078.9494   25996153.29348  20271970.34146  20928060.5004
  20928057.3794   25996133.30548  20273368.00747  20437375.9614   20437373.2504
 11  7 25  3 21 30.0000000  0  7G02G29G25G04G10G12G05
                                  20778717.85548
  16207487.06246                  21103274.9454                   21103269.7774
  51530751.49246  40167460.23244  23742093.4924   23742091.8164   37898758.71948
  29547566.38346                  21989223.7424   21989223.6174   30556616.95746
  23828105.86643  23979462.1724   23979460.0554   29361321.16447  22894185.92745
  22048027.8524   22048024.9264   25984695.90648  20263042.51346  20925880.1724
  20925876.7154   25936763.60248  20227105.92747  20426078.4924   20426075.4414
 11  7 25  3 22  0.0000000  0  7G02G29G25G04G10G12G05
                                  20773594.22748
  16203494.62346                  21102299.5164                   21102294.5274
  51411322.85547  40074399.05144  23719367.0234   23719365.2774   37819367.56348
  29485703.17146                  21974116.4304   21974116.4104   30602444.93047
  23863816.01043  23988183.6254   23988181.7034   29403497.15647  22927050.32345
  22056054.3364   22056050.6524   25973808.71548  20254558.98046  20923808.2814
  20923805.2624   25877971.61348  20181294.01647  20414890.4694   20414887.6884
 11  7 25  3 22 30.0000000  0  7G02G29G25G04G10G12G05
                                  20768612.60247
  16199612.84846                  21101351.6414                   21101346.6684
  51291874.82846  39981322.76944  23696636.7114   23696634.9774   37740513.07448
  29424258.14446                  21959110.7664   21959110.7584   30648234.68846
  23899496.33143  23996896.2344   23996894.6454   29446085.86347  22960236.32645
  22064158.2734   22064155.7304   25963486.45348  20246515.67546  20921844.0084
  20921840.7974   25819753.84448  20135929.54647  20403812.3984   20403809.1804
 11  7 25  3 23  0.0000000  0  7G02G29G25G04G10G12G05
                                  20763778.02347
  16195845.64346                  21100431.6174                   21100426.3444
  51172414.54346  39888236.96844  23673904.3284   23673901.7274   37662202.53548
  29363236.97546                  21944208.6334   21944208.3874   30693991.34446
  23935150.92443  24005604.3444   24005601.0084   29489090.49647  22993746.43245
  22072341.8914   22072338.6484   25953734.21148  20238916.52146  20919988.3984
  20919985.0234   25762116.46948  20091017.32947  20392843.7894   20392840.9774
 11  7 25  3 23 30.0000000  0  7G02G29G25G04G10G12G05
                                  20759083.45748
  16192187.54546                  21099538.2424                   21099533.4184
  51052936.69147  39795137.45244  23651167.4064   23651166.5204   37584430.97348
  29302635.79546                  21929409.4694   21929409.1764   30739708.05946
  23970774.33043  24014303.3284   24014300.9884   29532501.43047  23027573.12045
  22080602.5554   22080599.9924   25944544.73848  20231755.89646  20918239.7274
  20918236.5314   25705053.11348  20046552.39647  20381985.2344   20381982.4064
 11  7 25  3 24  0.0000000  0  7G02G29G25G04G10G12G05
                                  20754529.72348
  16188639.18246                  21098671.9224                   21098666.6994
  50933443.75447  39702026.23444  23628429.7194   23628427.2304   37507201.48048
  29242457.00246                  21914713.2664   21914712.5044   30785385.97746
  24006367.59943  24022995.7734   24022993.0314   29576318.09846  23061715.98445
  22088940.3204   22088937.2034   25935918.69948  20225034.31046  20916597.8914
  20916595.0394   25648566.02748  20002536.50947  20371236.0164   20371232.9344
 11  7 25  3 24 30.0000000  0  7G02G29G25G04G10G12G05
                                  20750116.12548
  16185200.02446                  21097832.1954                   21097827.0704
  50813936.83247  39608904.06044  23605687.0314   23605686.1954   37430515.28947
  29182701.58146                  21900119.9384   21900119.7234   30831024.43046
  24041930.00843  24031680.4844   24031677.6024   29620537.36347  23096172.55745
  22097355.0004   22097352.1884   25927854.41448  20218750.44346  20915063.4454
  20915059.9414   25592655.22748  19958969.67047  20360596.6024   20360593.6294
 11  7 25  3 25  0.0000000  0  7G02G29G25G04G10G12G05
                                  20745843.96948
  16181871.07046                  21097019.2194                   21097013.8094
  50694419.57847  39515773.86344  23582944.0394   23582942.5004   37354376.23047
  29123372.49046                  21885631.2424   21885630.6214   30876625.16846
  24077463.07143  24040357.6024   24040355.9024   29665158.84047  23130942.53545
  22105846.0314   22105843.5474   25920353.34848  20212905.46446  20913635.9844
  20913632.6374   25537323.45748  19915854.03447  20350067.2734   20350064.3984
 11  7 25  3 25 30.0000000  0  7G02G29G25G04G10G12G05
                                  20741708.00848
  16178648.25946                  21096231.8984                   21096226.7504
  50574888.30947  39422632.74845  23560198.0004   23560196.4654   37278781.00848
  29064467.16846                  21871246.1334   21871245.3674   30922183.21946
  24112962.84743  24049027.2664   24049025.2664   29710175.04747  23166020.10245
  22114412.6254   22114409.4804   25913409.92648  20207495.01146  20912314.6884
  20912311.6054   25482566.09448  19873185.98647  20339647.4304   20339644.0274
 11  7 25  3 26  0.0000000  0  7G02G29G25G04G10G12G05
                                  20737712.21148
  16175534.65446                  21095471.8204                   21095466.6764
  50455349.07847  39329485.45544  23537450.2894   23537449.0354   37203735.63748
  29005990.29846                  21856965.2194   21856964.5084   30967702.50046
  24148432.48143  24057689.8984   24057686.8554   29755587.85547  23201406.71645
  22123054.2194   22123051.3674   25907027.50448  20202521.69846  20911100.2734
  20911096.9494   25428388.15248  19830969.43047  20329337.8134   20329334.7154
 11  7 25  3 26 30.0000000  0  7G02G29G25G04G10G12G05
                                  20733849.86748
  16172525.05246                  21094736.4774                   21094731.9884
  50335797.19147  39236328.23844  23514700.9774   23514698.3554   37129235.43848
  28947938.23446                  21842788.3914   21842787.7154   31013176.66846
  24183866.87143  24066342.0474   24066340.1454   29801388.59047  23237095.57345
  22131770.3754   22131767.0864   25901198.66848  20197979.74546  20909990.8204
  20909987.7734   25374783.96548  19789199.95647  20319137.0784   20319133.8014
 11  7 25  3 27  0.0000000  0  7G02G29G25G04G10G12G05
                                  20730122.00448
  16169620.22246                  21094027.3674                   21094022.1564
  50216235.16847  39143163.15844  23491949.0474   23491946.4304   37055283.19948
  28890313.15846                  21828715.6954   21828714.9804   31058606.53146
  24219266.80943  24074986.8364   24074985.8094   29847575.79747  23273085.61845
  22140559.0634   22140556.0234   25895924.14848  20193869.74046  20908987.3984
  20908984.2584   25321755.04748  19747878.74447  20309046.0084   20309043.1644
 11  7 25  3 27 30.0000000  0  7G02G29G25G04G10G12G05
                                  20726530.64147
  16166821.76246                  21093343.4144                   21093338.7544
  50096667.16047  39049993.41444  23469195.3444   23469192.9494   36981883.30947
  28833118.46646                  21814747.9694   21814747.4884   31103995.10246
  24254634.48143  24083624.0394   24083622.5944   29894150.23447  23309377.39345
  22149422.1484   22149418.8204   25891205.69147  20190193.01846  20908089.2814
  20908086.2194   25269304.57448  19707008.27047  20299064.8674   20299061.7074
 11  7 25  3 28  0.0000000  0  7G02G29G25G04G10G12G05
                                  20723071.16448
  16164126.08546                  21092685.7894                   21092680.6174
  49977090.48047  38956816.85844  23446440.2664   23446437.9454   36909032.84047
  28776351.89046                  21800885.1414   21800885.0084   31149337.41046
  24289966.22943  24092253.6884   24092250.8674   29941104.30147  23345964.99345
  22158357.0864   22158354.0044   25887037.84848  20186945.36746  20907296.2894
  20907293.5354   25217428.37548  19666585.27147  20289193.2974   20289190.0664
 11  7 25  3 28 30.0000000  0  7G02G29G25G04G10G12G05
                                  20719745.49248
  16161534.66246                  21092052.8754                   21092047.5314
  49857508.80547  38863636.45444  23423684.6804   23423683.1564   36836735.78148
  28720016.56546                  21787127.7034   21787126.8484   31194635.77346
  24325263.62143  24100873.0704   24100871.3014   29988437.87147  23382848.29445
  22167364.4844   22167361.2664   25883422.19948  20184127.97746  20906608.4454
  20906605.1804   25166129.57848  19626612.20647  20279431.3524   20279428.6254
 11  7 25  3 29  0.0000000  0  7G02G29G25G04G10G12G05
                                  20716554.43048
  16159048.12746                  21091445.3364                   21091440.0594
  49737925.33647  38770454.63744  23400928.8914   23400926.4024   36764994.99648
  28664114.67746                  21773475.7974   21773475.7734   31239891.53946
  24360527.88244  24109485.0554   24109483.5354   30036150.10947  23420026.68045
  22176443.7974   22176440.9774   25880359.24648  20181741.26646  20906025.5704
  20906022.2274   25115409.72748  19587090.26847  20269779.5944   20269776.6294
 11  7 25  3 29 30.0000000  0  7G02G29G25G04G10G12G05
                                  20713500.36347
  16156668.34546                  21090864.4534                   21090859.3244
  49618343.86747  38677274.34644  23378173.1414   23378170.8674   36693814.43448
  28608649.32446                  21759930.4304   21759930.1484   31285106.81346
  24395760.55543  24118089.1414   24118087.4224   30084240.79347  23457499.94945
  22185594.7814   22185591.6564   25877849.88347  20179785.92446  20905547.8054
  20905544.7114   25065271.71548  19548021.71647  20260238.5394   20260235.6454
 11  7 25  3 30  0.0000000  0  7G02G29G25G04G10G12G05
                                  20710577.09847
  16154390.48746                  21090307.6254                   21090302.9654
  49498760.57047  38584092.64644  23355417.2664   23355415.1644   36623190.19548
  28553617.48646                  21746490.7664   21746490.0664   31330276.43846
  24430957.66744  24126684.6484   24126682.7274   30132702.16047  23495262.07245
  22194817.4844   22194813.9844   25875887.78547  20178257.02846  20905174.5314
  20905171.1454   25015710.34848  19509402.48847  20250807.7814   20250804.5634
 11  7 25  3 30 30.0000000  0  7G02G29G25G04G10G12G05
                                  20707784.48048
  16152214.42446                  21089776.3754                   21089771.2504
  49379176.87547  38490910.62444  23332660.8594   23332658.7074   36553123.44548
  28499020.03246                  21733157.5864   21733157.8594   31375399.77046
  24466118.75544  24135271.2114   24135269.5204   30181531.22347  23533310.70845
  22204108.8204   22204105.7734   25874471.97748  20177153.79746  20904905.4384
  20904902.1024   24966725.75048  19471232.69447  20241486.0004   20241482.7304
 11  7 25  3 31  0.0000000  0  7G02G29G25G04G10G12G05
                                  20705125.68048
  16150142.64846                  21089270.4304                   21089265.1484
  49259597.64147  38397732.07944  23309905.1954   23309903.4804   36483619.14148
  28444860.86646                  21719931.8914   21719930.5944   31420480.31346
  24501246.37943  24143849.6484   24143848.2034   30230728.98047  23571646.62145
  22213470.6334   22213468.0704   25873604.93048  20176478.20646  20904740.1644
  20904737.0234   24918321.43448  19433515.05747  20232274.9614   20232271.6884
 11  7 25  3 31 30.0000000  0  7G02G29G25G04G10G12G05
                                  20702597.50448
  16148172.64446                  21088789.4144                   21088784.2544
  49140022.05547  38304556.35444  23287151.3204   23287148.3554   36414675.93048
  28391138.90146                  21706811.9774   21706811.6414   31465515.07446
  24536338.41843  24152419.6644   24152417.1094   30280290.52347  23610266.03145
  22222901.9614   22222899.3404   25873282.60948  20176227.03646  20904678.5784
  20904675.7544   24870495.17248  19396247.85947  20223173.7974   20223170.6454
 11  7 25  3 32  0.0000000  0  7G02G29G25G04G10G12G05
                                  20700199.10948
  16146303.77146                  21088333.1024                   21088327.7624
  49020450.93446  38211384.11244  23264397.9384   23264395.6134   36346294.84048
  28337854.96246                  21693799.7274   21693799.2544   31510503.58646
  24571394.40643  24160980.7584   24160978.9574   30330212.45747  23649166.26345
  22232402.2974   22232398.9534   25873503.37948  20176399.07446  20904720.8134
  20904717.5204   24823246.56648  19359430.79647  20214182.8134   20214179.8164
 11  7 25  3 32 30.0000000  0  7G02G29G25G04G10G12G05
                                  20697930.43448
  16144535.98846                  21087901.3284                   21087896.3674
  48900886.48446  38118217.06844  23241645.1884   23241642.8134   36278477.54348
  28285010.34746                  21680894.4534   21680893.2424   31555445.91046
  24606414.45143  24169533.5554   24169531.3484   30380492.59447  23688345.58545
  22241970.1724   22241967.1214   25874266.58648  20176993.78746  20904866.0944
  20904862.3634   24776576.13748  19323064.24747  20205301.5864   20205298.3324
 11  7 25  3 33  0.0000000  0  7G02G29G25G04G10G12G05
                                  20695788.10548
  16142866.66146                  21087493.5004                   21087488.6954
  48781327.27347  38025054.06944  23218893.5864   23218891.5594   36211222.24248
  28232603.63446                  21668096.1724   21668095.9224   31600339.28146
  24641396.22643  24178076.0554   24178073.6884   30431125.51647  23727799.79245
  22251605.2584   22251602.1914   25875568.06648  20178007.92946  20905113.3914
  20905110.1804   24730481.33248  19287146.23347  20196530.1564   20196527.0354
 11  7 25  3 33 30.0000000  0  7G02G29G25G04G10G12G05
                                  20693771.16848
  16141295.02546                  21087109.7034                   21087104.7424
  48661774.30147  37931895.97945  23196142.8834   23196141.9804   36144529.52348
  28180635.29546                  21655405.1024   21655404.4884   31645182.81646
  24676339.30843  24186609.1644   24186606.6764   30482107.87947  23767526.30945
  22261306.3984   22261303.4844   25877405.60548  20179439.77346  20905463.4614
  20905460.3134   24684961.39148  19251676.16747  20187867.8284   20187864.7074
 11  7 25  3 34  0.0000000  0  7G02G29G25G04G10G12G05
                                  20691880.96948
  16139822.14846                  21086750.0084                   21086745.1414
  48542230.59847  37838745.10245  23173395.1414   23173392.7384   36078402.17648
  28129107.52146                  21642821.0944   21642820.6484   31689977.64546
  24711244.33643  24195132.4224   24195131.8134   30533438.65647  23807524.30545
  22271074.5394   22271072.0474   25879779.92648  20181289.90046  20905915.0084
  20905911.7114   24640017.78548  19216655.19347  20179315.2034   20179312.0164
 11  7 25  3 34 30.0000000  0  7G02G29G25G04G10G12G05
                                  20690121.40247
  16138451.06846                  21086415.1564                   21086409.9264
  48422702.24247  37745606.16845  23150649.7114   23150647.4414   36012846.02348
  28078024.82846                  21630346.2504   21630345.4844   31734728.66446
  24746115.29443  24203649.6334   24203646.9384   30585119.64147  23847795.20145
  22280909.1334   22280906.5084   25882693.88748  20183560.52046  20906469.6414
  20906466.3834   24595655.24248  19182087.00347  20170873.7734   20170870.2624
 11  7 25  3 35  0.0000000  0  7G02G29G25G04G10G12G05
                                  20688488.05948
  16137178.32446                  21086104.2424                   21086099.2974
  48303186.80147  37652477.30245  23127906.6094   23127904.5744   35947858.00048
  28027384.82846                  21617979.5394   21617978.5394   31779431.13746
  24780948.40243  24212155.6174   24212153.2034   30637144.24647  23888333.87344
  22290808.6724   22290806.2734   25886141.93448  20186247.30646  20907125.6724
  20907122.2624   24551869.35548  19147968.13247  20162541.3914   20162538.5234
 11  7 25  3 35 30.0000000  0  7G02G29G25G04G10G12G05
                                  20686977.65648
  16136001.41146                  21085816.9384                   21085812.1374
  48183682.62947  37559357.21445  23105165.6414   23105163.3954   35883436.35548
  27977186.15546                  21605720.5234   21605719.4024   31824082.35546
  24815741.53143  24220652.5784   24220650.1454   30689506.84447  23929135.89345
  22300773.1334   22300770.9654   25890120.14848  20189347.19046  20907882.7894
  20907879.6024   24508657.16448  19114296.31547  20154318.6414   20154315.1174
 11  7 25  3 36  0.0000000  0  6G02G29G25G10G12G05
                                  20685590.86348
  16134920.79546                  21085553.1644                   21085548.2934
  48064192.67647  37466248.20545  23082427.5704   23082425.4144   35819583.21548
  27927430.47746  21593569.8054   21593568.8714   30742205.89847  23970200.06145
  22310801.5314   22310798.4964   25894627.86348  20192859.69246  20908740.8204
  20908737.1024   24466019.95348  19081072.52747  20146204.7504   20146201.6844
 11  7 25  3 36 30.0000000  0  6G02G29G25G10G12G05
                                  20684327.90247
  16133936.68046                  21085312.2664                   21085307.3204
  47944718.93447  37373151.87544  23059692.2424   23059690.8794   35756300.30148
  27878119.12846  21581527.3524   21581526.4924   30795239.21147  24011524.69944
  22320893.4224   22320890.7154   25899664.36748  20196784.24146  20909699.3054
  20909695.6414   24423957.90248  19048296.93647  20138200.4774   20138197.4844
 11  7 25  3 37  0.0000000  0  6G02G29G25G10G12G05
                                  20683199.83247
  16133057.67346                  21085098.1954                   21085093.1914
  47825274.43047  37280078.27245  23036962.4144   23036960.2274   35693599.90248
  27829261.68346  21569595.8754   21569594.9884   30848615.51647  24053116.63245
  22331050.7274   22331047.8444   25905239.53948  20201128.53046  20910759.8984
  20910756.7154   24382482.53948  19015978.47247  20130307.9534   20130304.9774
 11  7 25  3 37 30.0000000  0  6G02G29G25G10G12G05
                                  22257625.09848
  17359882.55646                  21384701.2974                   21384695.8014
  49281283.82846  38414631.09044  23314031.8364   23314028.7464   37206904.03948
  29008459.73446  21857567.7894   21857567.6914   32477749.12547  25322571.37245
  22641064.3914   22641061.6994   27486770.63348  21433490.41646  21211715.6094
  21211712.0514   25917013.62148  20211716.99747  20422319.7504   20422316.4614
 11  7 25  3 38  0.0000000  0  6G02G29G25G10G12G05
                                  22256757.69148
  17359206.65946                  21384536.1884                   21384531.3404
  49161895.10946  38321601.01044  23291312.8984   23291310.5474   37145364.08248
  28960506.53946  21845857.1414   21845856.9024   32531795.54747  25364685.46944
  22651349.4144   22651346.1914   27493411.08248  21438664.77846  21212979.0864
  21212975.7384   25876703.01648  20180306.14547  20414648.7344   20414645.7344
 11  7 25  3 38 30.0000000  0  6G02G29G25G10G12G05
                                  22256019.03548
  17358631.09146                  21384395.3204                   21384390.6564
  49042535.48046  38228593.56744  23268598.6414   23268596.6454   37084404.74248
  28913005.77346  21834257.0084   21834256.3984   32586172.02047  25407056.74044
  22661696.9924   22661693.4964   27500580.91448  21444251.64446  21214343.4534
  21214340.1334   25836973.35948  20149348.00247  20407088.4384   20407085.3524
 11  7 25  3 39  0.0000000  0  6G02G29G25G10G12G05
                                  22255402.39548
  17358150.59546                  21384278.0474                   21384273.2814
  48923200.36347  38135605.21344  23245890.8134   23245888.4774   37024020.57448
  28865953.19246  21822766.4064   21822765.6054   32640869.13347  25449677.87744
  22672105.4224   22672101.8794   27508272.19148  21450244.86046  21215807.0704
  21215803.6334   25797817.87948  20118837.24247  20399637.3524   20399634.3984
 11  7 25  3 39 30.0000000  0  6G02G29G25G10G12G05
                                  22254909.98848
  17357766.91346                  21384184.7194                   21384179.6764
  48803893.86347  38042639.16344  23223187.2114   23223185.4144   36964215.00848
  28819351.46446  21811385.5944   21811385.0594   32695886.95347  25492548.90545
  22682574.8134   22682571.5944   27516485.51648  21456644.85446  21217369.6254
  21217366.5704   25759239.14848  20088775.90847  20392296.0234   20392292.8324
 11  7 25  3 40  0.0000000  0  6G02G29G25G10G12G05
                                  22254539.94147
  17357478.57546                  21384114.1414                   21384109.0354
  48684616.14147  37949695.51745  23200489.5554   23200487.1254   36904987.43448
  28773200.11446  21800115.5554   21800114.0554   32751221.47347  25535666.67845
  22693104.5784   22693102.1644   27525218.31648  21463449.62946  21219031.6954
  21219028.2624   25721235.24248  20059162.49547  20385064.2424   20385061.0124
 11  7 25  3 40 30.0000000  0  6G02G29G25G10G12G05
                                  22254291.39547
  17357284.91646                  21384067.1174                   21384061.8594
  48565368.07047  37856774.99744  23177797.2894   23177795.1374   36846338.06648
  28727499.33246  21788954.4384   21788953.7234   32806869.17247  25579028.54644
  22703694.3984   22703691.1214   27534467.83648  21470657.04146  21220791.9844
  21220788.9694   25683805.19148  20029996.24247  20377941.3914   20377938.3364
 11  7 25  3 41  0.0000000  0  6G02G29G25G10G12G05
                                  22254161.86348
  17357183.99346                  21384042.4614                   21384036.7774
  48446149.27347  37763877.30145  23155111.1564   23155108.5634   36788265.52348
  28682247.99946  21777903.5084   21777903.0044   32862825.16847  25622630.60744
  22714342.4454   22714339.1804   27544230.43448  21478264.25046  21222649.6024
  21222646.2304   25646946.54748  20001275.23447  20370927.3134   20370924.5004
 11  7 25  3 41 30.0000000  0  6G02G29G25G10G12G05
                                  22254151.02048
  17357175.54746                  21384040.4144                   21384035.2854
  48326961.50847  37671003.77645  23132429.7584   23132426.8794   36730770.62548
  28637446.79846  21766962.7194   21766961.6484   32919087.08647  25666471.02944
  22725048.3444   22725045.5664   27554504.81348  21486270.25246  21224604.7664
  21224601.5514   25610659.04748  19972999.28447  20364022.2894   20364018.9694
 11  7 25  3 42  0.0000000  0  6G02G29G25G10G12G05
                                  22254255.71948
  17357257.12646                  21384059.9384                   21384054.8554
  48207803.66447  37578153.55345  23109755.4384   23109752.0704   36673851.21948
  28593094.01746  21756131.1954   21756130.3954   32975649.14547  25710545.33744
  22735811.6094   22735808.6174   27565286.35948  21494671.45746  21226656.6094
  21226653.2234   25574938.89148  19945165.40147  20357224.7034   20357221.5824
 11  7 25  3 42 30.0000000  0  6G02G29G25G10G12G05
                                  22254482.26248
  17357433.65146                  21384103.3674                   21384098.2304
  48088683.98447  37485333.09545  23087087.5944   23087084.8014   36617515.09448
  28549195.76946  21745410.7584   21745409.9264   33032515.63347  25754856.88244
  22746632.7424   22746630.8364   27576579.61748  21503471.40046  21228805.2584
  21228802.0514   25539792.62948  19917778.73047  20350536.8054   20350533.3364
 11  7 25  3 43  0.0000000  0  6G02G29G25G10G12G05
                                  22254823.09848
  17357699.25246                  21384167.9774                   21384162.7854
  47969597.33647  37392538.36745  23064426.1484   23064423.6804   36561755.72348
  28505746.91546  21734800.0394   21734799.5784   33089676.37147  25799397.72244
  22757510.5084   22757507.3284   27588376.16848  21512663.51546  21231050.1564
  21231046.7274   25505213.38748  19890833.87247  20343956.3284   20343953.2304
 11  7 25  3 43 30.0000000  0  6G02G29G25G10G12G05
                                  22255278.19148
  17358053.87446                  21384254.1564                   21384249.3554
  47850545.09847  37299770.45145  23041770.8134   23041768.8594   36506573.80148
  28462748.03746  21724299.1804   21724298.6644   33147128.91047  25844165.92345
  22768443.7114   22768440.3594   27600674.37548  21522246.52346  21233390.8444
  21233387.5314   25471200.38348  19864330.25447  20337483.9224   20337480.9694
 11  7 25  3 44  0.0000000  0  6G02G29G25G10G12G05
                                  22255849.18048
  17358498.79146                  21384362.7584                   21384358.2854
  47731531.11747  37207032.36545  23019123.2894   23019120.7584   36451971.81648
  28420201.05246  21713908.6254   21713908.2584   33204872.45347  25889160.86044
  22779431.8914   22779428.6214   27613474.24648  21532220.45046  21235826.1954
  21235822.9344   25437755.06648  19838268.98247  20331119.5784   20331116.4844
 11  7 25  3 44 30.0000000  0  6G02G29G25G10G12G05
                                  22256534.71148
  17359032.98946                  21384493.4924                   21384488.4964
  47612556.09447  37114324.60445  22996483.0004   22996480.2504   36397949.62548
  28378105.85546  21703629.0084   21703628.1094   33262903.41847  25934379.78744
  22790474.5314   22790471.7344   27626773.17248  21542583.23646  21238357.2974
  21238353.8324   25404875.41448  19812648.50047  20324862.8594   20324859.3324
 11  7 25  3 45  0.0000000  0  7G02G29G25G26G10G12G05
                                  22257332.89848
  17359654.92746  21384645.3054   21384640.5354   47493620.39547  37021647.51145
  22973849.8364   22973848.3984   36344506.19948  28336461.65546  21693458.8914
  21693457.8874   58199415.69946  45365661.05753                  24492300.1174
                                  24492300.5864   33321217.36746  25979819.21944
  22801571.3364   22801568.7584   27640567.71948  21553332.22646  21240981.9144
  21240979.0124   25372559.63748  19787467.39447  20318712.8134   20318710.3164
 11  7 25  3 45 30.0000000  0  7G02G29G25G26G10G12G05
                                  22258244.12148
  17360364.98346  21384819.4064   21384813.6954   47374726.21147  36929002.76945
  22951225.1804   22951223.0744   36291642.98448  28295269.54046  21683399.3444
  21683398.6484   58066187.25046  45261846.71043                  24466947.3834
                                  24466947.0594   33379812.46547  26025477.73745
  22812722.0944   22812719.0474   27654856.57448  21564466.40646  21243701.3524
  21243697.5664   25340808.19948  19762726.02347  20312671.2584   20312667.7774
 11  7 25  3 46  0.0000000  0  7G02G29G25G26G10G12G05
                                  22259262.00448
  17361158.11946  21385012.4844   21385007.4184   47255869.00847  36836386.84845
  22928607.8984   22928605.3364   36239353.91048  28254524.82646  21673448.8444
  21673448.0354   57932890.92646  45157979.44643                  24441583.6024
                                  24441581.0634   33438679.59447  26071348.21944
  22823924.1804   22823921.3054   27669632.01248  21575979.73146  21246512.9614
  21246509.7704   25309613.72748  19738418.66147  20306734.7584   20306731.5234
 11  7 25  3 46 30.0000000  0  7G02G29G25G26G10G12G05
                                  22260384.43847
  17362032.75146  21385226.2274   21385221.2114   47137049.03147  36743799.91345
  22905996.9694   22905994.3134   36187637.91848  28214226.68246  21663607.7274
  21663607.3244   57799528.51646  45054060.73343                  24416205.2734
                                  24416202.8094   33497814.43446  26117427.29544
  22835177.3364   22835174.3594   27684889.77347  21587868.89146  21249416.3204
  21249413.3524   25278973.85948  19714543.45847  20300904.1254   20300901.0354
